[[{"header":{"parameterUnit":"m.s-1","parameterCategory":1,"la1":30.6,"la2":29.2853,"lo1":-89.7004,"lo2":-87.6739,"dy":0.0162,"dx":0.0183,"nx":112,"ny":82,"refTime":"2024-07-11T06:00:00:Z","depth":0,"parameterNumber":2,"parameterNumberName":"U-component_of_WINDS"},"data":[0.0,0.0,0.0,0.0,0.0,0.0,0.0,0.0,0.0,0.0,0.0,0.0,0.0,0.0,0.0,0.0,0.0,0.0,0.0,0.0,0.0,0.0,0.0,0.0,0.0,0.0,0.0,0.0,0.0,0.0,0.0,0.0,0.0,0.0,0.0,0.0,0.0,0.0,0.0,0.0,0.0,0.0,0.0,0.0,0.0,0.0,0.0,0.0,0.0,0.0,0.0,0.0,0.0,0.0,0.0,0.0,0.0,0.0,0.0,0.0,0.0,0.0,0.0,0.0,0.0,0.0,0.0,0.0,0.0,0.0,0.0,0.0,0.0,0.0,0.0,0.0,0.0,0.0,0.0,0.0,0.0,0.0,0.0,0.0,0.0,0.0,0.0,0.0,0.0,0.0,0.0,-1.5809,-1.7265,-1.8168,-1.8315,-1.7454,-1.6168,-1.4518,0.0,0.0,0.0,0.0,0.0,0.0,0.0,0.0,0.0,0.0,0.0,0.0,0.0,0.0,0.0,0.0,0.0,0.0,0.0,0.0,0.0,0.0,0.0,0.0,0.0,0.0,0.0,0.0,0.0,0.0,0.0,0.0,0.0,0.0,0.0,0.0,0.0,0.0,0.0,0.0,0.0,0.0,0.0,0.0,0.0,0.0,0.0,0.0,0.0,0.0,0.0,0.0,0.0,0.0,0.0,0.0,0.0,0.0,0.0,0.0,0.0,0.0,0.0,0.0,0.0,0.0,0.0,0.0,0.0,0.0,0.0,0.0,0.0,0.0,0.0,0.0,0.0,0.0,0.0,0.0,0.0,0.0,0.0,0.0,0.0,0.0,0.0,0.0,0.0,0.0,0.0,0.0,0.0,0.0,0.0,0.0,0.0,0.0,0.0,0.0,0.0,0.0,0.0,0.0,-1.3532,-1.6719,-1.7686,-1.8097,-1.8071,-1.7044,-1.5825,-1.4485,0.0,0.0,0.0,0.0,0.0,0.0,0.0,0.0,0.0,0.0,0.0,0.0,0.0,0.0,0.0,0.0,0.0,0.0,0.0,0.0,0.0,0.0,0.0,0.0,0.0,0.0,0.0,0.0,0.0,0.0,0.0,0.0,0.0,0.0,0.0,0.0,0.0,0.0,0.0,0.0,0.0,0.0,0.0,0.0,0.0,0.0,0.0,0.0,0.0,0.0,0.0,0.0,0.0,0.0,0.0,0.0,0.0,0.0,0.0,0.0,0.0,0.0,0.0,0.0,0.0,0.0,0.0,0.0,0.0,0.0,0.0,0.0,0.0,0.0,0.0,0.0,0.0,0.0,0.0,0.0,0.0,0.0,0.0,0.0,0.0,0.0,0.0,0.0,0.0,0.0,0.0,0.0,0.0,0.0,0.0,0.0,0.0,0.0,0.0,0.0,0.0,0.0,0.0,-1.2844,-1.4482,-1.7366,-1.7684,-1.7745,-1.7995,-1.6801,-1.556,-1.4462,-1.2527,0.0,0.0,0.0,0.0,0.0,0.0,0.0,0.0,0.0,0.0,0.0,0.0,0.0,0.0,0.0,0.0,0.0,0.0,0.0,0.0,0.0,0.0,0.0,0.0,0.0,0.0,0.0,0.0,0.0,0.0,0.0,0.0,0.0,0.0,0.0,0.0,0.0,0.0,0.0,0.0,0.0,0.0,0.0,0.0,0.0,0.0,0.0,0.0,0.0,0.0,0.0,0.0,0.0,0.0,0.0,0.0,0.0,0.0,0.0,0.0,0.0,0.0,0.0,0.0,0.0,0.0,0.0,0.0,0.0,0.0,0.0,0.0,0.0,0.0,0.0,0.0,0.0,0.0,0.0,0.0,0.0,0.0,0.0,0.0,0.0,0.0,0.0,0.0,0.0,0.0,0.0,0.0,0.0,0.0,0.0,0.0,0.0,0.0,0.0,0.0,0.0,0.0,-1.4439,-1.552,-1.7606,-1.7497,-1.7459,-1.7802,-1.6393,-1.517,-1.4451,-1.1806,0.0,0.0,0.0,0.0,0.0,0.0,0.0,0.0,0.0,0.0,0.0,0.0,0.0,0.0,0.0,0.0,0.0,0.0,0.0,0.0,0.0,0.0,0.0,0.0,0.0,0.0,0.0,0.0,0.0,0.0,0.0,0.0,0.0,0.0,0.0,0.0,0.0,0.0,0.0,0.0,0.0,0.0,0.0,0.0,0.0,0.0,0.0,0.0,0.0,0.0,0.0,0.0,0.0,0.0,0.0,0.0,0.0,0.0,0.0,0.0,0.0,0.0,0.0,0.0,0.0,0.0,0.0,0.0,0.0,0.0,0.0,0.0,0.0,0.0,0.0,0.0,0.0,0.0,0.0,0.0,0.0,0.0,0.0,0.0,0.0,0.0,0.0,0.0,0.0,0.0,0.0,0.0,0.0,0.0,0.0,0.0,0.0,0.0,0.0,0.0,0.0,0.0,-1.459,-1.6116,-1.724,-1.7328,-1.7317,-1.735,-1.56,-1.4473,-1.4407,-1.0856,0.0,0.0,0.0,0.0,0.0,0.0,0.0,0.0,0.0,0.0,0.0,0.0,0.0,0.0,0.0,0.0,0.0,0.0,0.0,0.0,0.0,0.0,0.0,0.0,0.0,0.0,0.0,0.0,0.0,0.0,0.0,0.0,0.0,0.0,0.0,0.0,0.0,0.0,0.0,0.0,0.0,0.0,0.0,0.0,0.0,0.0,0.0,0.0,0.0,0.0,0.0,0.0,0.0,0.0,0.0,0.0,0.0,0.0,0.0,0.0,0.0,0.0,0.0,0.0,0.0,0.0,0.0,0.0,0.0,0.0,0.0,0.0,0.0,0.0,0.0,0.0,0.0,0.0,0.0,0.0,0.0,0.0,0.0,0.0,0.0,0.0,0.0,0.0,0.0,0.0,0.0,0.0,0.0,0.0,0.0,0.0,0.0,0.0,0.0,0.0,0.0,0.0,-1.41,-1.5531,0.0,-1.7306,-1.7306,-1.7306,-1.6055,-1.4908,-1.4035,0.0,0.0,0.0,0.0,0.0,0.0,0.0,0.0,0.0,0.0,0.0,0.0,0.0,0.0,0.0,0.0,0.0,0.0,0.0,0.0,0.0,0.0,0.0,0.0,0.0,0.0,0.0,0.0,0.0,0.0,0.0,0.0,0.0,0.0,0.0,0.0,0.0,0.0,0.0,0.0,0.0,0.0,0.0,0.0,0.0,0.0,0.0,0.0,0.0,0.0,0.0,0.0,0.0,0.0,0.0,0.0,0.0,0.0,0.0,0.0,0.0,0.0,0.0,0.0,0.0,0.0,0.0,0.0,0.0,0.0,0.0,0.0,0.0,0.0,0.0,0.0,0.0,0.0,0.0,0.0,0.0,0.0,0.0,0.0,0.0,0.0,0.0,0.0,0.0,0.0,0.0,0.0,0.0,0.0,0.0,0.0,0.0,0.0,0.0,0.0,0.0,0.0,-1.2563,-1.4034,-1.549,0.0,-1.7306,-1.724,-1.7049,-1.6011,-1.4797,-1.3532,0.0,0.0,0.0,0.0,0.0,0.0,0.0,0.0,0.0,0.0,0.0,0.0,0.0,0.0,0.0,0.0,0.0,0.0,0.0,0.0,0.0,0.0,0.0,0.0,0.0,0.0,0.0,0.0,0.0,0.0,0.0,0.0,0.0,0.0,0.0,0.0,0.0,0.0,0.0,0.0,0.0,0.0,0.0,0.0,0.0,0.0,0.0,0.0,0.0,0.0,0.0,0.0,0.0,0.0,0.0,0.0,0.0,0.0,0.0,0.0,0.0,0.0,0.0,0.0,0.0,0.0,0.0,0.0,0.0,0.0,0.0,0.0,0.0,0.0,0.0,0.0,0.0,0.0,0.0,0.0,0.0,0.0,0.0,0.0,0.0,0.0,0.0,0.0,0.0,0.0,0.0,0.0,0.0,0.0,0.0,0.0,0.0,0.0,0.0,0.0,0.0,0.0,-1.267,-1.4611,-1.6182,-1.7197,-1.7306,-1.7071,-1.6557,-1.5214,-1.3969,0.0,0.0,0.0,0.0,0.0,0.0,0.0,0.0,0.0,0.0,0.0,0.0,0.0,0.0,0.0,0.0,0.0,0.0,0.0,0.0,0.0,0.0,0.0,0.0,0.0,0.0,0.0,0.0,0.0,0.0,0.0,0.0,0.0,0.0,0.0,0.0,0.0,0.0,0.0,0.0,0.0,0.0,0.0,0.0,0.0,0.0,0.0,0.0,0.0,0.0,0.0,0.0,0.0,0.0,0.0,0.0,0.0,0.0,0.0,0.0,0.0,0.0,0.0,0.0,0.0,0.0,0.0,0.0,0.0,0.0,0.0,0.0,0.0,0.0,0.0,0.0,0.0,0.0,0.0,0.0,0.0,0.0,0.0,0.0,0.0,0.0,0.0,0.0,0.0,0.0,0.0,0.0,0.0,0.0,0.0,0.0,0.0,0.0,0.0,0.0,0.0,0.0,0.0,-1.267,-1.4611,-1.6182,-1.7197,-1.7306,-1.7071,-1.6557,-1.5811,-1.4524,-1.2529,0.0,0.0,0.0,0.0,0.0,0.0,0.0,0.0,0.0,0.0,0.0,0.0,0.0,0.0,0.0,0.0,0.0,0.0,0.0,0.0,0.0,0.0,0.0,0.0,0.0,0.0,0.0,0.0,0.0,0.0,0.0,0.0,0.0,0.0,0.0,0.0,0.0,0.0,0.0,0.0,0.0,0.0,0.0,0.0,0.0,0.0,0.0,0.0,0.0,0.0,0.0,0.0,0.0,0.0,0.0,0.0,0.0,0.0,0.0,0.0,0.0,0.0,0.0,0.0,0.0,0.0,0.0,0.0,0.0,0.0,0.0,0.0,0.0,0.0,0.0,0.0,0.0,0.0,0.0,0.0,0.0,0.0,0.0,0.0,0.0,0.0,0.0,0.0,0.0,0.0,0.0,0.0,0.0,0.0,0.0,0.0,0.0,0.0,0.0,0.0,0.0,0.0,-1.267,-1.4611,-1.6182,-1.7197,-1.7306,-1.6994,-1.628,-1.5964,-1.4775,-1.2363,0.0,0.0,0.0,0.0,0.0,0.0,0.0,0.0,0.0,0.0,0.0,0.0,0.0,0.0,0.0,0.0,0.0,0.0,0.0,0.0,0.0,0.0,0.0,0.0,0.0,0.0,0.0,0.0,0.0,0.0,0.0,0.0,0.0,0.0,0.0,0.0,0.0,0.0,0.0,0.0,0.0,0.0,0.0,0.0,0.0,0.0,0.0,0.0,0.0,0.0,0.0,0.0,0.0,0.0,0.0,0.0,0.0,0.0,0.0,0.0,0.0,0.0,0.0,0.0,0.0,0.0,0.0,0.0,0.0,0.0,0.0,0.0,0.0,0.0,0.0,0.0,0.0,0.0,0.0,0.0,0.0,0.0,0.0,0.0,0.0,0.0,0.0,0.0,0.0,0.0,0.0,0.0,0.0,0.0,0.0,0.0,0.0,0.0,0.0,0.0,0.0,0.0,-1.2736,-1.4644,-1.6182,-1.7197,-1.7306,-1.6885,-1.5898,-1.5811,-1.4786,-1.2409,0.0,0.0,0.0,0.0,0.0,0.0,0.0,0.0,0.0,0.0,0.0,0.0,0.0,0.0,0.0,0.0,0.0,0.0,0.0,0.0,0.0,0.0,0.0,0.0,0.0,0.0,0.0,0.0,0.0,0.0,0.0,0.0,0.0,0.0,0.0,0.0,0.0,0.0,0.0,0.0,0.0,0.0,0.0,0.0,0.0,0.0,0.0,0.0,0.0,0.0,0.0,0.0,0.0,0.0,0.0,0.0,0.0,0.0,0.0,0.0,-1.3497,0.0,0.0,0.0,0.0,0.0,0.0,0.0,0.0,0.0,0.0,0.0,0.0,0.0,0.0,0.0,0.0,0.0,0.0,0.0,0.0,0.0,0.0,0.0,0.0,0.0,0.0,0.0,0.0,0.0,0.0,0.0,0.0,0.0,0.0,0.0,0.0,0.0,0.0,0.0,0.0,0.0,-1.3237,-1.4862,-1.6182,-1.7197,-1.7306,-1.6885,-1.5898,-1.5811,-1.4939,-1.2889,-1.1806,0.0,0.0,0.0,0.0,0.0,0.0,0.0,0.0,0.0,0.0,0.0,0.0,0.0,0.0,0.0,0.0,0.0,0.0,0.0,0.0,0.0,0.0,0.0,0.0,0.0,0.0,0.0,0.0,0.0,0.0,0.0,0.0,0.0,0.0,0.0,0.0,0.0,0.0,0.0,0.0,0.0,0.0,0.0,0.0,0.0,0.0,0.0,0.0,0.0,0.0,0.0,0.0,0.0,0.0,0.0,0.0,0.0,0.0,0.0,0.0,-1.4788,0.0,0.0,0.0,0.0,0.0,0.0,0.0,0.0,0.0,0.0,0.0,0.0,0.0,0.0,0.0,0.0,0.0,0.0,0.0,0.0,0.0,0.0,0.0,0.0,0.0,0.0,0.0,0.0,0.0,0.0,0.0,0.0,0.0,0.0,0.0,0.0,0.0,0.0,0.0,0.0,-1.374,-1.5058,-1.6182,-1.7197,-1.7306,-1.6885,-1.5898,-1.5811,-1.508,-1.339,-1.2481,0.0,0.0,0.0,0.0,0.0,0.0,0.0,0.0,0.0,0.0,0.0,0.0,0.0,0.0,0.0,0.0,0.0,0.0,0.0,0.0,0.0,0.0,0.0,0.0,0.0,0.0,0.0,0.0,0.0,0.0,0.0,0.0,0.0,0.0,0.0,0.0,0.0,0.0,0.0,0.0,0.0,0.0,0.0,0.0,0.0,0.0,0.0,0.0,0.0,0.0,0.0,0.0,0.0,-1.9003,-1.957,-2.0484,-2.0357,-2.0545,-2.0894,-1.9378,-1.8257,-1.744,0.0,0.0,0.0,0.0,0.0,0.0,0.0,0.0,0.0,0.0,0.0,0.0,0.0,0.0,0.0,0.0,0.0,0.0,0.0,0.0,0.0,0.0,0.0,0.0,0.0,-1.6232,-1.5614,0.0,0.0,0.0,0.0,0.0,0.0,0.0,0.0,0.0,0.0,0.0,0.0,-1.4243,-1.5331,-1.6269,-1.7208,-1.7306,-1.6918,-1.5996,-1.5854,-1.5266,-1.4023,-1.3216,-1.2486,0.0,0.0,0.0,0.0,0.0,0.0,0.0,0.0,0.0,0.0,0.0,0.0,0.0,0.0,0.0,0.0,0.0,0.0,0.0,0.0,0.0,0.0,0.0,0.0,0.0,0.0,0.0,0.0,0.0,0.0,0.0,0.0,-0.9922,-1.1052,0.0,0.0,0.0,0.0,0.0,0.0,0.0,0.0,0.0,0.0,0.0,0.0,0.0,-1.8064,-1.9068,-2.0175,-2.0809,-2.1009,-2.2045,-2.2344,-2.2015,-2.2522,-2.2795,-2.2835,-2.2586,0.0,-1.9252,-1.8174,0.0,0.0,0.0,0.0,0.0,0.0,0.0,0.0,0.0,0.0,0.0,0.0,0.0,0.0,0.0,0.0,0.0,0.0,0.0,0.0,0.0,0.0,-1.8456,-1.8528,-1.8339,-1.7874,0.0,-1.4564,-1.2591,-1.1948,-1.1162,0.0,0.0,0.0,0.0,0.0,0.0,0.0,-1.481,-1.5836,-1.6645,-1.724,-1.7306,-1.7049,-1.6454,-1.6029,-1.5549,-1.4952,-1.4066,-1.339,-1.2998,-1.1427,0.0,0.0,0.0,0.0,0.0,0.0,0.0,0.0,0.0,0.0,0.0,0.0,0.0,0.0,0.0,0.0,0.0,0.0,0.0,0.0,0.0,0.0,0.0,0.0,0.0,0.0,0.0,0.0,0.0,-0.9821,-1.1228,-1.1912,-1.2313,-1.2361,0.0,0.0,0.0,0.0,0.0,0.0,0.0,0.0,0.0,-1.8065,-1.9631,-2.0702,-2.1165,-2.1995,-2.2578,-2.2917,-2.3445,-2.392,-2.4327,-2.4598,-2.4734,-2.4747,-2.5072,-2.4055,-2.2063,-2.0867,-1.9659,-1.8499,0.0,0.0,0.0,0.0,-1.7271,-1.7828,-1.8547,-1.875,0.0,-1.7936,0.0,0.0,0.0,0.0,0.0,0.0,0.0,0.0,0.0,0.0,0.0,-1.9829,-1.9486,-1.9021,-1.8706,-1.7277,-1.5612,0.0,-1.3499,-1.2888,-1.185,0.0,0.0,0.0,0.0,0.0,-1.5658,-1.6236,-1.671,-1.7251,-1.7306,-1.7071,-1.6557,-1.6073,-1.5604,-1.5137,-1.446,-1.3941,-1.3552,-1.2405,-1.1215,0.0,0.0,0.0,0.0,0.0,0.0,0.0,0.0,0.0,0.0,0.0,0.0,0.0,0.0,0.0,0.0,0.0,0.0,0.0,0.0,0.0,0.0,0.0,0.0,0.0,0.0,0.0,0.0,-1.1119,-1.2567,-1.3362,-1.4124,-1.444,0.0,0.0,0.0,0.0,0.0,0.0,-1.685,-1.8633,-1.9913,-2.0559,-2.2156,-2.3065,-2.3228,-2.3811,-2.4353,-2.4787,-2.4787,-2.5248,-2.6131,-2.6131,-2.6131,-2.6158,-2.6619,-2.6034,-2.4679,-2.331,-2.2036,-2.0911,-2.0342,-1.9863,-1.9519,-1.9971,-2.0229,-2.0555,-2.1857,-2.202,-2.1507,-2.0826,0.0,-1.9451,-1.8099,0.0,0.0,0.0,0.0,-1.9108,-2.053,-2.0569,-2.0334,-2.0887,-2.057,-2.0084,-1.9856,-1.9322,-1.8248,0.0,-1.569,-1.52,-1.4012,0.0,0.0,0.0,0.0,-1.493,-1.6312,-1.6634,-1.6852,-1.7262,-1.7306,-1.7153,-1.6743,-1.6149,-1.5658,-1.5287,-1.4627,-1.4116,-1.3821,-1.3033,-1.2098,-1.0977,0.0,0.0,0.0,0.0,0.0,0.0,0.0,0.0,0.0,0.0,0.0,0.0,0.0,0.0,0.0,0.0,0.0,0.0,0.0,0.0,0.0,0.0,0.0,0.0,0.0,0.0,0.0,0.0,0.0,-1.6308,-1.617,0.0,0.0,0.0,0.0,-1.6481,-1.832,-1.9398,-1.9337,-2.1093,-2.2414,-2.3012,-2.4204,-2.5141,-2.5697,-2.6335,-2.663,-2.6657,-2.6657,-2.6684,-2.6738,-2.6738,-2.6738,-2.6752,-2.6779,-2.6738,-2.6522,-2.4733,-2.3296,-2.2156,-2.1548,-2.129,-2.1263,-2.1304,-2.1694,-2.2183,-2.2278,-2.2278,-2.2346,-2.2863,-2.2619,-2.2115,-2.202,-2.1602,0.0,0.0,-2.1212,-2.102,-2.1822,-2.168,-2.1452,-2.1993,-2.1842,-2.1366,-2.0527,-2.0075,-1.9435,0.0,-1.7352,-1.6781,-1.6376,0.0,-1.5647,-1.5691,-1.6073,-1.6378,-1.6476,-1.694,-1.7273,-1.7306,-1.7306,-1.7295,-1.7273,-1.6345,-1.58,-1.5778,-1.4545,-1.3821,-1.3797,-1.3084,-1.229,-1.139,-1.0236,0.0,0.0,0.0,0.0,0.0,0.0,0.0,0.0,0.0,0.0,0.0,0.0,0.0,0.0,0.0,0.0,0.0,0.0,0.0,0.0,0.0,0.0,0.0,0.0,0.0,0.0,0.0,0.0,-1.7209,-1.8225,0.0,-1.9012,-1.9266,-1.9476,-1.9647,-2.0728,-2.1521,-2.1864,-2.3256,-2.4313,-2.4924,-2.5738,-2.6251,-2.6484,-2.6684,-2.6793,-2.6793,-2.6793,-2.6996,-2.7393,-2.7393,-2.7393,-2.742,-2.78,-2.7528,-2.6779,-2.6508,-2.5941,-2.5113,-2.4096,-2.373,-2.3675,-2.3269,-2.3269,-2.3499,-2.3906,-2.3797,-2.3418,-2.3269,-2.3066,-2.2876,-2.2876,-2.2727,-2.2583,-2.2737,-2.2459,-2.2181,-2.2518,-2.2262,-2.1957,-2.2149,-2.1956,-2.1592,-2.1311,-2.0965,-2.0529,-1.9805,-1.8978,-1.8208,-1.7586,-1.7263,-1.7013,-1.6792,-1.6623,-1.6607,-1.6961,-1.7197,-1.7306,-1.7306,-1.7306,-1.7306,-1.7306,-1.6133,-1.5418,-1.5418,-1.4398,-1.3583,-1.3104,-1.3045,-1.2657,-1.186,-1.0936,-0.9805,0.0,0.0,0.0,0.0,0.0,0.0,0.0,0.0,0.0,0.0,0.0,0.0,0.0,0.0,0.0,0.0,0.0,0.0,0.0,0.0,0.0,0.0,0.0,0.0,0.0,0.0,-1.7408,-1.8494,-1.9863,-2.0765,-2.0909,-2.1334,-2.1801,-2.2206,-2.2837,-2.3485,-2.4069,-2.5044,-2.5887,-2.6484,-2.6904,-2.7186,-2.742,-2.742,-2.742,-2.742,-2.742,-2.7623,-2.8003,-2.8003,-2.8003,-2.803,-2.8424,-2.8153,-2.7447,-2.7841,-2.7773,-2.7298,-2.609,-2.5615,-2.5575,-2.5153,-2.5004,-2.5058,-2.548,-2.5343,-2.495,-2.4543,-2.4286,-2.4109,-2.4109,-2.396,-2.3838,-2.3899,-2.3485,-2.3029,-2.3114,-2.2665,-2.2197,-2.2197,-2.2018,-2.1851,-2.1714,-2.1537,-2.1253,-2.0871,-2.0079,-1.9234,-1.8564,-1.8356,-1.8148,-1.7805,-1.7661,-1.7573,-1.7525,-1.7632,-1.7594,-1.7328,-1.7306,-1.7306,-1.7306,-1.6133,-1.5341,-1.52,-1.4191,-1.3334,-1.2725,-1.2779,-1.2598,-1.2101,-1.1186,-1.0238,-0.9299,0.0,0.0,0.0,0.0,0.0,0.0,0.0,0.0,0.0,0.0,0.0,0.0,0.0,0.0,0.0,0.0,0.0,0.0,0.0,0.0,0.0,0.0,0.0,-1.6042,-1.7666,-1.9258,-2.0344,-2.1066,-2.1711,-2.2332,-2.24,-2.2916,-2.4082,-2.4747,-2.5317,-2.5914,-2.6524,-2.7091,-2.7718,-2.7732,-2.8017,-2.8587,-2.8587,-2.8587,-2.8587,-2.8587,-2.8587,-2.8587,-2.8587,-2.8587,-2.8587,-2.8587,-2.8587,-2.8587,-2.8587,-2.8587,-2.8478,-2.7311,-2.682,-2.682,-2.6806,-2.6793,-2.6793,-2.6793,-2.6793,-2.6793,-2.6793,-2.6416,-2.5914,-2.5914,-2.552,-2.5059,-2.5031,-2.4374,-2.3658,-2.3603,-2.2909,-2.2209,-2.2197,-2.2197,-2.2123,-2.1788,-2.1714,-2.1588,-2.1285,-2.0537,-1.9825,-1.9493,-1.9354,-1.9153,-1.88,-1.9287,0.0,-1.8181,-1.8307,-1.8203,-1.7417,-1.7306,-1.7306,-1.7306,-1.6367,-1.5609,-1.5226,-1.3934,-1.306,-1.27,-1.2332,-1.2101,-1.2101,-1.0925,-1.0125,-0.9739,0.0,0.0,0.0,0.0,0.0,0.0,0.0,0.0,0.0,0.0,0.0,0.0,0.0,0.0,0.0,0.0,0.0,0.0,0.0,0.0,0.0,0.0,-1.9141,-1.8735,-1.984,-2.0952,-2.1686,-2.2713,-2.3581,-2.4204,-2.4652,-2.5236,-2.5993,-2.6196,-2.6579,-2.7176,-2.7366,-2.7732,-2.8329,-2.8343,-2.8424,-2.8587,-2.8587,-2.8587,-2.8587,-2.8587,-2.8587,-2.8587,-2.8587,-2.8587,-2.8587,-2.8587,-2.8587,-2.8587,-2.8587,-2.8587,-2.8519,-2.7759,-2.7461,-2.742,-2.6955,-2.6793,-2.6793,-2.6793,-2.6793,-2.6793,-2.6793,-2.6684,-2.6535,-2.6535,-2.6427,-2.6232,-2.5888,-2.5328,-2.4668,-2.3921,-2.3274,-2.2666,-2.2282,-2.2197,-2.2154,-2.2092,-2.1851,-2.1683,-2.16,-2.1169,-2.0825,-2.073,-2.0557,-2.0315,-1.9988,-1.9801,0.0,-1.8737,-1.8726,-1.8476,-1.7684,-1.7601,-1.7518,-1.7306,-1.6106,-1.5315,-1.52,-1.3934,-1.306,-1.27,-1.2603,-1.2406,-1.2101,-1.1191,-1.0689,0.0,0.0,0.0,0.0,0.0,0.0,0.0,0.0,0.0,0.0,0.0,0.0,0.0,0.0,0.0,0.0,0.0,0.0,0.0,0.0,0.0,0.0,-1.9447,-2.1033,-2.1467,-2.2104,-2.2646,-2.3024,-2.4137,-2.4991,-2.5344,-2.5928,-2.6538,-2.7118,-2.7172,-2.7447,-2.8044,-2.8085,-2.8234,-2.8587,-2.8587,-2.8587,-2.8587,-2.8587,-2.8587,-2.8587,-2.8587,-2.8587,-2.8587,-2.8587,-2.8587,0.0,-2.8587,-2.8587,-2.8587,-2.8587,-2.8587,0.0,0.0,0.0,0.0,0.0,-2.7556,-2.7556,-2.7556,-2.7556,-2.7556,-2.7556,-2.7393,-2.7172,-2.7172,-2.6996,-2.6732,-2.6474,-2.6029,-2.5451,-2.4646,-2.389,-2.3213,-2.2657,-2.2354,-2.2197,-2.2197,-2.2061,-2.1913,-2.1913,-2.1769,0.0,-2.1612,-2.1416,-2.1112,-2.0792,-2.0611,-2.0241,-1.9408,-1.9311,-1.8933,-1.7934,-1.7839,-1.7694,-1.7328,-1.6332,0.0,0.0,0.0,-1.3419,-1.2735,-1.2529,0.0,0.0,0.0,0.0,0.0,0.0,0.0,0.0,-1.0662,-1.0906,0.0,0.0,0.0,0.0,0.0,0.0,0.0,0.0,0.0,0.0,0.0,0.0,0.0,0.0,0.0,0.0,-2.0962,-2.2266,-2.3865,-2.415,-2.4191,-2.4191,-2.5208,-2.5914,-2.5982,-2.6552,-2.7131,-2.7773,-2.78,-2.8044,-2.856,0.0,0.0,0.0,0.0,-2.8722,-2.879,-2.879,-2.879,-2.879,-2.8722,-2.8736,-2.879,-2.8722,-2.8736,-2.879,-2.8722,-2.8695,-2.8695,-2.8627,-2.8587,-2.8587,-2.8587,-2.8587,-2.8587,-2.8587,-2.8587,-2.8587,-2.8587,0.0,0.0,-2.8587,-2.8234,-2.78,-2.78,-2.7447,-2.6996,-2.6996,-2.6614,-2.6075,-2.5537,-2.4633,-2.3739,-2.3131,-2.263,-2.2258,-2.2209,-2.2197,-2.2197,-2.2197,-2.2197,-2.2197,-2.2197,-2.1956,-2.1663,-2.136,-2.1569,-2.1339,-2.02,-2.0081,-1.9557,-1.8243,0.0,0.0,-1.735,-1.6809,-1.6364,-1.6089,-1.5126,-1.4055,-1.2879,-1.2488,-1.2455,-1.2753,-1.2762,-1.2946,-1.3296,-1.3296,-1.3341,-1.3396,-1.1871,-1.1981,0.0,0.0,0.0,0.0,0.0,0.0,0.0,0.0,0.0,0.0,0.0,0.0,0.0,0.0,0.0,-2.1572,-2.2795,-2.3703,-2.4042,-2.4502,-2.4842,-2.4842,-2.5453,-2.609,-2.6592,-2.7176,-2.7786,-2.837,-2.8424,-2.8478,-2.8587,-2.8587,0.0,-2.9325,-2.9339,-2.955,-3.0052,-3.0052,-3.0052,-3.0052,0.0,0.0,-3.0038,-2.9536,-2.9577,-3.0025,-2.9523,-2.9339,-2.9298,-2.879,-2.8587,-2.8587,-2.8587,-2.8587,-2.8587,-2.8587,-2.8587,-2.8587,-2.8587,-2.8587,-2.8587,-2.8587,-2.8519,-2.8424,-2.8424,-2.8343,0.0,-2.8248,-2.7544,-2.6703,-2.6154,-2.5195,-2.4135,-2.3216,-2.2939,-2.2746,-2.2282,-2.2197,-2.2197,-2.2197,-2.2197,-2.2197,-2.2197,-2.2154,-2.2092,-2.203,-2.2061,-2.187,-2.1193,-2.1122,-2.0511,-1.8897,-1.8726,-1.8334,-1.7378,-1.6809,-1.646,-1.6417,-1.5552,-1.4671,-1.3775,-1.3669,-1.3486,-1.3194,-1.3176,-1.3213,-1.3296,-1.3296,-1.3635,-1.4249,-1.3277,-1.3351,0.0,0.0,0.0,0.0,0.0,0.0,0.0,0.0,0.0,0.0,0.0,-1.8262,-1.9442,0.0,-2.1792,-2.2984,-2.3703,-2.4299,-2.4924,-2.5263,-2.5453,-2.5453,-2.5982,-2.6592,-2.7172,-2.78,-2.8275,-2.8573,-2.8872,-2.9034,-2.9034,-2.9333,-2.9645,-2.993,-2.9944,-3.0093,-3.0405,-3.0405,-3.0405,-3.0405,-3.0093,-3.0106,-3.0405,-3.0079,-3.0106,-3.0391,-3.0079,-2.9944,-2.9889,-2.9279,-2.9034,-2.9007,-2.8709,-2.8587,-2.8587,-2.8587,-2.8587,-2.8587,-2.8587,-2.8587,-2.8587,-2.8587,-2.8587,-2.8587,-2.8587,-2.8587,-2.8587,-2.8587,-2.802,-2.7278,-2.6727,-2.5766,-2.4771,-2.3935,-2.3364,-2.2939,-2.2674,-2.2378,-2.2197,-2.2197,-2.2197,-2.2197,-2.2197,-2.2197,-2.2197,-2.2197,-2.2061,-2.1861,-2.1599,-2.141,-2.086,-1.9771,-1.9483,-1.8983,-1.8007,-1.7291,-1.6787,-1.6535,-1.5924,-1.5304,-1.4619,-1.4194,-1.3978,-1.3941,-1.3728,-1.369,-1.3901,-1.4102,-1.4405,-1.4799,-1.4588,-1.4827,0.0,0.0,0.0,0.0,0.0,0.0,0.0,0.0,-1.7293,-1.8513,-1.9619,-2.0654,-2.1575,-2.2226,-2.3051,-2.4231,-2.4435,-2.4842,-2.5914,-2.6063,-2.6063,-2.6063,-2.6619,-2.7159,-2.7664,-2.8248,-2.8587,-2.8587,-2.9176,-2.9515,-2.9515,-3.0066,-3.0459,-3.0581,-3.0581,-3.0635,-3.0758,-3.0758,-3.0758,-3.0758,-3.0635,-3.0649,-3.0758,-3.0635,-3.0649,-3.0744,-3.0635,-3.0513,-3.0364,-2.9876,-2.9624,-2.9461,-2.894,-2.8695,-2.8587,-2.8587,-2.8587,-2.8587,-2.8587,-2.8587,-2.8587,-2.8587,-2.8587,-2.8587,-2.8587,-2.8587,-2.8587,-2.8587,-2.8151,-2.7543,-2.7108,-2.6202,-2.5231,-2.4645,-2.3881,-2.3232,-2.3027,-2.2654,-2.2318,-2.2209,-2.2197,-2.2197,-2.2197,-2.2197,-2.2197,-2.2197,-2.1956,-2.1788,-2.1788,-2.1569,-2.1151,-2.0546,-2.0193,-1.9553,-1.85,-1.7809,-1.7202,-1.6699,-1.6407,-1.6019,-1.5484,-1.4844,-1.4578,-1.4723,-1.4336,-1.432,-1.4634,-1.4946,-1.5184,-1.534,-1.5661,-1.5991,-1.3934,-1.3947,-1.4517,-1.6729,-1.6593,-1.6859,0.0,0.0,-2.0355,-2.1572,-2.2334,-2.2863,-2.2984,-2.3486,-2.4299,-2.5493,-2.5697,-2.5928,-2.6589,-2.6684,-2.6684,-2.6684,-2.7213,-2.7637,-2.7691,-2.8248,-2.8587,-2.8587,-2.9176,-2.9515,-2.9515,-3.0066,-3.0649,-3.1178,-3.1192,-3.145,-3.2001,-3.2015,-3.2015,-3.2001,-3.145,-3.1477,-3.2001,-3.1436,-3.1477,-3.1951,-3.1422,-3.0907,-3.0405,-3.0337,-2.9971,-2.9502,-2.9434,-2.9081,-2.8587,-2.8587,-2.8587,-2.8587,-2.8587,-2.8587,-2.8587,-2.8587,-2.8587,-2.8587,-2.8587,-2.8587,-2.8587,-2.8587,-2.7888,-2.7074,-2.7007,-2.6158,-2.5165,-2.4626,-2.44,-2.4097,-2.3183,-2.2963,-2.2782,-2.2282,-2.2197,-2.2197,-2.2197,-2.2197,-2.2197,-2.2197,-2.2154,-2.2154,-2.2154,-2.2092,-2.1766,-2.0934,-2.053,-1.9735,-1.8192,-1.7984,-1.7715,-1.7251,-1.7174,-1.6935,-1.6451,-1.6367,-1.5924,-1.5158,-1.5071,-1.5054,-1.5038,-1.5084,-1.5469,-1.6184,-1.6196,-1.6276,-1.5779,-1.6381,0.0,0.0,-1.9076,-1.9718,-2.183,-2.1925,-2.1887,-2.3093,-2.354,-2.3825,-2.4177,-2.4435,-2.491,0.0,-2.5887,-2.6226,-2.7203,-2.7009,-2.6915,-2.7298,-2.7556,-2.7705,-2.7705,-2.8248,-2.8587,-2.8587,-2.9482,-3.0011,-3.0011,-3.092,-3.1544,-3.1802,-3.1802,-3.1924,-3.2218,-3.2218,-3.2218,-3.2218,-3.1924,-3.1938,-3.2205,-3.1924,-3.1938,-3.2205,-3.1911,-3.1667,-3.1409,-3.107,-3.0771,-3.0459,-2.9787,-2.9366,-2.9094,-2.8722,-2.8587,-2.8587,-2.8587,-2.8587,-2.8587,-2.8587,-2.8587,-2.8587,-2.8587,-2.8587,-2.8587,-2.8587,-2.8052,-2.7477,-2.7477,-2.6654,-2.5777,-2.5556,-2.4988,-2.4326,-2.3637,-2.3228,-2.2855,-2.2294,-2.2197,-2.2197,-2.2197,-2.2197,-2.2197,-2.2197,-2.2197,-2.2197,-2.2197,-2.2197,-2.1978,-2.1419,-2.0796,-2.0053,-1.9174,-1.8434,-1.7923,-1.7715,-1.7459,-1.7211,-1.7015,-1.6751,-1.6409,-1.597,-1.5671,-1.5529,-1.5441,-1.5689,-1.5982,-1.6321,-1.6551,-1.6661,-1.7326,0.0,0.0,-2.0188,-2.1043,-2.1857,-2.2631,-2.2807,-2.3105,-2.4123,-2.4218,-2.4272,-2.4896,-2.4869,0.0,-2.5995,-2.6145,-2.6565,-2.7786,-2.7447,-2.7199,-2.7664,-2.7705,-2.7705,-2.7705,-2.8248,-2.8587,-2.8587,-2.9726,-3.0405,-3.0405,-3.1531,-3.2218,-3.2218,-3.2218,-3.2218,-3.2218,-3.2218,-3.2218,-3.2218,-3.2218,-3.2218,-3.2218,-3.2218,-3.2218,-3.2218,-3.2218,-3.2218,-3.2191,-3.1721,-3.1436,-3.1205,-3.0358,-2.9801,-2.9461,-2.8994,-2.8736,-2.8587,-2.8587,-2.8587,-2.8587,-2.8587,-2.8587,-2.8587,-2.8587,-2.8587,-2.8587,-2.8587,-2.8216,-2.7809,-2.7809,-2.7007,-2.6198,-2.6198,-2.544,-2.4554,-2.3938,-2.3505,-2.3035,-2.233,-2.2197,-2.2197,-2.2197,-2.2197,-2.2197,-2.2197,-2.2197,-2.2197,-2.2197,-2.2197,-2.2061,-2.1757,-2.1156,-2.0527,-1.9969,-1.9047,-1.8415,-1.8206,-1.7857,-1.77,-1.77,-1.7363,-1.7116,-1.691,-1.6424,-1.6143,-1.6081,-1.6232,-1.6376,-1.6453,-1.6771,-1.6908,0.0,0.0,-2.008,-2.1789,-2.2251,-2.259,-2.3771,-2.4042,-2.4218,-2.4842,-2.4502,-2.4272,-2.4896,-2.4502,-2.4706,-2.6481,-2.6766,-2.7172,-2.8397,-2.8058,-2.7691,-2.7705,-2.7705,-2.7705,0.0,-2.8248,-2.8587,-2.8587,-2.9726,-3.0405,-3.0405,-3.1531,-3.2218,-3.2218,-3.2218,-3.2218,-3.2218,-3.2218,-3.2218,-3.2218,-3.2218,-3.2218,-3.2218,-3.2218,-3.2218,-3.2218,-3.2218,-3.2218,-3.2218,-3.2191,-3.1816,-3.13,-3.126,-3.0513,-2.9515,-2.9488,-2.9122,-2.8587,-2.8587,-2.8587,-2.8587,-2.8587,-2.8587,-2.8587,-2.8587,-2.8587,-2.8587,-2.8587,-2.8216,-2.7809,-2.7809,-2.7007,-2.6198,-2.6198,-2.5721,-2.5011,-2.4023,-2.3794,-2.3469,-2.2402,-2.2197,-2.2197,-2.2197,-2.2197,-2.2197,-2.2197,-2.2197,-2.2197,-2.2197,-2.2197,-2.2061,-2.1757,-2.1671,-2.1167,-1.9992,-1.9862,-1.9527,-1.8728,-1.8654,-1.8643,-1.8643,-1.8643,-1.8432,-1.7975,-1.742,-1.7108,-1.7071,-1.6537,-1.6514,-1.689,-1.6899,-1.6908,0.0,0.0,-2.1667,-2.2646,-2.3188,-2.3703,-2.4502,-2.4706,-2.4652,-2.4435,-2.392,-2.3567,-2.3771,-2.3649,-2.4096,-2.5914,-2.6552,-2.7199,-2.8424,-2.8085,-2.7705,-2.7705,-2.7705,0.0,0.0,0.0,0.0,-2.8587,-2.9726,-3.0405,-3.0405,-3.1531,-3.2218,-3.2218,-3.2218,-3.2218,-3.2218,-3.2218,-3.2218,-3.2218,-3.2218,-3.2218,-3.2218,-3.2218,-3.2218,-3.2218,-3.2218,-3.2218,-3.2218,-3.2218,-3.2096,-3.1843,-3.145,-3.0798,-3.0052,-2.9665,-2.9135,-2.8587,-2.8587,-2.8587,-2.8587,-2.8587,-2.8587,-2.8587,-2.8587,-2.8587,-2.8587,-2.8587,-2.8457,-2.8327,-2.8327,-2.7543,-2.6735,-2.6735,-2.6,-2.5119,-2.4422,-2.4266,-2.4061,-2.3408,-2.2955,-2.2746,-2.2746,-2.2426,-2.2197,-2.2197,-2.2197,-2.2197,-2.2197,-2.2197,-2.2166,-2.2049,-2.1632,-2.1215,-2.0791,-2.0035,-1.9436,-1.9179,-1.8862,-1.8687,-1.8687,-1.8687,-1.8585,-1.8396,-1.8217,-1.8114,-1.8022,-1.7494,-1.7309,-1.7407,-1.7072,-1.7046,0.0,-2.1613,-2.2808,-2.3635,-2.4123,-2.4502,-2.4924,-2.4842,-2.4502,-2.3892,-2.3134,-2.2564,-2.2564,-2.2388,-2.2971,-2.5208,-2.5914,-2.6742,-2.837,-2.8085,-2.7868,-2.8288,-2.8153,-2.8193,0.0,0.0,0.0,-2.8926,-3.0038,-3.073,-3.073,-3.1653,-3.2218,-3.2218,-3.2218,-3.2218,-3.2218,-3.2218,-3.2218,-3.2218,-3.2218,-3.2218,-3.2218,-3.2218,-3.2218,-3.2218,-3.2218,-3.2218,-3.2218,-3.2218,-3.2218,-3.2151,-3.1531,-3.0934,-3.0337,-2.9713,-2.9135,-2.8587,-2.8587,-2.8587,-2.8587,-2.8587,-2.8587,-2.8587,-2.8587,-2.8587,-2.8587,-2.8587,-2.8587,-2.8587,-2.8587,-2.7809,-2.7007,-2.7007,-2.6139,-2.5168,-2.4638,-2.4484,-2.4374,-2.3902,-2.3529,-2.3228,-2.3047,-2.2578,-2.2197,-2.2197,-2.2197,-2.2197,-2.2197,-2.2197,-2.2197,-2.2197,-2.18,-2.1454,-2.1233,-2.0482,-1.9924,-1.9681,-1.9386,-1.9211,-1.9211,-1.9211,-1.9165,-1.9147,-1.8954,-1.883,-1.8767,-1.807,-1.7706,-1.7672,-1.7141,-1.7119,-2.1898,-2.2808,-2.3581,-2.472,-2.5005,-2.4991,-2.4964,-2.4475,-2.3865,-2.3242,-2.2158,-2.1304,0.0,0.0,-2.1467,-2.4394,-2.4978,-2.5887,-2.8261,-2.8125,-2.8234,0.0,0.0,0.0,0.0,0.0,0.0,-2.9651,0.0,-3.13,-3.13,-3.1857,-3.2218,-3.2218,-3.2218,-3.2218,-3.2218,-3.2218,-3.2218,-3.2218,-3.2218,-3.2218,-3.2218,-3.2218,-3.2218,-3.2218,-3.2218,-3.2218,-3.2218,-3.2218,-3.2218,-3.2151,-3.1531,-3.0934,-3.0337,-2.9713,-2.9135,-2.8587,-2.8587,-2.8587,-2.8587,-2.8587,-2.8587,-2.8587,-2.8587,-2.8587,-2.8587,-2.8587,-2.8587,-2.8587,-2.8587,-2.7809,-2.7007,-2.7007,-2.6139,-2.5168,-2.464,-2.452,-2.4422,-2.3974,-2.3854,-2.3661,-2.3107,-2.2582,-2.2258,-2.2197,-2.2209,-2.2221,-2.2197,-2.2197,-2.2197,-2.2197,-2.2185,-2.1906,-2.1285,-2.1221,-2.0903,-2.0183,-2.0151,-2.0151,-2.0118,-2.0118,-2.0118,-2.0118,-1.9616,-1.9342,-1.9342,-1.8307,-1.7774,-1.774,-1.7176,-1.7163,-2.2727,-2.373,-2.4625,-2.4924,-2.5005,-2.4883,-2.4421,-2.3865,-2.3134,-2.2077,-2.0925,-1.9999,-1.9559,0.0,0.0,-2.2726,-2.4489,0.0,-2.8315,-2.8831,0.0,0.0,0.0,-3.0066,-3.0378,-3.0812,0.0,0.0,-3.1124,-3.13,-3.13,-3.1857,-3.2218,-3.2218,-3.2218,-3.2218,-3.2218,-3.2218,-3.2218,-3.2218,-3.2218,-3.2218,-3.2218,-3.2218,-3.2218,-3.2218,-3.2218,-3.2218,-3.2218,-3.2218,-3.2218,-3.2151,-3.1531,-3.0934,-3.0337,-2.9713,-2.9135,-2.8587,-2.8587,-2.8587,-2.8587,-2.8587,-2.8587,-2.8587,-2.8587,-2.8587,-2.8587,-2.8587,-2.8587,-2.8587,-2.8587,-2.7809,-2.7007,-2.7007,-2.6139,-2.5264,-2.5131,-2.5107,-2.5071,-2.4939,-2.4602,-2.4037,-2.3135,-2.3228,-2.3132,-2.2306,-2.2534,-2.263,-2.2246,-2.2197,-2.2197,-2.2197,-2.1987,-2.1757,-2.1588,-2.1348,-2.0999,-2.0518,-2.0743,-2.0775,-2.0474,-2.0485,-2.0485,-2.0485,-2.0096,-1.99,-1.99,-1.921,-1.87,-1.8273,-1.774,-1.7664,-2.3432,-2.4272,-2.5005,-2.5005,-2.4815,-2.4435,-2.3838,-2.3039,-2.1995,-2.0555,-1.9741,0.0,-1.7834,0.0,0.0,0.0,0.0,0.0,-2.7908,-2.894,-2.9713,0.0,-3.0635,0.0,-3.1151,-3.149,-3.168,0.0,-3.168,-3.168,-3.168,-3.2042,-3.2218,-3.2218,-3.2218,-3.2218,-3.2218,-3.2218,-3.2218,-3.2218,-3.2218,-3.2218,-3.2218,-3.2218,-3.2218,-3.2218,0.0,-3.2218,-3.2218,-3.2218,-3.2218,-3.2123,-3.1232,-3.0703,-3.0296,-2.9414,-2.8872,-2.8587,-2.8587,-2.8587,-2.8587,-2.8587,-2.8587,-2.8587,-2.8587,-2.8587,-2.8587,-2.8587,-2.8587,-2.8587,-2.8587,-2.7809,-2.7007,-2.7007,-2.6139,-2.5312,-2.5312,-2.5312,-2.5312,-2.5312,-2.4879,-2.4338,-2.3761,-2.352,-2.3252,-2.263,-2.2594,-2.2534,-2.2234,-2.2197,-2.2197,-2.2197,-2.2018,-2.1851,-2.1714,-2.1537,-2.1253,-2.0903,-2.1094,-2.1094,-2.0871,-2.07,-2.0603,-2.0603,-2.027,-2.0118,-2.0118,-1.9551,-1.9034,-1.8509,-1.7935,-1.7826,-2.4055,-2.4611,-2.5005,-2.5005,-2.4557,-2.392,-2.3242,-2.209,-2.0704,-1.903,0.0,-1.7957,-1.6403,0.0,-1.926,-2.0992,0.0,-2.4841,-2.7366,-2.8736,-2.974,-3.0446,-3.1042,-3.1612,-3.2164,-3.2218,-3.2218,-3.2218,-3.2218,-3.2218,-3.2218,-3.2218,-3.2218,-3.2218,-3.2218,-3.2218,-3.2218,-3.2218,-3.2218,-3.2218,-3.2218,-3.2218,-3.2218,-3.2218,-3.2218,-3.2218,0.0,0.0,-3.2218,-3.2218,-3.2218,-3.2096,-3.0866,-3.0405,-3.0269,-2.9048,-2.8587,-2.8587,-2.8587,-2.8587,-2.8587,-2.8587,-2.8587,-2.8587,-2.8587,-2.8587,-2.8587,-2.8587,-2.8587,-2.8587,-2.8587,-2.7855,-2.7108,-2.7007,-2.6173,-2.5418,-2.5312,-2.5312,-2.5312,-2.5312,-2.4939,-2.4568,-2.4496,-2.3785,-2.3135,-2.3035,-2.2594,-2.227,-2.2197,-2.2197,-2.2197,-2.2197,-2.2197,-2.2092,-2.1788,-2.1788,-2.1632,-2.1285,-2.1316,-2.1316,-2.1253,-2.0924,-2.0732,-2.0667,-2.0324,-2.014,-2.0118,-1.9551,-1.9034,-1.8509,-1.7935,-1.7826,-2.4693,-2.4924,-2.5005,-2.5005,-2.4557,-2.3811,-2.2726,-2.1179,0.0,0.0,0.0,-1.6471,-1.6154,-1.7163,0.0,-2.0369,0.0,0.0,0.0,0.0,-2.9923,0.0,0.0,0.0,0.0,0.0,0.0,0.0,0.0,0.0,-3.2218,-3.2218,-3.2218,-3.2218,-3.2218,-3.2218,-3.2218,-3.2218,-3.2218,-3.2218,-3.2218,-3.2218,-3.2218,-3.2218,-3.2218,-3.2218,-3.2218,0.0,-3.2218,-3.2218,-3.2218,-3.2096,-3.0866,-3.0405,-3.0269,-2.9048,-2.8587,-2.8587,-2.8587,-2.8587,-2.8587,-2.8587,-2.8587,-2.8587,-2.8587,-2.8587,-2.8587,-2.8587,-2.8587,-2.8587,-2.8587,-2.8118,-2.7543,-2.7108,-2.6496,-2.5908,-2.5418,-2.5312,-2.5312,-2.5312,-2.524,-2.5035,-2.4568,-2.4374,-2.3965,-2.3144,-2.2939,-2.269,-2.2246,-2.2197,-2.2197,-2.2197,-2.2197,-2.2185,-2.2123,-2.2123,-2.1956,-2.162,-2.1862,-2.1894,-2.162,-2.1557,-2.1368,-2.1094,-2.0711,-2.0388,-2.0118,-1.9551,-1.9034,-1.8509,-1.7935,-1.7826,-2.4842,-2.5005,-2.5005,-2.5005,-2.4082,-2.2943,-2.2047,0.0,0.0,0.0,0.0,-1.591,-1.5277,0.0,0.0,0.0,0.0,0.0,0.0,0.0,0.0,0.0,0.0,0.0,0.0,0.0,0.0,0.0,0.0,0.0,-3.2218,-3.2218,-3.2218,-3.2218,-3.2218,-3.2218,-3.2218,-3.2218,-3.2218,-3.2218,-3.2218,-3.2218,-3.2218,-3.2218,-3.2218,-3.2218,-3.2218,0.0,-3.2218,-3.2218,-3.2028,-3.1626,-3.0758,-3.0215,-2.9821,-2.8926,-2.8587,-2.8587,-2.8587,-2.8587,-2.8587,-2.8587,-2.8587,-2.8587,-2.8587,-2.8587,-2.8587,-2.8587,-2.8587,-2.8587,-2.8587,-2.8183,-2.7643,-2.7142,-2.6358,-2.5664,-2.5382,-2.5312,-2.5312,-2.5312,-2.5083,-2.4784,-2.4532,-2.4073,-2.3556,-2.3051,-2.2751,-2.2474,-2.2221,-2.2197,-2.2197,-2.2197,-2.2197,-2.2197,-2.2197,-2.2197,-2.2123,-2.1956,-2.2123,-2.2123,-2.1956,-2.1788,-2.162,-2.1474,-2.0892,-2.0506,-2.0356,-1.9639,-1.9034,-1.8509,-1.7935,-1.7826,-2.4652,-2.491,-2.5005,-2.5005,-2.3648,-2.2115,-2.1396,-1.9402,0.0,0.0,0.0,-1.5449,-1.4639,0.0,0.0,0.0,0.0,0.0,0.0,0.0,0.0,0.0,0.0,0.0,0.0,0.0,0.0,0.0,0.0,0.0,-3.2218,-3.2218,-3.2218,-3.2218,-3.2218,-3.2218,-3.2218,-3.2218,-3.2218,-3.2218,-3.2218,-3.2218,-3.2218,-3.2218,-3.2218,-3.2218,-3.2218,0.0,0.0,-3.2083,-3.1721,-3.1219,-3.05,-2.9903,-2.9434,-2.8804,-2.8587,-2.8587,-2.8587,-2.8587,-2.8587,-2.8587,-2.8587,-2.8587,-2.8587,-2.8587,-2.8587,-2.8587,-2.8587,-2.8587,-2.8587,-2.8281,-2.7809,-2.7129,-2.6242,-2.5453,-2.5347,-2.5312,-2.5312,-2.5312,-2.4879,-2.4484,-2.4484,-2.3664,-2.3011,-2.3011,-2.2534,-2.2197,-2.2197,-2.2197,-2.2197,-2.2197,-2.2197,-2.2197,-2.2197,-2.2197,-2.2197,-2.2197,-2.2197,-2.2197,-2.2197,-2.1956,-2.1788,-2.1683,-2.1051,-2.07,-2.0603,-1.9737,-1.9067,-1.8667,-1.8003,-1.7896,-2.4014,-2.4598,-2.5005,-2.5005,-2.3648,-2.202,-2.0908,0.0,0.0,0.0,-1.486,-1.4599,-1.5036,0.0,0.0,0.0,0.0,0.0,0.0,0.0,0.0,0.0,0.0,0.0,0.0,0.0,0.0,0.0,0.0,0.0,0.0,-3.2218,-3.2218,-3.2218,-3.2218,-3.2218,-3.2218,-3.2218,-3.2218,-3.2218,-3.2218,-3.2218,-3.2218,-3.2218,-3.2218,-3.2218,-3.2218,0.0,0.0,-3.1599,-3.1341,-3.1178,-3.0011,-2.9556,-2.9434,-2.8804,-2.8587,-2.8587,-2.8587,-2.8587,-2.8587,-2.8587,-2.8587,-2.8587,-2.8587,-2.8587,-2.8587,-2.8587,-2.8587,-2.8587,-2.8587,-2.8554,-2.8249,-2.7242,-2.6564,-2.5978,-2.5418,-2.5312,-2.5312,-2.5312,-2.4879,-2.4484,-2.4484,-2.3664,-2.3011,-2.3011,-2.2534,-2.2197,-2.2197,-2.2197,-2.2197,-2.2197,-2.2197,-2.2197,-2.2197,-2.2197,-2.2197,-2.2197,-2.2197,-2.2197,-2.2197,-2.2154,-2.2018,-2.1714,-2.1348,-2.0967,-2.0603,-1.9737,-1.9266,-1.9199,-1.8172,-1.8098,-2.373,-2.4272,-2.4448,-2.4448,-2.3093,-2.1464,-2.0311,0.0,-1.6227,-1.5376,-1.4724,-1.4368,-1.4615,-1.4955,-1.5634,0.0,-1.7495,0.0,0.0,0.0,0.0,0.0,0.0,0.0,0.0,0.0,0.0,0.0,0.0,0.0,0.0,-3.2218,-3.2218,-3.2218,-3.2218,-3.2218,-3.2218,-3.2218,-3.2218,-3.2218,-3.2218,-3.2218,-3.2218,-3.2218,-3.2218,-3.2218,-3.2218,0.0,0.0,-3.1395,-3.0866,-3.0161,-2.9706,-2.9298,-2.8912,-2.8682,-2.8587,-2.8587,-2.8587,-2.8587,-2.8587,-2.8587,-2.8587,-2.8587,-2.8587,-2.8587,-2.8587,-2.8587,-2.8587,-2.8587,-2.8587,-2.836,-2.7921,-2.7175,-2.6598,-2.6013,-2.5418,-2.5312,-2.5312,-2.5312,-2.4638,-2.4073,-2.4073,-2.3195,-2.251,-2.251,-2.233,-2.2197,-2.2197,-2.2197,-2.2197,-2.2197,-2.2197,-2.2197,-2.2197,-2.2197,-2.2197,-2.2197,-2.2197,-2.2197,-2.2197,-2.2197,-2.2123,-2.1987,-2.1663,-2.1305,-2.0967,-2.0042,-1.9507,-1.9266,-1.8206,-1.8133,-2.2863,-2.3554,-2.3825,-2.3825,-2.247,-2.083,0.0,0.0,-1.5888,-1.5104,-1.4602,-1.43,-1.43,-1.4656,-1.5199,0.0,-1.6471,-1.7624,-2.0129,0.0,0.0,0.0,0.0,0.0,0.0,0.0,0.0,0.0,0.0,0.0,0.0,-3.2218,-3.2218,-3.2218,-3.2218,-3.2218,-3.2218,-3.2218,-3.2218,-3.2218,-3.2218,-3.2218,-3.2205,-3.2042,-3.1911,-3.1897,0.0,0.0,0.0,-3.0825,-3.029,-2.9488,-2.9312,-2.8953,-2.8587,-2.8587,-2.8587,-2.8587,-2.8587,-2.8587,-2.8587,-2.8587,-2.8587,-2.8587,-2.8587,-2.8587,-2.8587,-2.8587,-2.8587,-2.8587,-2.8587,-2.8327,-2.7908,-2.7377,-2.6837,-2.6289,-2.5699,-2.5418,-2.5264,-2.5107,-2.4362,-2.3758,-2.3601,-2.283,-2.2197,-2.2197,-2.2197,-2.2197,-2.2197,-2.2197,-2.2197,-2.2197,-2.2197,-2.2197,-2.2197,-2.2197,-2.2197,-2.2197,-2.2197,-2.2197,-2.2197,-2.2197,-2.2197,-2.2197,-2.1851,-2.1537,-2.119,-2.041,-1.9846,-1.9507,-1.861,-1.8542,-2.1114,-2.2307,-2.3215,-2.3215,-2.186,-2.0206,0.0,-1.7394,-1.5748,-1.4558,-1.43,-1.43,-1.43,-1.43,-1.4694,-1.5897,-1.61,-1.713,0.0,0.0,0.0,0.0,0.0,0.0,0.0,0.0,0.0,0.0,0.0,0.0,0.0,-3.2218,-3.2218,-3.2218,-3.2218,-3.2218,-3.2218,-3.2218,-3.2218,-3.2218,-3.2218,-3.2218,-3.2191,-3.1572,-3.13,0.0,0.0,0.0,0.0,-2.974,-2.9515,-2.9448,-2.8831,-2.86,-2.8587,-2.8587,-2.8587,-2.8587,-2.8587,-2.8587,-2.8587,-2.8587,-2.8587,-2.8587,-2.8587,-2.8587,-2.8587,-2.8587,-2.8587,-2.8587,-2.8587,-2.8587,-2.8457,-2.7921,-2.7377,-2.6837,-2.6302,-2.5734,-2.5155,-2.4592,-2.4109,-2.3637,-2.3107,-2.2546,-2.2197,-2.2197,-2.2197,-2.2197,-2.2197,-2.2197,-2.2197,-2.2197,-2.2197,-2.2197,-2.2197,-2.2197,-2.2197,-2.2197,-2.2197,-2.2197,-2.2197,-2.2197,-2.2197,-2.2197,-2.1851,-2.1537,-2.119,-2.0796,-2.0421,-2.0074,-1.9551,-1.9452,-1.9423,-2.0202,-2.0718,-2.0283,-1.9754,-1.8934,-1.7312,-1.6512,-1.5748,-1.4544,-1.43,-1.43,-1.43,-1.43,-1.4829,-1.6457,0.0,0.0,0.0,0.0,0.0,0.0,0.0,0.0,0.0,0.0,0.0,0.0,0.0,0.0,0.0,-3.1192,-3.1341,-3.2191,-3.2218,-3.2218,-3.2218,-3.2218,-3.2218,-3.2218,-3.1762,-3.1572,-3.1544,-3.0961,0.0,0.0,0.0,0.0,0.0,-2.9597,-2.9271,-2.8858,-2.8655,-2.8587,-2.8587,-2.8587,-2.8587,-2.8587,-2.8587,-2.8587,-2.8587,-2.8587,-2.8587,-2.8587,-2.8587,-2.8587,-2.8587,-2.8587,-2.8587,-2.8587,-2.8587,-2.8587,-2.8457,-2.7921,-2.7676,-2.731,-2.6393,-2.606,-2.5644,-2.4695,-2.4109,-2.3637,-2.3107,-2.2578,-2.2197,-2.2197,-2.2197,-2.2197,-2.2197,-2.2197,-2.2197,-2.2197,-2.2197,-2.2197,-2.2197,-2.2197,-2.2197,-2.2197,-2.2197,-2.2197,-2.2197,-2.2197,-2.2197,-2.2197,-2.2092,-2.1894,-2.1537,-2.119,-2.0506,-1.9561,-2.0028,-2.0096,0.0,-1.8405,-1.8934,-1.8541,-1.8282,-1.778,-1.6417,-1.5928,-1.5481,-1.4504,-1.43,-1.43,-1.43,-1.43,-1.4816,-1.6403,0.0,0.0,0.0,0.0,0.0,0.0,0.0,0.0,0.0,0.0,0.0,0.0,0.0,0.0,0.0,0.0,-3.0744,-3.149,-3.1504,-3.1504,-3.1504,-3.1504,-3.1504,-3.1504,-3.1137,-3.0961,-3.0934,-3.0337,0.0,0.0,0.0,0.0,0.0,-2.9176,-2.8926,-2.8587,-2.8587,-2.8587,-2.8587,-2.8587,-2.8587,-2.8587,-2.8587,-2.8587,-2.8587,-2.8587,-2.8587,-2.8587,-2.8587,-2.8587,-2.8587,-2.8587,-2.8587,-2.8587,-2.8587,-2.8587,-2.8522,-2.8183,-2.7954,-2.761,-2.6939,-2.6496,-2.5859,-2.4734,-2.4144,-2.3577,-2.2843,-2.2414,-2.2197,-2.2197,-2.2197,-2.2197,-2.2197,-2.2197,-2.2197,-2.2197,-2.2197,-2.2197,-2.2197,-2.2197,-2.2197,-2.2197,-2.2197,-2.2197,-2.2197,-2.2197,-2.2197,-2.2197,-2.2197,-2.203,-2.1683,-2.121,-2.0506,-1.9638,-2.0597,-2.0846,0.0,-1.6661,-1.7576,-1.7535,-1.7169,-1.6647,-1.6046,-1.5535,0.0,-1.4409,-1.43,-1.4327,-1.4409,-1.4395,-1.4789,-1.6073,0.0,0.0,0.0,0.0,0.0,0.0,0.0,0.0,0.0,0.0,0.0,0.0,0.0,0.0,0.0,0.0,-3.0283,-3.0283,-3.0283,-3.0323,-3.0405,-3.0405,-3.0405,-3.0405,-3.0364,-3.0351,-3.0323,-2.9699,0.0,0.0,0.0,0.0,0.0,-2.8587,-2.8587,-2.8587,-2.8587,-2.8587,-2.8587,-2.8587,-2.8587,-2.8587,-2.8587,-2.8587,-2.8587,-2.8587,-2.8587,-2.8587,-2.8587,-2.8587,-2.8587,-2.8587,-2.8587,-2.8587,-2.8587,-2.8587,-2.8587,-2.8587,-2.8216,-2.7855,-2.7809,-2.7007,-2.5956,-2.4863,-2.4181,-2.3481,-2.2426,-2.2221,-2.2197,-2.2197,-2.2197,-2.2197,-2.2197,-2.2197,-2.2197,-2.2197,-2.2197,-2.2197,-2.2197,-2.2197,-2.2197,-2.2197,-2.2197,-2.2197,-2.2197,-2.2197,-2.2197,-2.2197,-2.2185,-2.1987,-2.1651,-2.0955,-2.0421,-2.0129,-2.1101,-2.1559,-1.2536,0.0,-1.4354,-1.3877,-1.4368,-1.4775,0.0,-1.4639,-1.5036,0.0,0.0,-1.4585,-1.5508,-1.5291,-1.5688,0.0,0.0,0.0,0.0,0.0,0.0,0.0,0.0,0.0,0.0,0.0,0.0,0.0,0.0,0.0,0.0,0.0,-2.9021,-2.9021,-2.9021,-2.9469,-3.0405,-3.0405,-3.0405,-3.0405,-2.993,-2.9699,-2.9706,-2.9108,0.0,0.0,0.0,0.0,-2.8587,-2.8587,-2.8587,-2.8587,-2.8587,-2.8587,-2.8587,-2.8587,-2.8587,-2.8587,-2.8587,-2.8587,-2.8587,-2.8587,-2.8587,-2.8587,-2.8587,-2.8587,-2.8587,-2.8587,-2.8587,-2.8587,-2.8587,-2.8587,-2.8587,-2.8587,-2.849,-2.8281,-2.7875,-2.7276,-2.6498,-2.5415,-2.4471,-2.3601,-2.2939,-2.2462,-2.2197,-2.2197,-2.2197,-2.2197,-2.2197,-2.2197,-2.2197,-2.2197,-2.2197,-2.2197,-2.2197,-2.2197,-2.2197,-2.2197,-2.2197,-2.2197,-2.2197,-2.2197,-2.2197,-2.2197,-2.1956,-2.1663,-2.1316,-2.0828,-2.0421,-2.0129,-2.0751,-2.1266,-1.1193,-1.2469,-1.373,-1.3403,-1.4029,-1.4642,-1.43,0.0,0.0,0.0,0.0,0.0,-1.5508,0.0,0.0,0.0,0.0,0.0,0.0,0.0,0.0,0.0,0.0,0.0,0.0,0.0,0.0,0.0,0.0,0.0,0.0,0.0,-2.8587,-2.8587,-2.8587,-2.8912,-2.9564,-2.9577,-2.9577,-2.9564,-2.9224,-2.9108,-2.9094,-2.8736,-2.8587,0.0,0.0,0.0,-2.8587,-2.8587,-2.8587,-2.8587,-2.8587,-2.8587,-2.8587,-2.8587,-2.8587,-2.8587,-2.8587,-2.8587,-2.8587,-2.8587,-2.8587,-2.8587,-2.8587,-2.8587,-2.8587,-2.8587,-2.8587,-2.8587,-2.8587,-2.8587,-2.8587,-2.8587,-2.8587,-2.8457,-2.7921,-2.7377,-2.6595,-2.5286,-2.4385,-2.3553,-2.2782,-2.2378,-2.2197,-2.2197,-2.2197,-2.2197,-2.2197,-2.2197,-2.2197,-2.2197,-2.2197,-2.2197,-2.2197,-2.2197,-2.2197,-2.2197,-2.2197,-2.2197,-2.2197,-2.2197,-2.2197,-2.2197,-2.2018,-2.1757,-2.1443,-2.1063,-2.0679,-2.0346,-2.0731,-2.1157,-1.0923,-1.2604,-1.4259,-1.407,-1.4629,-1.5199,-1.5199,0.0,0.0,0.0,0.0,0.0,0.0,0.0,0.0,0.0,0.0,0.0,0.0,0.0,0.0,0.0,0.0,0.0,0.0,0.0,0.0,0.0,0.0,0.0,0.0,0.0,0.0,-2.8587,-2.8587,-2.8587,-2.8587,-2.8587,-2.8587,-2.8587,-2.8587,-2.8587,-2.8587,-2.8587,-2.8587,0.0,0.0,0.0,-2.8587,-2.8587,-2.8587,-2.8587,-2.8587,-2.8587,-2.8587,-2.8587,-2.8587,-2.8587,-2.8587,-2.8587,-2.8587,-2.8587,-2.8587,-2.8587,-2.8587,-2.8587,-2.8587,-2.8587,-2.8587,-2.8587,-2.8587,-2.8587,-2.8587,-2.8587,-2.8587,-2.849,-2.802,-2.7443,-2.6565,-2.5109,-2.4271,-2.3493,-2.2486,-2.2246,-2.2197,-2.2197,-2.2197,-2.2197,-2.2197,-2.2197,-2.2197,-2.2197,-2.2197,-2.2197,-2.2197,-2.2197,-2.2197,-2.2197,-2.2197,-2.2197,-2.2197,-2.2197,-2.2197,-2.2197,-2.2154,-2.1987,-2.1683,-2.1348,-2.1031,-2.0679,-2.0952,-2.1316,-1.1939,-1.324,-1.4056,-1.3037,-1.4002,-1.5199,-1.5199,0.0,0.0,0.0,0.0,0.0,0.0,0.0,0.0,0.0,0.0,0.0,0.0,0.0,0.0,0.0,0.0,0.0,0.0,0.0,0.0,0.0,0.0,0.0,0.0,0.0,0.0,-2.8587,-2.8587,-2.8587,-2.8587,-2.8587,-2.8587,-2.8587,-2.8587,-2.8587,-2.8587,-2.8587,-2.8587,0.0,0.0,-2.8587,-2.8587,-2.8587,-2.8587,-2.8587,-2.8587,-2.8587,-2.8587,-2.8587,-2.8587,-2.8587,-2.8587,-2.8587,-2.8587,-2.8587,-2.8587,-2.8587,-2.8587,-2.8587,-2.8587,-2.8587,-2.8587,-2.8587,-2.8587,-2.8587,-2.8587,-2.8587,-2.8587,-2.8587,-2.849,-2.7709,-2.678,-2.6094,-2.4781,-2.3601,-2.2999,-2.2486,-2.2197,-2.2197,-2.2197,-2.2197,-2.2197,-2.2197,-2.2197,-2.2197,-2.2197,-2.2197,-2.2197,-2.2197,-2.2197,-2.2197,-2.2197,-2.2197,-2.2197,-2.2197,-2.2197,-2.2197,-2.1925,-2.1757,-2.1683,-2.1348,-2.1158,-2.1106,-2.1565,-2.2035,-1.1384,-1.2644,-1.3771,-1.3525,-1.5074,-1.6653,-1.6653,0.0,0.0,0.0,0.0,0.0,0.0,0.0,0.0,0.0,0.0,0.0,0.0,0.0,0.0,0.0,0.0,0.0,0.0,0.0,0.0,0.0,0.0,0.0,0.0,0.0,0.0,-2.8587,-2.8587,-2.8587,-2.8587,-2.8587,-2.8587,-2.8587,-2.8587,-2.8587,-2.8587,-2.8587,-2.8587,-2.8587,0.0,-2.8587,-2.8587,-2.8587,-2.8587,-2.8587,-2.8587,-2.8587,-2.8587,-2.8587,-2.8587,-2.8587,-2.8587,-2.8587,-2.8587,-2.8587,-2.8587,-2.8587,-2.8587,-2.8587,-2.8587,-2.8587,-2.8587,-2.8587,-2.8587,-2.8587,-2.8587,-2.8587,-2.8587,-2.8522,-2.8216,-2.7538,-2.672,-2.5878,-2.4655,-2.3577,-2.3039,-2.2528,-2.2197,-2.2197,-2.2197,-2.2197,-2.2197,-2.2197,-2.2197,-2.2197,-2.2197,-2.2197,-2.2197,-2.2197,-2.2197,-2.2197,-2.2197,-2.2197,-2.2197,-2.2197,-2.2197,-2.2197,-2.2061,-2.1956,-2.1956,-2.1632,-2.1463,-2.1486,-2.1781,-2.2201,-1.1045,-1.2238,-1.3579,-1.4314,0.0,-1.7631,-1.8201,0.0,0.0,0.0,0.0,0.0,0.0,0.0,0.0,0.0,0.0,0.0,0.0,0.0,0.0,0.0,0.0,0.0,0.0,0.0,0.0,0.0,0.0,0.0,0.0,0.0,0.0,-2.8587,-2.8451,-2.8451,-2.8587,-2.8451,-2.8451,-2.8587,-2.8587,-2.8587,-2.8587,-2.8587,-2.8587,-2.8587,-2.8587,-2.8587,-2.8587,-2.8587,-2.8587,-2.8587,-2.8587,-2.8587,-2.8587,-2.8587,-2.8587,-2.8587,-2.8587,-2.8587,-2.8587,-2.8587,-2.8587,-2.8587,-2.8587,-2.8492,-2.8383,-2.8383,-2.8383,-2.841,-2.8546,-2.8587,-2.8587,-2.8587,-2.8587,-2.8449,-2.7912,-2.7299,-2.6548,-2.5338,-2.435,-2.3492,-2.2856,-2.2432,-2.2197,-2.2197,-2.2197,-2.2197,-2.2197,-2.2197,-2.2197,-2.2197,-2.2197,-2.2197,-2.2197,-2.2197,-2.2197,-2.2197,-2.2197,-2.2197,-2.2197,-2.2197,-2.2197,-2.2197,-2.2197,-2.2197,-2.2197,-2.1956,-2.1819,-2.1831,-2.2051,-2.2376,-1.2061,-1.2875,-1.369,-1.4846,-1.5684,0.0,-1.9062,0.0,0.0,0.0,0.0,0.0,0.0,0.0,0.0,0.0,0.0,0.0,0.0,0.0,0.0,0.0,0.0,0.0,0.0,0.0,0.0,0.0,0.0,0.0,0.0,0.0,0.0,-2.8573,-2.8058,-2.803,-2.8587,-2.8044,-2.8058,-2.8587,-2.8587,-2.8587,-2.8587,-2.8587,-2.8587,-2.8587,-2.8587,-2.8587,-2.8587,-2.8587,-2.8587,-2.8587,-2.8587,-2.8587,-2.8587,-2.8587,-2.8587,-2.8587,-2.8587,-2.8587,-2.8587,-2.8587,-2.8587,-2.8587,-2.8587,-2.8207,-2.7773,-2.7773,-2.7773,-2.7895,-2.8451,-2.8587,-2.8587,-2.8587,-2.8587,-2.8451,-2.7832,-2.7277,-2.6429,-2.4854,-2.4085,-2.3399,-2.2406,-2.2216,-2.2197,-2.2197,-2.2197,-2.2197,-2.2197,-2.2197,-2.2197,-2.2197,-2.2197,-2.2197,-2.2197,-2.2197,-2.2197,-2.2197,-2.2197,-2.2197,-2.2197,-2.2197,-2.2197,-2.2197,-2.2197,-2.2197,-2.2197,-2.2185,-2.2154,-2.2178,-2.2663,-2.2939,-1.1262,-1.2631,-1.407,-1.4517,0.0,0.0,0.0,0.0,0.0,0.0,0.0,0.0,0.0,0.0,0.0,0.0,0.0,0.0,0.0,0.0,0.0,0.0,0.0,0.0,0.0,0.0,0.0,0.0,0.0,0.0,0.0,0.0,0.0,-2.7488,-2.724,-2.724,-2.7488,-2.724,-2.724,-2.7501,-2.7868,-2.7841,-2.7501,-2.7881,-2.8044,-2.8044,-2.8044,-2.8044,-2.8017,-2.7651,-2.7488,-2.7528,-2.7895,-2.8044,-2.8085,-2.8451,-2.8587,-2.8587,-2.8587,-2.8587,-2.8587,-2.8587,-2.8587,-2.8519,-2.8153,-2.7881,-2.7623,-2.724,-2.7131,-2.7298,-2.7881,-2.8315,-2.8587,-2.8587,-2.8302,-2.7976,-2.7759,-2.6954,-2.6008,-2.5092,-2.4244,-2.3424,-2.2763,-2.2402,-2.2197,-2.2197,-2.2197,-2.2197,-2.2197,-2.2197,-2.2197,-2.2197,-2.2197,-2.2197,-2.2197,-2.2197,-2.2197,-2.2197,-2.2197,-2.2197,-2.2197,-2.2197,-2.2197,-2.2197,-2.2197,-2.2197,-2.2197,-2.2197,-2.2197,-2.2209,-2.2739,-2.3011,-1.1275,-1.2903,-1.4642,0.0,0.0,0.0,0.0,0.0,0.0,0.0,0.0,0.0,0.0,0.0,0.0,0.0,0.0,0.0,0.0,0.0,0.0,0.0,0.0,0.0,0.0,0.0,0.0,0.0,0.0,0.0,0.0,0.0,0.0,0.0,-2.6633,-2.6603,-2.6793,-2.6603,-2.6524,-2.6538,-2.6932,-2.7026,-2.6806,-2.7213,-2.7434,-2.7434,-2.7434,-2.7434,-2.7393,-2.6955,-2.6793,-2.6833,-2.724,-2.7434,-2.7501,-2.8085,-2.8315,-2.8343,-2.8519,-2.8587,-2.856,-2.837,-2.8315,-2.8193,-2.761,-2.7284,-2.7054,-2.6647,-2.6524,-2.6619,-2.7026,-2.7718,-2.8315,-2.8315,-2.8003,-2.7664,-2.7474,-2.6619,-2.5702,-2.5031,-2.4203,-2.3442,-2.3,-2.2525,-2.2197,-2.2197,-2.2197,-2.2197,-2.2197,-2.2197,-2.2197,-2.2197,-2.2197,-2.2197,-2.2197,-2.2197,-2.2197,-2.2197,-2.2197,-2.2197,-2.2197,-2.2197,-2.2197,-2.2197,-2.2197,-2.2197,-2.2197,-2.2197,-2.2197,-2.2197,-2.257,-2.2758,-1.2494,-1.3825,0.0,0.0,0.0,0.0,0.0,0.0,0.0,0.0,0.0,0.0,0.0,0.0,0.0,0.0,0.0,0.0,0.0,0.0,0.0,0.0,0.0,0.0,0.0,0.0,0.0,0.0,0.0,0.0,0.0,0.0,0.0,0.0,-2.6199,-2.6185,-2.6779,-2.6185,-2.5873,-2.5873,-2.5873,-2.6199,-2.6779,-2.6779,-2.6779,-2.6779,-2.6779,-2.6779,-2.6779,-2.6779,-2.6779,-2.6779,-2.6779,-2.6779,-2.6847,-2.7488,-2.7691,-2.7786,-2.837,-2.8573,-2.8478,-2.7895,-2.7691,-2.7596,-2.6955,-2.6375,-2.5887,-2.5873,-2.5873,-2.5873,-2.5873,-2.6782,-2.7691,-2.7691,-2.7691,-2.7528,-2.6915,-2.6321,-2.5581,-2.4527,-2.393,-2.3471,-2.3,-2.2525,-2.2197,-2.2197,-2.2197,-2.2197,-2.2197,-2.2197,-2.2197,-2.2197,-2.2197,-2.2197,-2.2197,-2.2197,-2.2197,-2.2197,-2.2197,-2.2197,-2.2197,-2.2197,-2.2197,-2.2197,-2.2197,-2.2197,-2.2197,-2.2197,-2.2197,-2.2197,-2.2197,-2.2197,-1.198,-1.3812,0.0,0.0,0.0,0.0,0.0,0.0,0.0,0.0,0.0,0.0,0.0,0.0,0.0,0.0,0.0,0.0,0.0,0.0,0.0,0.0,0.0,0.0,0.0,0.0,0.0,0.0,0.0,0.0,0.0,0.0,0.0,0.0,-2.5358,-2.5358,-2.5548,-2.5358,-2.5276,-2.5276,-2.5276,-2.5358,-2.5561,-2.5968,-2.6172,-2.6172,-2.6172,-2.6172,-2.6131,-2.5724,-2.5548,-2.5588,-2.6009,-2.6172,-2.624,-2.6833,-2.7064,-2.7077,-2.7253,-2.7339,-2.7311,-2.7118,-2.7064,-2.6942,-2.6348,-2.6036,-2.5805,-2.5385,-2.5276,-2.5276,-2.5276,-2.5846,-2.6538,-2.6986,-2.6755,-2.6375,-2.6212,-2.5697,-2.5066,-2.4419,-2.4205,-2.3826,-2.306,-2.2787,-2.2574,-2.2259,-2.2197,-2.2197,-2.2197,-2.2197,-2.2197,-2.2197,-2.2197,-2.2197,-2.2197,-2.2197,-2.2197,-2.2197,-2.2197,-2.2197,-2.2197,-2.2197,-2.2197,-2.2197,-2.2197,-2.2197,-2.2197,-2.2197,-2.2197,-2.2197,-2.2197,-2.2197,-1.2998,0.0,0.0,0.0,0.0,0.0,0.0,0.0,0.0,0.0,0.0,0.0,0.0,0.0,0.0,0.0,0.0,0.0,0.0,0.0,0.0,0.0,0.0,0.0,0.0,0.0,0.0,0.0,0.0,0.0,0.0,0.0,0.0,0.0,-2.5005,-2.5005,-2.5005,-2.5005,-2.5005,-2.5005,-2.5005,-2.5005,-2.5018,-2.5385,-2.5534,-2.5534,-2.5534,-2.5534,-2.5507,-2.5154,-2.5005,-2.5046,-2.5398,-2.5534,-2.5615,-2.6226,-2.6457,-2.6484,-2.6711,-2.6793,-2.6752,-2.6538,-2.6457,-2.6335,-2.5724,-2.5534,-2.5466,-2.51,-2.5005,-2.5005,-2.5005,-2.5276,-2.5683,-2.6307,-2.6158,-2.5887,-2.5887,-2.5426,-2.492,-2.4637,-2.4436,-2.406,-2.3305,-2.3017,-2.2726,-2.2278,-2.2197,-2.2197,-2.2197,-2.2197,-2.2197,-2.2197,-2.2197,-2.2197,-2.2197,-2.2197,-2.2197,-2.2197,-2.2197,-2.2197,-2.2197,-2.2197,-2.2197,-2.2197,-2.2197,-2.2197,-2.2197,-2.2197,-2.2197,-2.2197,-2.2197,-2.2197,0.0,0.0,0.0,0.0,0.0,0.0,0.0,0.0,0.0,0.0,0.0,0.0,0.0,0.0,0.0,0.0,0.0,0.0,0.0,0.0,0.0,0.0,0.0,0.0,0.0,0.0,0.0,0.0,0.0,0.0,0.0,0.0,0.0,0.0,-2.5005,-2.5005,-2.5005,-2.5005,-2.5005,0.0,-2.5005,-2.5005,-2.5005,-2.5005,-2.5005,-2.5005,-2.5005,-2.5005,-2.5005,-2.5005,-2.5005,-2.5005,-2.5005,-2.5005,-2.5073,-2.5615,-2.5805,-2.59,-2.644,-2.663,-2.6535,-2.5995,-2.5805,-2.571,-2.5168,-2.5005,-2.5005,-2.5005,-2.5005,-2.5005,-2.5005,-2.5005,-2.5141,-2.5683,-2.5805,-2.5805,-2.5805,-2.5385,-2.5005,-2.5005,-2.465,-2.4192,-2.3754,-2.3305,-2.2848,-2.2371,-2.2259,-2.2197,-2.2197,-2.2197,-2.2197,-2.2197,-2.2197,-2.2197,-2.2197,-2.2197,-2.2197,-2.2197,-2.2197,-2.2197,-2.2197,-2.2197,-2.2197,-2.2197,-2.2197,-2.2197,-2.2197,-2.2197,-2.2197,-2.2197,-2.2197,-2.2197,0.0,0.0,0.0,0.0,0.0,0.0,0.0,0.0,0.0,0.0,0.0,0.0,0.0,0.0,0.0,0.0,0.0,0.0,0.0,0.0,0.0,0.0,0.0,0.0,0.0,0.0,0.0,0.0,0.0,0.0,0.0,0.0,0.0,-2.5005,-2.5005,-2.5005,-2.5005,-2.5005,-2.5005,0.0,-2.5005,-2.5005,-2.5005,-2.5005,-2.5005,-2.5005,-2.5005,-2.5005,-2.5005,-2.5005,-2.5005,-2.5005,-2.5005,-2.5005,-2.5032,-2.5154,-2.5195,-2.5208,-2.5344,-2.5398,-2.5371,-2.5236,-2.5195,-2.5168,-2.5046,-2.5005,-2.5005,-2.5005,-2.5005,-2.5005,-2.5005,-2.5005,-2.5032,-2.5168,-2.5195,-2.5195,-2.5195,-2.51,-2.5005,-2.5005,-2.492,-2.4708,-2.4234,-2.406,-2.3738,-2.3017,-2.2482,-2.2197,-2.2197,-2.2197,-2.2197,-2.2197,-2.2197,-2.2197,-2.2197,-2.2197,-2.2197,-2.2197,-2.2197,-2.2197,-2.2197,-2.2197,-2.2197,-2.2197,-2.2197,-2.2197,-2.2197,-2.2197,-2.2197,-2.2197,-2.2197,-2.2197,0.0,0.0,0.0,0.0,0.0,0.0,0.0,0.0,0.0,0.0,0.0,0.0,0.0,0.0,0.0,0.0,0.0,0.0,0.0,0.0,0.0,0.0,0.0,0.0,0.0,0.0,0.0,0.0,0.0,0.0,0.0,-2.4394,-2.4584,-2.4584,-2.4856,-2.4869,-2.4584,-2.4869,-2.4856,-2.4584,-2.4584,-2.4584,-2.4598,-2.4883,-2.5005,-2.5005,-2.5005,-2.5005,-2.5005,-2.5005,-2.5005,-2.5005,-2.5005,-2.5005,-2.5005,-2.5005,-2.5005,-2.5005,-2.5005,-2.5005,-2.5005,-2.5005,-2.5005,-2.5005,-2.5005,-2.5005,-2.5005,-2.5005,-2.5005,-2.5005,-2.5005,-2.5005,-2.5005,-2.5005,-2.5005,-2.5005,-2.5005,-2.5005,-2.5005,-2.5005,-2.5005,-2.4863,-2.4379,-2.3972,-2.3484,-2.2787,-2.2402,-2.2197,-2.2197,-2.2197,-2.2197,-2.2197,-2.2197,-2.2197,-2.2197,-2.2197,-2.2197,-2.2197,-2.2197,-2.2197,-2.2197,-2.2197,-2.2197,-2.2197,-2.2197,-2.2197,-2.2197,-2.2197,-2.2197,-2.2197,-2.2197,-2.2197,0.0,0.0,0.0,0.0,0.0,0.0,0.0,0.0,0.0,0.0,0.0,0.0,0.0,0.0,0.0,0.0,0.0,0.0,0.0,0.0,0.0,0.0,0.0,0.0,0.0,0.0,0.0,0.0,0.0,0.0,-2.3346,-2.3783,-2.4028,-2.4028,-2.4435,-2.4435,-2.3947,-2.4435,-2.4435,-2.3933,-2.3933,-2.3933,-2.396,-2.4448,-2.4815,-2.5005,-2.5005,-2.5005,-2.5005,-2.5005,-2.5005,-2.5005,-2.5005,-2.5005,-2.5005,-2.5005,-2.5005,-2.5005,-2.5005,-2.5005,-2.5005,-2.5005,-2.5005,-2.5005,-2.5005,-2.5005,-2.5005,-2.5005,-2.5005,-2.5005,-2.5005,-2.5005,-2.5005,-2.5005,-2.5005,-2.5005,-2.5005,-2.5005,-2.5005,-2.5005,-2.5005,-2.4892,-2.4494,-2.3855,-2.3258,-2.2757,-2.2402,-2.2197,-2.2197,-2.2197,-2.2197,-2.2197,-2.2197,-2.2197,-2.2197,-2.2197,-2.2197,-2.2197,-2.2197,-2.2197,-2.2197,-2.2197,-2.2197,-2.2197,-2.2197,-2.2197,-2.2197,-2.2197,-2.2197,-2.2197,-2.2197,-2.2197,0.0,0.0,0.0,0.0,0.0,0.0,0.0,0.0,0.0,0.0,0.0,0.0,0.0,0.0,0.0,0.0,0.0,0.0,0.0,0.0,0.0,0.0,0.0,0.0,0.0,0.0,0.0,0.0,0.0,0.0,-2.3889,-2.3753,-2.3664,-2.3664,-2.351,-2.3405,-2.3323,-2.3405,-2.3405,-2.3323,-2.3323,-2.3323,-2.3323,-2.3405,-2.4001,-2.5005,-2.5005,-2.5005,-2.5005,-2.5005,-2.5005,-2.5005,-2.5005,-2.5005,-2.5005,-2.5005,-2.5005,-2.5005,-2.5005,-2.5005,-2.5005,-2.5005,-2.5005,-2.5005,-2.5005,-2.5005,-2.5005,-2.5005,-2.5005,-2.5005,-2.5005,-2.5005,-2.5005,-2.5005,-2.5005,-2.5005,-2.5005,-2.5005,-2.5005,-2.5005,-2.5005,-2.4977,-2.492,-2.4835,-2.4708,-2.465,-2.3245,-2.2197,-2.2197,-2.2197,-2.2197,-2.2197,-2.2197,-2.2197,-2.2197,-2.2197,-2.2197,-2.2197,-2.2197,-2.2197,-2.2197,-2.2197,-2.2197,-2.2197,-2.2197,-2.2197,-2.2197,-2.2197,-2.2197,-2.2197,-2.2197,-2.2197,0.0,0.0,0.0,0.0,0.0,0.0,0.0,0.0,0.0,0.0,0.0,0.0,0.0,0.0,0.0,0.0,0.0,0.0,0.0,0.0,0.0,0.0,0.0,0.0,0.0,0.0,0.0,0.0,0.0,-2.2794,-2.2769,-2.3128,-2.3259,-2.3094,-2.331,-2.3246,-2.2916,-2.3117,-2.3039,-2.2686,-2.2686,-2.2686,-2.2686,-2.2686,-2.335,-2.4489,-2.4489,-2.4706,-2.5005,-2.5005,-2.5005,-2.5005,-2.5005,-2.5005,-2.5005,-2.5005,-2.5005,-2.5005,-2.5005,-2.5005,-2.5005,-2.5005,-2.5005,-2.5005,-2.5005,-2.5005,-2.5005,-2.5005,-2.5005,-2.5005,-2.5005,-2.5005,-2.5005,-2.5005,-2.5005,-2.5005,-2.5005,-2.5005,-2.5005,-2.5005,-2.5005,-2.5005,-2.5005,-2.5005,-2.465,-2.3603,-2.2726,-2.2197,-2.2197,-2.2197,-2.2197,-2.2197,-2.2197,-2.2197,-2.2197,-2.2197,-2.2197,-2.2197,-2.2197,-2.2197,-2.2197,-2.2197,-2.2197,-2.2197,-2.2197,-2.2197,-2.2197,-2.2197,-2.2197,-2.2197,-2.2197,-2.2197,0.0,0.0,0.0,0.0,0.0,0.0,0.0,0.0,0.0,0.0,0.0,0.0,0.0,0.0,0.0,0.0,0.0,0.0,0.0,0.0,0.0,0.0,0.0,0.0,0.0,0.0,0.0,0.0,0.0,-2.2254,-2.2091,-2.2586,-2.2814,-2.2665,-2.2989,-2.2953,-2.2582,-2.2814,-2.2688,-2.2174,-2.2174,-2.2138,-2.2074,-2.2074,-2.2658,-2.3649,-2.3798,-2.4204,-2.4774,-2.4774,-2.4869,-2.5005,-2.5005,-2.5005,-2.5005,-2.5005,-2.5005,-2.5005,-2.5005,-2.5005,-2.5005,-2.5005,-2.5005,-2.5005,-2.5005,-2.5005,-2.5005,-2.5005,-2.5005,-2.5005,-2.5005,-2.5005,-2.5005,-2.5005,-2.5005,-2.5005,-2.5005,-2.5005,-2.5005,-2.5005,-2.5005,-2.5005,-2.5005,-2.5005,-2.4536,-2.3138,-2.2927,-2.2927,-2.2927,-2.2927,-2.2927,-2.2927,-2.2482,-2.2197,-2.2197,-2.2197,-2.2197,-2.2197,-2.2197,-2.2197,-2.2197,-2.2197,-2.2197,-2.2197,-2.2197,-2.2197,-2.2197,-2.2197,-2.2197,-2.2197,-2.2197,-2.2197,0.0,0.0,0.0,0.0,0.0,0.0,0.0,0.0,0.0,0.0,0.0,0.0,0.0,0.0,0.0,0.0,0.0,0.0,0.0,0.0,0.0,0.0,0.0,0.0,0.0,0.0,0.0,0.0,0.0,-2.2661,-2.282,-2.2445,-2.2357,-2.2589,-2.2137,-2.1995,-2.2226,-2.2231,-2.2113,-2.1825,-2.1825,-2.1681,-2.144,-2.144,-2.1778,-2.2427,-2.2998,-2.3594,-2.415,-2.415,-2.4462,-2.5005,-2.5005,-2.5005,-2.5005,-2.5005,-2.5005,-2.5005,-2.5005,-2.5005,-2.5005,-2.5005,-2.5005,-2.5005,-2.5005,-2.5005,-2.5005,-2.5005,-2.5005,-2.5005,-2.5005,-2.5005,-2.5005,-2.5005,-2.5005,-2.5005,-2.5005,-2.5005,-2.5005,-2.5005,-2.5005,-2.5005,-2.5005,-2.5005,-2.4977,-2.4863,-2.4863,-2.4863,-2.4863,-2.4863,-2.4863,-2.4863,-2.3245,-2.2197,-2.2197,-2.2197,-2.2197,-2.2197,-2.2197,-2.2197,-2.2197,-2.2197,-2.2197,-2.2197,-2.2197,-2.2197,-2.2197,-2.2197,-2.2197,-2.2197,-2.2197,-2.2197,0.0,0.0,0.0,0.0,0.0,0.0,0.0,0.0,0.0,0.0,0.0,0.0,0.0,0.0,0.0,0.0,0.0,0.0,0.0,0.0,0.0,0.0,0.0,0.0,0.0,0.0,0.0,0.0,0.0,0.0,-2.2706,-2.2684,-2.2638,-2.2615,-2.2417,-2.2184,-2.1949,-2.1769,-2.164,-2.1544,-2.1544,-2.1496,-2.1399,-2.1399,-2.1507,-2.1724,-2.1955,-2.2619,-2.3527,-2.3527,-2.3879,-2.4407,-2.4407,-2.4666,-2.5005,-2.5005,-2.5005,-2.5005,-2.5005,-2.5005,-2.5005,-2.5005,-2.5005,-2.5005,-2.5005,-2.5005,-2.5005,-2.5005,-2.5005,-2.5005,-2.5005,-2.5005,-2.5005,-2.5005,-2.5005,-2.5005,-2.5005,-2.5005,-2.5005,-2.5005,-2.5005,-2.5005,-2.5005,-2.5005,-2.5005,-2.5005,-2.5005,-2.5005,-2.5005,-2.5005,-2.4536,-2.3335,-2.2604,-2.2197,-2.2197,-2.2197,-2.2197,-2.2197,-2.2197,-2.2197,-2.2197,-2.2197,-2.2197,-2.2197,-2.2197,-2.2197,-2.2197,-2.2197,-2.2197,-2.2197,-2.2197,-2.2197,0.0,0.0,0.0,0.0,0.0,0.0,0.0,0.0,0.0,0.0,0.0,0.0,0.0,0.0,0.0,0.0,0.0,0.0,0.0,0.0,0.0,0.0,0.0,0.0,0.0,0.0,0.0,0.0,0.0,0.0,-2.2074,-2.232,-2.2513,-2.2601,-2.2684,-2.2532,-2.2184,-2.1926,-2.1746,-2.1688,-2.1592,-2.1496,-2.1399,-2.1399,-2.1399,-2.1399,-2.1399,-2.1968,-2.2903,-2.2903,-2.3256,-2.3798,-2.3798,-2.4042,-2.4407,-2.4639,-2.4706,-2.4747,-2.4937,-2.5005,-2.5005,-2.5005,-2.5005,-2.5005,-2.5005,-2.5005,-2.5005,-2.5005,-2.5005,-2.5005,-2.5005,-2.5005,-2.5005,-2.5005,-2.5005,-2.5005,-2.5005,-2.5005,-2.5005,-2.5005,-2.5005,-2.5005,-2.5005,-2.5005,-2.5005,-2.5005,-2.5005,-2.5005,-2.5005,-2.5005,-2.4276,-2.2402,-2.2197,-2.2463,-2.3078,-2.2543,-2.2197,-2.2197,-2.2197,-2.2197,-2.2197,-2.2197,-2.2197,-2.2197,-2.2197,-2.2197,-2.2197,-2.2197,-2.2197,-2.2197,-2.2197,-2.2197,0.0,0.0,0.0,0.0,0.0,0.0,0.0,0.0,0.0,0.0,0.0,0.0,0.0,0.0,0.0,0.0,0.0,0.0,0.0,0.0,0.0,0.0,0.0,0.0,0.0,0.0,0.0,0.0,0.0,-2.1685,-2.1032,-2.1363,-2.1883,-2.2529,-2.274,-2.2844,-2.2844,-2.2626,-2.242,-2.218,-2.1898,-2.1636,-2.1423,-2.1399,-2.1399,-2.1399,-2.1399,-2.1724,-2.2278,-2.2278,-2.2619,-2.3188,-2.3188,-2.3188,-2.3283,-2.3865,-2.4069,-2.4177,-2.4774,-2.4991,-2.5005,-2.5005,-2.5005,-2.5005,-2.5005,-2.5005,-2.5005,-2.5005,-2.5005,-2.5005,-2.5005,-2.5005,-2.5005,-2.5005,-2.5005,-2.5005,-2.5005,-2.5005,-2.5005,-2.5005,-2.5005,-2.5005,-2.5005,-2.5005,-2.5005,-2.5005,-2.5005,-2.5005,-2.5005,-2.5005,-2.4305,-2.2482,-2.2278,-2.3017,-2.4863,-2.3275,-2.2228,-2.2228,-2.2228,-2.2197,-2.2197,-2.2197,-2.2197,-2.2197,-2.2197,-2.2197,-2.2197,-2.2197,-2.2197,-2.2197,-2.2197,-2.2197,-0.8761,0.0,0.0,0.0,0.0,0.0,0.0,0.0,0.0,0.0,0.0,0.0,0.0,0.0,0.0,0.0,0.0,0.0,0.0,0.0,0.0,0.0,0.0,0.0,0.0,0.0,0.0,0.0,-2.1278,-2.1191,-2.1003,-2.1114,-2.1246,-2.144,-2.1362,-2.1313,-2.1313,-2.106,-2.1133,-2.1465,-2.1241,-2.1336,-2.1688,-2.1496,-2.1399,-2.1399,-2.1399,-2.148,-2.1643,-2.1643,-2.1995,-2.2537,-2.2537,-2.2808,-2.3228,-2.3405,-2.373,-2.4109,-2.4286,-2.4639,-2.5005,-2.5005,-2.5005,-2.5005,-2.5005,-2.5005,-2.5005,-2.5005,-2.5005,-2.5005,-2.5005,-2.5005,-2.5005,-2.5005,-2.5005,-2.5005,-2.5005,-2.5005,-2.5005,-2.5005,-2.5005,-2.5005,-2.5005,-2.5005,-2.5005,-2.5005,-2.5005,-2.5005,-2.5005,-2.5005,-2.4806,-2.4276,-2.4218,-2.445,-2.4948,-2.3275,-2.2402,-2.2805,-2.2432,-2.2197,-2.2197,-2.2197,-2.2197,-2.2197,-2.2197,-2.2197,-2.2197,-2.2197,-2.2197,-2.2197,-2.2197,-2.2197,0.0,0.0,0.0,0.0,0.0,0.0,0.0,0.0,0.0,0.0,0.0,0.0,0.0,0.0,0.0,0.0,0.0,0.0,0.0,0.0,0.0,0.0,0.0,0.0,0.0,0.0,0.0,-2.064,-2.0625,-2.0625,-2.0625,-2.0625,-2.0741,-2.0988,-2.0893,-2.083,-2.083,-2.0578,-2.0634,-2.1001,-2.067,-2.0845,-2.1425,-2.1152,-2.1155,-2.1399,-2.1399,-2.1399,-2.1399,-2.1399,-2.1602,-2.1925,-2.1925,-2.2131,-2.2483,-2.2727,-2.3039,-2.3378,-2.3635,-2.3947,-2.4245,-2.4245,-2.4407,-2.4679,-2.4924,-2.5005,-2.5005,-2.5005,-2.5005,-2.5005,-2.5005,-2.5005,-2.5005,-2.5005,-2.5005,-2.5005,-2.5005,-2.5005,-2.5005,-2.5005,-2.5005,-2.5005,-2.5005,-2.5005,-2.5005,-2.5005,-2.5005,-2.5005,-2.5005,-2.5005,-2.5005,-2.5005,-2.5005,-2.4835,-2.4436,-2.3412,-2.2866,-2.3017,-2.2482,-2.2197,-2.2197,-2.2197,-2.2197,-2.2197,-2.2197,-2.2197,-2.2197,-2.2197,-2.2197,-2.2197,-2.2197,-2.2197,0.0,-1.1466,0.0,0.0,0.0,0.0,-1.3558,-1.3571,0.0,0.0,0.0,0.0,0.0,0.0,0.0,0.0,0.0,0.0,0.0,0.0,0.0,0.0,0.0,0.0,0.0,-2.0465,-2.0567,-2.003,-1.9986,-1.9986,-1.9986,-1.9986,-2.0233,-2.077,-2.0785,-2.0785,-2.0785,-2.0594,-2.0526,-2.0598,-2.0117,-2.0211,-2.0795,-2.0515,-2.0748,-2.1304,-2.1304,-2.1331,-2.1399,-2.1399,-2.1399,-2.1399,-2.1399,-2.1399,-2.1453,-2.2007,-2.2251,-2.2386,-2.2917,-2.3147,-2.3215,-2.3215,-2.3567,-2.4096,-2.4652,-2.4842,-2.4896,-2.4978,-2.5005,-2.5005,-2.5005,-2.5005,-2.5005,-2.5005,-2.5005,-2.5005,-2.5005,-2.5005,-2.5005,-2.5005,-2.5005,-2.5005,-2.5005,-2.5005,-2.5005,-2.5005,-2.5005,-2.5005,-2.5005,-2.5005,-2.5005,-2.5005,-2.5005,-2.465,-2.3813,-2.3666,-2.3442,-2.3078,-2.2586,-2.2278,-2.2278,-2.2228,-2.2197,-2.2197,-2.2197,-2.2197,-2.2197,-2.2197,-2.2197,-2.2197,-2.2197,-2.2197,-1.3906,-1.4413,-1.4848,0.0,0.0,0.0,0.0,-1.1948,0.0,0.0,0.0,0.0,0.0,0.0,0.0,0.0,0.0,0.0,0.0,0.0,0.0,0.0,0.0,0.0,0.0,-1.9406,-1.942,-1.9304,-1.9304,-1.9304,-1.9304,-1.9304,-1.9348,-1.9464,-1.9464,-1.9464,-1.9464,-1.9272,-1.9446,-1.9975,-1.951,-1.9597,-2.0169,-1.9939,-2.0152,-2.0694,-2.0694,-2.0952,-2.1399,-2.1399,-2.1399,-2.1399,-2.1399,-2.1399,-2.1399,-2.1521,-2.1898,-2.2319,-2.2441,-2.2795,-2.3215,-2.3215,-2.3296,-2.3405,-2.3527,-2.3784,-2.4164,-2.4829,-2.5005,-2.5005,-2.5005,-2.5005,-2.5005,-2.5005,-2.5005,-2.5005,-2.5005,-2.5005,-2.5005,-2.5005,-2.5005,-2.5005,-2.5005,-2.5005,-2.5005,-2.5005,-2.5005,-2.5005,-2.5005,-2.5005,-2.5005,-2.5005,-2.5005,-2.492,-2.4736,-2.4018,-2.3725,-2.4002,-2.3228,-2.2757,-2.2757,-2.2402,-2.2197,-2.2197,-2.2197,-2.2197,-2.2197,-2.2197,-2.2197,-2.2197,-2.2197,-2.2197,0.0,0.0,-1.5892,-1.4602,0.0,0.0,0.0,0.0,0.0,0.0,0.0,0.0,0.0,0.0,0.0,0.0,0.0,0.0,0.0,0.0,0.0,0.0,0.0,0.0,0.0,-1.9101,-1.9101,-1.9101,-1.9101,-1.9101,-1.9101,-1.9101,-1.9101,-1.9101,-1.9101,-1.9101,-1.9101,-1.9007,-1.907,-1.9303,-1.8947,-1.9065,-1.9556,-1.9333,-1.9714,-2.0495,-2.0495,-2.0843,-2.1399,-2.1399,-2.1399,-2.1399,-2.1399,-2.1399,-2.1399,-2.1399,-2.1589,-2.1857,-2.1857,-2.2049,-2.2307,-2.2307,-2.251,-2.2741,-2.2741,-2.3106,-2.3581,-2.3987,-2.4313,-2.4516,-2.4421,-2.4706,-2.5005,-2.5005,-2.5005,-2.5005,-2.5005,-2.5005,-2.5005,-2.5005,-2.5005,-2.5005,-2.5005,-2.5005,-2.5005,-2.5005,-2.5005,-2.5005,-2.5005,-2.5005,-2.5005,-2.5005,-2.5005,-2.5005,-2.5005,-2.4565,-2.4205,-2.3972,-2.3275,-2.2909,-2.2909,-2.2463,-2.2197,-2.2197,-2.2197,-2.2197,-2.2197,-2.2197,-2.2197,-2.2197,-2.2197,-2.2197,0.0,0.0,0.0,0.0,0.0,-1.5544,0.0,0.0,0.0,-1.466,0.0,0.0,0.0,0.0,0.0,0.0,0.0,0.0,0.0,0.0,0.0,0.0,0.0,0.0,0.0,-1.8811,-1.884,-1.9087,-1.8869,-1.884,-1.9087,-1.9101,-1.9101,-1.9101,-1.9101,-1.9101,-1.9101,-1.9064,-1.8969,-1.8803,-1.86,-1.8651,-1.8921,-1.8755,-1.9228,-2.0166,-2.0166,-2.0572,-2.1223,-2.1223,-2.1304,-2.1399,-2.1399,-2.1399,-2.1399,-2.1399,-2.1399,-2.1399,-2.1399,-2.1399,-2.1399,-2.1399,-2.1724,-2.2142,-2.2142,-2.2537,-2.3039,-2.3039,-2.3459,-2.3933,-2.4001,-2.4502,-2.5005,-2.5005,-2.5005,-2.5005,-2.5005,-2.5005,-2.5005,-2.5005,-2.5005,-2.5005,-2.5005,-2.5005,-2.5005,-2.5005,-2.5005,-2.5005,-2.5005,-2.5005,-2.5005,-2.5005,-2.5005,-2.5005,-2.5005,-2.5005,-2.465,-2.3783,-2.3305,-2.2987,-2.2909,-2.2463,-2.2197,-2.2197,-2.2197,-2.2197,-2.2197,-2.2197,-2.2197,-2.2197,-2.2197,-2.2197,0.0,0.0,0.0,0.0,-1.7038,0.0,0.0,0.0,-1.4703,-1.3801,0.0,0.0,0.0,0.0,0.0,0.0,0.0,0.0,0.0,0.0,0.0,0.0,0.0,0.0,0.0,0.0,-1.7882,-1.9014,-1.8056,-1.7911,-1.9043,-1.9101,-1.9101,-1.9101,-1.9101,-1.9101,-1.9101,-1.8917,-1.8822,-1.8803,-1.86,-1.8428,-1.8299,-1.8279,-1.8529,-1.8989,-1.8989,-1.9605,-2.0613,-2.0613,-2.0925,-2.1399,-2.1399,-2.1399,-2.1399,-2.1399,-2.1399,-2.1399,-2.1399,-2.1399,-2.1399,-2.1399,-2.144,-2.1494,-2.1494,-2.1914,-2.2414,-2.2414,-2.2835,-2.354,-2.4598,-2.4937,-2.5005,-2.5005,-2.5005,-2.5005,-2.5005,-2.5005,-2.5005,-2.5005,-2.5005,-2.5005,-2.5005,-2.5005,-2.5005,-2.5005,-2.5005,-2.5005,-2.5005,-2.5005,-2.5005,-2.5005,-2.5005,-2.5005,-2.5005,-2.5005,-2.4765,-2.4263,-2.3783,-2.3322,-2.2909,-2.2463,-2.2197,-2.2197,-2.2197,-2.2197,-2.2197,-2.2197,-2.2197,-2.2197,-2.2197,-2.2197,0.0,0.0,0.0,0.0,0.0,0.0,-1.5414,0.0,-1.479,0.0,0.0,0.0,0.0,0.0,0.0,0.0,0.0,0.0,0.0,0.0,0.0,0.0,0.0,0.0,0.0,0.0,0.0,0.0,0.0,-1.7606,-1.8535,-1.8912,-1.9101,-1.9101,-1.9101,-1.9101,-1.9101,-1.9026,-1.8917,-1.8803,-1.8721,-1.8523,-1.8202,-1.8202,-1.8433,-1.8806,-1.8806,-1.9274,-2.003,-2.003,-2.0202,-2.0423,-2.0762,-2.1087,-2.1399,-2.1399,-2.1399,-2.1399,-2.1399,-2.1399,-2.1399,-2.1399,-2.1399,-2.1399,-2.1399,-2.1575,-2.1765,-2.1765,-2.2293,-2.2849,-2.289,-2.396,-2.4652,-2.3228,-2.3987,-2.5005,-2.5005,-2.5005,-2.5005,-2.5005,-2.5005,-2.5005,-2.5005,-2.5005,-2.5005,-2.5005,-2.5005,-2.5005,-2.5005,-2.5005,-2.5005,-2.5005,-2.5005,-2.5005,-2.5005,-2.5005,-2.492,-2.4708,-2.3826,-2.3185,-2.2909,-2.2463,-2.2197,-2.2197,-2.2197,-2.2197,-2.2197,-2.2197,-2.2197,-2.2197,-2.2197,-2.2197,-1.9199,0.0,0.0,0.0,0.0,0.0,0.0,0.0,0.0,0.0,0.0,0.0,0.0,0.0,0.0,0.0,0.0,0.0,0.0,0.0,0.0,0.0,0.0,0.0,0.0,0.0,0.0,0.0,0.0,0.0,-1.8129,-1.8622,-1.8927,-1.9101,-1.9101,-1.9101,-1.9101,-1.9101,-1.9026,-1.8879,-1.8879,-1.8664,-1.8282,-1.8282,-1.8417,-1.8624,-1.8582,-1.8936,-1.953,-1.9486,-1.9537,-1.9741,-2.0125,-2.064,-2.1169,-2.1331,-2.1399,-2.1399,-2.1399,-2.1399,-2.1399,-2.1399,-2.1399,-2.1399,-2.1399,-2.1399,-2.1399,-2.1399,-2.1805,-2.2142,-2.1548,-2.2686,-2.358,-2.1819,-2.2727,-2.4204,-2.4869,-2.5005,-2.5005,-2.5005,-2.5005,-2.5005,-2.5005,-2.5005,-2.5005,-2.5005,-2.5005,-2.5005,-2.5005,-2.5005,-2.5005,-2.5005,-2.5005,-2.5005,-2.5005,-2.5005,-2.5005,-2.5005,-2.3884,-2.3185,-2.3108,-2.2525,-2.2197,-2.2197,-2.2197,-2.2197,-2.2197,-2.2197,-2.2197,-2.2197,-2.2197,-2.2197,0.0,0.0,0.0,-1.7617,0.0,0.0,0.0,0.0,-1.5979,0.0,0.0,0.0,0.0,0.0,0.0,0.0,0.0,0.0,0.0,0.0,0.0,0.0,0.0,0.0,0.0,0.0,0.0,0.0,0.0,0.0,-1.8042,-1.823,-1.8506,-1.9087,-1.9101,-1.9101,-1.9101,-1.9101,-1.9101,-1.9082,-1.9082,-1.8889,-1.8498,-1.8498,-1.8394,-1.821,-1.801,-1.8392,-1.9107,-1.8897,-1.9165,-1.97,-1.9714,-2.0044,-2.0613,-2.1182,-2.1399,-2.1399,-2.1399,-2.1399,-2.1399,-2.1399,-2.1399,-2.1399,-2.1399,-2.1399,-2.1399,-2.1399,-2.1412,-2.1426,-2.1399,-2.1453,-2.1494,-2.1412,-2.1453,-2.2158,-2.4503,-2.5005,-2.5005,-2.5005,-2.5005,-2.5005,-2.5005,-2.5005,-2.5005,-2.5005,-2.5005,-2.5005,-2.5005,-2.5005,-2.5005,-2.5005,-2.5005,-2.5005,-2.5005,-2.5005,-2.5005,-2.5005,-2.4118,-2.3577,-2.3577,-2.2684,-2.2197,-2.2197,-2.2197,-2.2197,-2.2197,-2.2197,-2.2197,-2.2197,-2.2197,-2.2197,0.0,0.0,-1.968,-1.8429,0.0,0.0,0.0,0.0,0.0,0.0,0.0,0.0,0.0,0.0,0.0,0.0,0.0,0.0,0.0,0.0,0.0,0.0,0.0,0.0,0.0,0.0,0.0,0.0,0.0,0.0,0.0,-1.7969,-1.8491,-1.9087,-1.9101,-1.9101,-1.9101,-1.9101,-1.9101,-1.9101,-1.9101,-1.8969,-1.8683,-1.8562,-1.84,-1.8183,-1.7983,-1.8051,-1.8303,-1.8221,-1.8323,-1.8574,-1.9388,-1.9809,-2.003,-2.0599,-2.106,-2.1399,-2.1399,-2.1399,-2.1399,-2.1399,-2.1399,-2.1399,-2.1399,-2.1399,-2.1399,-2.1399,-2.1399,-2.1399,-2.1399,-2.1399,-2.1399,-2.1399,-2.1399,-2.1833,-2.3459,-2.4435,-2.5005,-2.5005,-2.5005,-2.5005,-2.5005,-2.5005,-2.5005,-2.5005,-2.5005,-2.5005,-2.5005,-2.5005,-2.5005,-2.5005,-2.5005,-2.5005,-2.5005,-2.5005,-2.5005,-2.5005,-2.3914,-2.3382,-2.3577,-2.2684,-2.2197,-2.2197,-2.2197,-2.2197,-2.2197,-2.2197,-2.2197,-2.2197,-2.2197,-2.2197,-2.0447,-2.0447,0.0,-1.9177,-1.8691,0.0,-1.6768,0.0,0.0,0.0,0.0,0.0,0.0,0.0,0.0,0.0,0.0,0.0,0.0,0.0,0.0,0.0,0.0,0.0,0.0,0.0,-1.1858,-1.296,0.0,0.0,0.0,0.0,-1.8143,-1.8767,-1.8985,-1.9101,-1.9101,-1.9101,-1.9101,-1.9101,-1.9101,-1.8988,-1.8803,-1.8664,-1.8542,-1.8406,-1.8129,-1.8043,-1.8103,-1.7963,-1.7902,-1.7997,-1.9002,-1.951,-1.9795,-2.0545,-2.1074,-2.1399,-2.1399,-2.1399,-2.1399,-2.1399,-2.1399,-2.1399,-2.1399,-2.1399,-2.1399,-2.1399,-2.1399,-2.1399,-2.1399,-2.1399,-2.1399,-2.1399,-2.1399,-2.1602,-2.2402,-2.3838,-2.5005,-2.5005,-2.5005,-2.5005,-2.5005,-2.5005,-2.5005,-2.5005,-2.5005,-2.5005,-2.5005,-2.5005,-2.5005,-2.5005,-2.5005,-2.4842,-2.4394,-2.4475,-2.4584,-2.4584,-2.4061,-2.3855,-2.4076,-2.3215,-2.2684,-2.2684,-2.2371,-2.2197,-2.2197,-2.2197,-2.2197,-2.2197,-2.2197,-2.2197]},{"header":{"parameterUnit":"m.s-1","parameterCategory":1,"la1":30.6,"la2":29.2853,"lo1":-89.7004,"lo2":-87.6739,"dy":0.0162,"dx":0.0183,"nx":112,"ny":82,"refTime":"2024-07-11T06:00:00:Z","depth":0,"parameterNumber":3,"parameterNumberName":"V-component_of_WINDS"},"data":[0.0,0.0,0.0,0.0,0.0,0.0,0.0,0.0,0.0,0.0,0.0,0.0,0.0,0.0,0.0,0.0,0.0,0.0,0.0,0.0,0.0,0.0,0.0,0.0,0.0,0.0,0.0,0.0,0.0,0.0,0.0,0.0,0.0,0.0,0.0,0.0,0.0,0.0,0.0,0.0,0.0,0.0,0.0,0.0,0.0,0.0,0.0,0.0,0.0,0.0,0.0,0.0,0.0,0.0,0.0,0.0,0.0,0.0,0.0,0.0,0.0,0.0,0.0,0.0,0.0,0.0,0.0,0.0,0.0,0.0,0.0,0.0,0.0,0.0,0.0,0.0,0.0,0.0,0.0,0.0,0.0,0.0,0.0,0.0,0.0,0.0,0.0,0.0,0.0,0.0,0.0,-2.2215,-2.3983,-2.5354,-2.6278,-2.4926,-2.3252,-2.1423,0.0,0.0,0.0,0.0,0.0,0.0,0.0,0.0,0.0,0.0,0.0,0.0,0.0,0.0,0.0,0.0,0.0,0.0,0.0,0.0,0.0,0.0,0.0,0.0,0.0,0.0,0.0,0.0,0.0,0.0,0.0,0.0,0.0,0.0,0.0,0.0,0.0,0.0,0.0,0.0,0.0,0.0,0.0,0.0,0.0,0.0,0.0,0.0,0.0,0.0,0.0,0.0,0.0,0.0,0.0,0.0,0.0,0.0,0.0,0.0,0.0,0.0,0.0,0.0,0.0,0.0,0.0,0.0,0.0,0.0,0.0,0.0,0.0,0.0,0.0,0.0,0.0,0.0,0.0,0.0,0.0,0.0,0.0,0.0,0.0,0.0,0.0,0.0,0.0,0.0,0.0,0.0,0.0,0.0,0.0,0.0,0.0,0.0,0.0,0.0,0.0,0.0,0.0,0.0,-2.0015,-2.4555,-2.5026,-2.5429,-2.6541,-2.4569,-2.2705,-2.1374,0.0,0.0,0.0,0.0,0.0,0.0,0.0,0.0,0.0,0.0,0.0,0.0,0.0,0.0,0.0,0.0,0.0,0.0,0.0,0.0,0.0,0.0,0.0,0.0,0.0,0.0,0.0,0.0,0.0,0.0,0.0,0.0,0.0,0.0,0.0,0.0,0.0,0.0,0.0,0.0,0.0,0.0,0.0,0.0,0.0,0.0,0.0,0.0,0.0,0.0,0.0,0.0,0.0,0.0,0.0,0.0,0.0,0.0,0.0,0.0,0.0,0.0,0.0,0.0,0.0,0.0,0.0,0.0,0.0,0.0,0.0,0.0,0.0,0.0,0.0,0.0,0.0,0.0,0.0,0.0,0.0,0.0,0.0,0.0,0.0,0.0,0.0,0.0,0.0,0.0,0.0,0.0,0.0,0.0,0.0,0.0,0.0,0.0,0.0,0.0,0.0,0.0,0.0,-1.9042,-2.1471,-2.5745,-2.567,-2.5699,-2.6616,-2.4618,-2.2746,-2.139,-1.8572,0.0,0.0,0.0,0.0,0.0,0.0,0.0,0.0,0.0,0.0,0.0,0.0,0.0,0.0,0.0,0.0,0.0,0.0,0.0,0.0,0.0,0.0,0.0,0.0,0.0,0.0,0.0,0.0,0.0,0.0,0.0,0.0,0.0,0.0,0.0,0.0,0.0,0.0,0.0,0.0,0.0,0.0,0.0,0.0,0.0,0.0,0.0,0.0,0.0,0.0,0.0,0.0,0.0,0.0,0.0,0.0,0.0,0.0,0.0,0.0,0.0,0.0,0.0,0.0,0.0,0.0,0.0,0.0,0.0,0.0,0.0,0.0,0.0,0.0,0.0,0.0,0.0,0.0,0.0,0.0,0.0,0.0,0.0,0.0,0.0,0.0,0.0,0.0,0.0,0.0,0.0,0.0,0.0,0.0,0.0,0.0,0.0,0.0,0.0,0.0,0.0,0.0,-2.1406,-2.3009,-2.6102,-2.594,-2.5824,-2.6393,-2.4304,-2.2491,-2.1374,-1.7504,0.0,0.0,0.0,0.0,0.0,0.0,0.0,0.0,0.0,0.0,0.0,0.0,0.0,0.0,0.0,0.0,0.0,0.0,0.0,0.0,0.0,0.0,0.0,0.0,0.0,0.0,0.0,0.0,0.0,0.0,0.0,0.0,0.0,0.0,0.0,0.0,0.0,0.0,0.0,0.0,0.0,0.0,0.0,0.0,0.0,0.0,0.0,0.0,0.0,0.0,0.0,0.0,0.0,0.0,0.0,0.0,0.0,0.0,0.0,0.0,0.0,0.0,0.0,0.0,0.0,0.0,0.0,0.0,0.0,0.0,0.0,0.0,0.0,0.0,0.0,0.0,0.0,0.0,0.0,0.0,0.0,0.0,0.0,0.0,0.0,0.0,0.0,0.0,0.0,0.0,0.0,0.0,0.0,0.0,0.0,0.0,0.0,0.0,0.0,0.0,0.0,0.0,-2.1681,-2.395,-2.55,-2.5629,-2.5613,-2.5662,-2.3073,-2.1406,-2.1309,-1.6095,0.0,0.0,0.0,0.0,0.0,0.0,0.0,0.0,0.0,0.0,0.0,0.0,0.0,0.0,0.0,0.0,0.0,0.0,0.0,0.0,0.0,0.0,0.0,0.0,0.0,0.0,0.0,0.0,0.0,0.0,0.0,0.0,0.0,0.0,0.0,0.0,0.0,0.0,0.0,0.0,0.0,0.0,0.0,0.0,0.0,0.0,0.0,0.0,0.0,0.0,0.0,0.0,0.0,0.0,0.0,0.0,0.0,0.0,0.0,0.0,0.0,0.0,0.0,0.0,0.0,0.0,0.0,0.0,0.0,0.0,0.0,0.0,0.0,0.0,0.0,0.0,0.0,0.0,0.0,0.0,0.0,0.0,0.0,0.0,0.0,0.0,0.0,0.0,0.0,0.0,0.0,0.0,0.0,0.0,0.0,0.0,0.0,0.0,0.0,0.0,0.0,0.0,-2.0904,-2.3025,0.0,-2.5597,-2.5597,-2.5597,-2.3802,-2.2102,-2.0759,0.0,0.0,0.0,0.0,0.0,0.0,0.0,0.0,0.0,0.0,0.0,0.0,0.0,0.0,0.0,0.0,0.0,0.0,0.0,0.0,0.0,0.0,0.0,0.0,0.0,0.0,0.0,0.0,0.0,0.0,0.0,0.0,0.0,0.0,0.0,0.0,0.0,0.0,0.0,0.0,0.0,0.0,0.0,0.0,0.0,0.0,0.0,0.0,0.0,0.0,0.0,0.0,0.0,0.0,0.0,0.0,0.0,0.0,0.0,0.0,0.0,0.0,0.0,0.0,0.0,0.0,0.0,0.0,0.0,0.0,0.0,0.0,0.0,0.0,0.0,0.0,0.0,0.0,0.0,0.0,0.0,0.0,0.0,0.0,0.0,0.0,0.0,0.0,0.0,0.0,0.0,0.0,0.0,0.0,0.0,0.0,0.0,0.0,0.0,0.0,0.0,0.0,-1.8713,-2.0855,-2.2911,0.0,-2.5597,-2.55,-2.5276,-2.3738,-2.1989,-2.0062,0.0,0.0,0.0,0.0,0.0,0.0,0.0,0.0,0.0,0.0,0.0,0.0,0.0,0.0,0.0,0.0,0.0,0.0,0.0,0.0,0.0,0.0,0.0,0.0,0.0,0.0,0.0,0.0,0.0,0.0,0.0,0.0,0.0,0.0,0.0,0.0,0.0,0.0,0.0,0.0,0.0,0.0,0.0,0.0,0.0,0.0,0.0,0.0,0.0,0.0,0.0,0.0,0.0,0.0,0.0,0.0,0.0,0.0,0.0,0.0,0.0,0.0,0.0,0.0,0.0,0.0,0.0,0.0,0.0,0.0,0.0,0.0,0.0,0.0,0.0,0.0,0.0,0.0,0.0,0.0,0.0,0.0,0.0,0.0,0.0,0.0,0.0,0.0,0.0,0.0,0.0,0.0,0.0,0.0,0.0,0.0,0.0,0.0,0.0,0.0,0.0,0.0,-1.8829,-2.1713,-2.4047,-2.5435,-2.5597,-2.5308,-2.4547,-2.2556,-2.071,0.0,0.0,0.0,0.0,0.0,0.0,0.0,0.0,0.0,0.0,0.0,0.0,0.0,0.0,0.0,0.0,0.0,0.0,0.0,0.0,0.0,0.0,0.0,0.0,0.0,0.0,0.0,0.0,0.0,0.0,0.0,0.0,0.0,0.0,0.0,0.0,0.0,0.0,0.0,0.0,0.0,0.0,0.0,0.0,0.0,0.0,0.0,0.0,0.0,0.0,0.0,0.0,0.0,0.0,0.0,0.0,0.0,0.0,0.0,0.0,0.0,0.0,0.0,0.0,0.0,0.0,0.0,0.0,0.0,0.0,0.0,0.0,0.0,0.0,0.0,0.0,0.0,0.0,0.0,0.0,0.0,0.0,0.0,0.0,0.0,0.0,0.0,0.0,0.0,0.0,0.0,0.0,0.0,0.0,0.0,0.0,0.0,0.0,0.0,0.0,0.0,0.0,0.0,-1.8829,-2.1713,-2.4047,-2.5435,-2.5597,-2.5308,-2.4547,-2.3496,-2.1584,-1.8618,0.0,0.0,0.0,0.0,0.0,0.0,0.0,0.0,0.0,0.0,0.0,0.0,0.0,0.0,0.0,0.0,0.0,0.0,0.0,0.0,0.0,0.0,0.0,0.0,0.0,0.0,0.0,0.0,0.0,0.0,0.0,0.0,0.0,0.0,0.0,0.0,0.0,0.0,0.0,0.0,0.0,0.0,0.0,0.0,0.0,0.0,0.0,0.0,0.0,0.0,0.0,0.0,0.0,0.0,0.0,0.0,0.0,0.0,0.0,0.0,0.0,0.0,0.0,0.0,0.0,0.0,0.0,0.0,0.0,0.0,0.0,0.0,0.0,0.0,0.0,0.0,0.0,0.0,0.0,0.0,0.0,0.0,0.0,0.0,0.0,0.0,0.0,0.0,0.0,0.0,0.0,0.0,0.0,0.0,0.0,0.0,0.0,0.0,0.0,0.0,0.0,0.0,-1.8829,-2.1713,-2.4047,-2.5435,-2.5597,-2.5195,-2.4193,-2.3723,-2.1956,-1.8329,0.0,0.0,0.0,0.0,0.0,0.0,0.0,0.0,0.0,0.0,0.0,0.0,0.0,0.0,0.0,0.0,0.0,0.0,0.0,0.0,0.0,0.0,0.0,0.0,0.0,0.0,0.0,0.0,0.0,0.0,0.0,0.0,0.0,0.0,0.0,0.0,0.0,0.0,0.0,0.0,0.0,0.0,0.0,0.0,0.0,0.0,0.0,0.0,0.0,0.0,0.0,0.0,0.0,0.0,0.0,0.0,0.0,0.0,0.0,0.0,0.0,0.0,0.0,0.0,0.0,0.0,0.0,0.0,0.0,0.0,0.0,0.0,0.0,0.0,0.0,0.0,0.0,0.0,0.0,0.0,0.0,0.0,0.0,0.0,0.0,0.0,0.0,0.0,0.0,0.0,0.0,0.0,0.0,0.0,0.0,0.0,0.0,0.0,0.0,0.0,0.0,0.0,-1.8926,-2.1762,-2.4047,-2.5435,-2.5597,-2.5033,-2.3625,-2.3496,-2.1973,-1.844,0.0,0.0,0.0,0.0,0.0,0.0,0.0,0.0,0.0,0.0,0.0,0.0,0.0,0.0,0.0,0.0,0.0,0.0,0.0,0.0,0.0,0.0,0.0,0.0,0.0,0.0,0.0,0.0,0.0,0.0,0.0,0.0,0.0,0.0,0.0,0.0,0.0,0.0,0.0,0.0,0.0,0.0,0.0,0.0,0.0,0.0,0.0,0.0,0.0,0.0,0.0,0.0,0.0,0.0,0.0,0.0,0.0,0.0,0.0,0.0,-1.3351,0.0,0.0,0.0,0.0,0.0,0.0,0.0,0.0,0.0,0.0,0.0,0.0,0.0,0.0,0.0,0.0,0.0,0.0,0.0,0.0,0.0,0.0,0.0,0.0,0.0,0.0,0.0,0.0,0.0,0.0,0.0,0.0,0.0,0.0,0.0,0.0,0.0,0.0,0.0,0.0,0.0,-1.9625,-2.2086,-2.4047,-2.5435,-2.5597,-2.5033,-2.3625,-2.3496,-2.2199,-1.9153,-1.7669,0.0,0.0,0.0,0.0,0.0,0.0,0.0,0.0,0.0,0.0,0.0,0.0,0.0,0.0,0.0,0.0,0.0,0.0,0.0,0.0,0.0,0.0,0.0,0.0,0.0,0.0,0.0,0.0,0.0,0.0,0.0,0.0,0.0,0.0,0.0,0.0,0.0,0.0,0.0,0.0,0.0,0.0,0.0,0.0,0.0,0.0,0.0,0.0,0.0,0.0,0.0,0.0,0.0,0.0,0.0,0.0,0.0,0.0,0.0,0.0,-1.4628,0.0,0.0,0.0,0.0,0.0,0.0,0.0,0.0,0.0,0.0,0.0,0.0,0.0,0.0,0.0,0.0,0.0,0.0,0.0,0.0,0.0,0.0,0.0,0.0,0.0,0.0,0.0,0.0,0.0,0.0,0.0,0.0,0.0,0.0,0.0,0.0,0.0,0.0,0.0,0.0,-2.0322,-2.2378,-2.4047,-2.5435,-2.5597,-2.5033,-2.3625,-2.3496,-2.241,-1.9899,-1.8768,0.0,0.0,0.0,0.0,0.0,0.0,0.0,0.0,0.0,0.0,0.0,0.0,0.0,0.0,0.0,0.0,0.0,0.0,0.0,0.0,0.0,0.0,0.0,0.0,0.0,0.0,0.0,0.0,0.0,0.0,0.0,0.0,0.0,0.0,0.0,0.0,0.0,0.0,0.0,0.0,0.0,0.0,0.0,0.0,0.0,0.0,0.0,0.0,0.0,0.0,0.0,0.0,0.0,-1.9003,-1.957,-2.0395,-2.0851,-2.1322,-2.1636,-1.9042,-1.7981,-1.8021,0.0,0.0,0.0,0.0,0.0,0.0,0.0,0.0,0.0,0.0,0.0,0.0,0.0,0.0,0.0,0.0,0.0,0.0,0.0,0.0,0.0,0.0,0.0,0.0,0.0,-2.1737,-2.1344,0.0,0.0,0.0,0.0,0.0,0.0,0.0,0.0,0.0,0.0,0.0,0.0,-2.1067,-2.2783,-2.4176,-2.5451,-2.5597,-2.5082,-2.3771,-2.3561,-2.2686,-2.0791,-1.9968,-1.8999,0.0,0.0,0.0,0.0,0.0,0.0,0.0,0.0,0.0,0.0,0.0,0.0,0.0,0.0,0.0,0.0,0.0,0.0,0.0,0.0,0.0,0.0,0.0,0.0,0.0,0.0,0.0,0.0,0.0,0.0,0.0,0.0,-1.0185,-1.132,0.0,0.0,0.0,0.0,0.0,0.0,0.0,0.0,0.0,0.0,0.0,0.0,0.0,-1.8422,-1.9789,-2.0892,-2.1501,-2.1661,-2.2778,-2.3087,-2.2698,-2.3322,-2.3656,-2.3698,-2.3287,0.0,-1.9936,-1.8697,0.0,0.0,0.0,0.0,0.0,0.0,0.0,0.0,0.0,0.0,0.0,0.0,0.0,0.0,0.0,0.0,0.0,0.0,0.0,0.0,0.0,0.0,-2.3676,-2.3768,-2.4062,-2.4045,0.0,-2.0751,-1.8623,-1.7714,-1.6548,0.0,0.0,0.0,0.0,0.0,0.0,0.0,-2.1956,-2.3479,-2.4677,-2.55,-2.5597,-2.5276,-2.4452,-2.382,-2.3107,-2.2167,-2.0903,-2.0134,-2.0064,-1.8332,0.0,0.0,0.0,0.0,0.0,0.0,0.0,0.0,0.0,0.0,0.0,0.0,0.0,0.0,0.0,0.0,0.0,0.0,0.0,0.0,0.0,0.0,0.0,0.0,0.0,0.0,0.0,0.0,0.0,-0.9928,-1.1476,-1.2498,-1.306,-1.3256,0.0,0.0,0.0,0.0,0.0,0.0,0.0,0.0,0.0,-1.8748,-2.0195,-2.1251,-2.1917,-2.2826,-2.3431,-2.3783,-2.4331,-2.4824,-2.5191,-2.5472,-2.5612,-2.5626,-2.6019,-2.4964,-2.2897,-2.1608,-2.0358,-1.9198,0.0,0.0,0.0,0.0,-1.7885,-1.8461,-1.9206,-1.9417,0.0,-1.8574,0.0,0.0,0.0,0.0,0.0,0.0,0.0,0.0,0.0,0.0,0.0,-2.5379,-2.5742,-2.5942,-2.5688,-2.4334,-2.2662,0.0,-2.0013,-1.9107,-1.7568,0.0,0.0,0.0,0.0,0.0,-2.3269,-2.4128,-2.4774,-2.5516,-2.5597,-2.5308,-2.4547,-2.3885,-2.3188,-2.2442,-2.1438,-2.0963,-2.1171,-2.0046,-1.8804,0.0,0.0,0.0,0.0,0.0,0.0,0.0,0.0,0.0,0.0,0.0,0.0,0.0,0.0,0.0,0.0,0.0,0.0,0.0,0.0,0.0,0.0,0.0,0.0,0.0,0.0,0.0,0.0,-1.1364,-1.2816,-1.4111,-1.4949,-1.535,0.0,0.0,0.0,0.0,0.0,0.0,-1.764,-1.9421,-2.071,-2.1336,-2.2943,-2.3884,-2.4053,-2.4711,-2.5274,-2.5724,-2.5724,-2.6202,-2.7059,-2.7059,-2.7059,-2.7088,-2.7565,-2.7018,-2.5611,-2.4191,-2.2869,-2.1701,-2.1111,-2.0569,-2.0168,-2.0681,-2.0948,-2.1285,-2.2634,-2.2802,-2.232,-2.1566,0.0,-2.0098,-1.8742,0.0,0.0,0.0,0.0,-2.2873,-2.4739,-2.5515,-2.6026,-2.6734,-2.7174,-2.7391,-2.7267,-2.7026,-2.6182,0.0,-2.3153,-2.2376,-2.0822,0.0,0.0,0.0,0.0,-2.2135,-2.4241,-2.4661,-2.4984,-2.5532,-2.5597,-2.5371,-2.4822,-2.3998,-2.3269,-2.2718,-2.1891,-2.148,-2.1694,-2.1425,-2.0642,-1.9304,0.0,0.0,0.0,0.0,0.0,0.0,0.0,0.0,0.0,0.0,0.0,0.0,0.0,0.0,0.0,0.0,0.0,0.0,0.0,0.0,0.0,0.0,0.0,0.0,0.0,0.0,0.0,0.0,0.0,-1.7185,-1.6966,0.0,0.0,0.0,0.0,-1.7559,-1.918,-2.0175,-2.0288,-2.1986,-2.321,-2.3881,-2.5119,-2.6034,-2.661,-2.727,-2.7636,-2.7665,-2.7665,-2.7693,-2.7749,-2.7749,-2.7749,-2.7763,-2.7791,-2.7749,-2.7524,-2.5667,-2.4177,-2.2943,-2.2362,-2.2095,-2.2067,-2.2109,-2.2465,-2.2971,-2.3069,-2.3069,-2.314,-2.3727,-2.3473,-2.2901,-2.2802,-2.2419,0.0,0.0,-2.3818,-2.4557,-2.618,-2.6952,-2.7457,-2.815,-2.8465,-2.8482,-2.8059,-2.8144,-2.795,0.0,-2.5188,-2.4134,-2.4222,0.0,-2.3253,-2.3318,-2.3885,-2.4338,-2.4484,-2.5114,-2.5549,-2.5597,-2.5597,-2.5581,-2.5549,-2.429,-2.348,-2.3447,-2.2343,-2.1694,-2.1709,-2.2101,-2.1613,-2.0081,-1.8756,0.0,0.0,0.0,0.0,0.0,0.0,0.0,0.0,0.0,0.0,0.0,0.0,0.0,0.0,0.0,0.0,0.0,0.0,0.0,0.0,0.0,0.0,0.0,0.0,0.0,0.0,0.0,0.0,-1.8134,-1.9163,0.0,-2.0166,-2.0302,-2.0479,-2.0748,-2.1606,-2.2334,-2.279,-2.4134,-2.5177,-2.5809,-2.6652,-2.7243,-2.7425,-2.7693,-2.7805,-2.7805,-2.7805,-2.8016,-2.8366,-2.8366,-2.8366,-2.8394,-2.8788,-2.8507,-2.7791,-2.751,-2.6863,-2.6006,-2.5006,-2.4573,-2.4517,-2.4149,-2.4149,-2.4388,-2.4755,-2.4643,-2.4303,-2.4149,-2.3938,-2.3741,-2.3741,-2.3586,-2.3643,-2.465,-2.5218,-2.5799,-2.7075,-2.7738,-2.8104,-2.835,-2.8549,-2.8654,-2.8474,-2.8658,-2.878,-2.8549,-2.7293,-2.6186,-2.595,-2.5177,-2.4638,-2.4837,-2.4644,-2.4679,-2.5146,-2.5435,-2.5597,-2.5597,-2.5597,-2.5597,-2.5597,-2.4432,-2.3685,-2.3685,-2.2438,-2.1844,-2.2135,-2.2147,-2.2033,-2.1786,-2.0353,-1.8345,0.0,0.0,0.0,0.0,0.0,0.0,0.0,0.0,0.0,0.0,0.0,0.0,0.0,0.0,0.0,0.0,0.0,0.0,0.0,0.0,0.0,0.0,0.0,0.0,0.0,0.0,-1.8106,-1.9446,-2.084,-2.1787,-2.2082,-2.2432,-2.2823,-2.3247,-2.3752,-2.432,-2.4978,-2.5991,-2.6807,-2.7425,-2.786,-2.8213,-2.8394,-2.8394,-2.8394,-2.8394,-2.8394,-2.8605,-2.8998,-2.8998,-2.8998,-2.9026,-2.9434,-2.9153,-2.8422,-2.883,-2.8759,-2.8268,-2.7017,-2.6526,-2.6483,-2.6103,-2.5949,-2.6005,-2.6385,-2.63,-2.5892,-2.5471,-2.5203,-2.5021,-2.5021,-2.4866,-2.4848,-2.5517,-2.6083,-2.6667,-2.7364,-2.7989,-2.8411,-2.8411,-2.8501,-2.8605,-2.8685,-2.8842,-2.9052,-2.9328,-2.8477,-2.7661,-2.7458,-2.6583,-2.6038,-2.6273,-2.5757,-2.5509,-2.5921,-2.5895,-2.5779,-2.5629,-2.5597,-2.5597,-2.5597,-2.4432,-2.3736,-2.3803,-2.2546,-2.1974,-2.2377,-2.2301,-2.2381,-2.2699,-2.0928,-1.9154,-1.7397,0.0,0.0,0.0,0.0,0.0,0.0,0.0,0.0,0.0,0.0,0.0,0.0,0.0,0.0,0.0,0.0,0.0,0.0,0.0,0.0,0.0,0.0,0.0,-1.6979,-1.8454,-1.9985,-2.1298,-2.1958,-2.2531,-2.3126,-2.3196,-2.373,-2.4992,-2.5626,-2.6217,-2.6835,-2.7467,-2.8115,-2.8703,-2.8717,-2.9012,-2.9602,-2.9602,-2.9602,-2.9602,-2.9602,-2.9602,-2.9602,-2.9602,-2.9602,-2.9602,-2.9602,-2.9602,-2.9602,-2.9602,-2.9602,-2.949,-2.8282,-2.7833,-2.7833,-2.7819,-2.7805,-2.7805,-2.7805,-2.7805,-2.7805,-2.7805,-2.7355,-2.6835,-2.6835,-2.6427,-2.595,-2.5977,-2.6541,-2.7155,-2.7152,-2.779,-2.8427,-2.8411,-2.8411,-2.8444,-2.8653,-2.8685,-2.8779,-2.9029,-2.8726,-2.8511,-2.8763,-2.803,-2.748,-2.7676,-2.729,0.0,-2.6703,-2.6451,-2.6118,-2.564,-2.5597,-2.5597,-2.5597,-2.4322,-2.3583,-2.3786,-2.2683,-2.2115,-2.2391,-2.2596,-2.2699,-2.2699,-2.0492,-1.8993,-1.8269,0.0,0.0,0.0,0.0,0.0,0.0,0.0,0.0,0.0,0.0,0.0,0.0,0.0,0.0,0.0,0.0,0.0,0.0,0.0,0.0,0.0,0.0,-1.9908,-1.9486,-2.059,-2.1744,-2.2555,-2.3572,-2.4472,-2.5064,-2.5528,-2.6132,-2.6975,-2.7186,-2.7523,-2.8141,-2.8338,-2.8717,-2.9336,-2.935,-2.9434,-2.9602,-2.9602,-2.9602,-2.9602,-2.9602,-2.9602,-2.9602,-2.9602,-2.9602,-2.9602,-2.9602,-2.9602,-2.9602,-2.9602,-2.9602,-2.9532,-2.8745,-2.8436,-2.8394,-2.7974,-2.7805,-2.7805,-2.7805,-2.7805,-2.7805,-2.7805,-2.7693,-2.7538,-2.7538,-2.7426,-2.7342,-2.7641,-2.8129,-2.8503,-2.8319,-2.8677,-2.9012,-2.8519,-2.8411,-2.842,-2.8468,-2.8605,-2.8708,-2.8795,-2.8871,-2.8928,-2.8996,-2.823,-2.7706,-2.7894,-2.7379,0.0,-2.6268,-2.6132,-2.5902,-2.5432,-2.5371,-2.5429,-2.5597,-2.4449,-2.3752,-2.3803,-2.2683,-2.2115,-2.2391,-2.2446,-2.2555,-2.2699,-2.0992,-1.9998,0.0,0.0,0.0,0.0,0.0,0.0,0.0,0.0,0.0,0.0,0.0,0.0,0.0,0.0,0.0,0.0,0.0,0.0,0.0,0.0,0.0,0.0,-2.0182,-2.1828,-2.2278,-2.2939,-2.3502,-2.3842,-2.4994,-2.5879,-2.6245,-2.6849,-2.7481,-2.8143,-2.8199,-2.8422,-2.904,-2.9083,-2.9237,-2.9602,-2.9602,-2.9602,-2.9602,-2.9602,-2.9602,-2.9602,-2.9602,-2.9602,-2.9602,-2.9602,-2.9602,0.0,-2.9602,-2.9602,-2.9602,-2.9602,-2.9602,0.0,0.0,0.0,0.0,0.0,-2.8535,-2.8535,-2.8535,-2.8535,-2.8535,-2.8535,-2.8366,-2.8199,-2.8199,-2.8016,-2.7864,-2.8082,-2.8468,-2.883,-2.8857,-2.8981,-2.9053,-2.887,-2.8611,-2.8411,-2.8411,-2.8493,-2.8558,-2.8558,-2.8692,0.0,-2.8811,-2.842,-2.8209,-2.8421,-2.8046,-2.7542,-2.7084,-2.701,-2.6728,-2.5972,-2.5895,-2.5805,-2.5629,-2.4674,0.0,0.0,0.0,-2.2333,-2.2394,-2.2487,0.0,0.0,0.0,0.0,0.0,0.0,0.0,0.0,-1.9947,-2.0458,0.0,0.0,0.0,0.0,0.0,0.0,0.0,0.0,0.0,0.0,0.0,0.0,0.0,0.0,0.0,0.0,-2.1707,-2.3108,-2.4767,-2.5063,-2.5105,-2.5105,-2.6104,-2.6835,-2.6905,-2.7495,-2.8157,-2.8759,-2.8788,-2.904,-2.9574,0.0,0.0,0.0,0.0,-2.9743,-2.9813,-2.9813,-2.9813,-2.9813,-2.9743,-2.9757,-2.9813,-2.9743,-2.9757,-2.9813,-2.9743,-2.9715,-2.9715,-2.9645,-2.9602,-2.9602,-2.9602,-2.9602,-2.9602,-2.9602,-2.9602,-2.9602,-2.9602,0.0,0.0,-2.9602,-2.9237,-2.8788,-2.8788,-2.8422,-2.8016,-2.8016,-2.8353,-2.877,-2.9119,-2.9098,-2.9055,-2.9342,-2.8965,-2.8488,-2.8427,-2.8411,-2.8411,-2.8411,-2.8411,-2.8411,-2.8411,-2.8549,-2.8748,-2.8998,-2.8818,-2.8576,-2.8319,-2.8283,-2.7865,-2.6731,0.0,0.0,-2.5662,-2.492,-2.4606,-2.4834,-2.3572,-2.2769,-2.2649,-2.2822,-2.324,-2.3922,-2.3939,-2.4284,-2.5005,-2.5005,-2.5092,-2.5195,-2.2268,-2.2474,0.0,0.0,0.0,0.0,0.0,0.0,0.0,0.0,0.0,0.0,0.0,0.0,0.0,0.0,0.0,-2.2339,-2.3656,-2.4599,-2.495,-2.5428,-2.5725,-2.5725,-2.6357,-2.7017,-2.7537,-2.8141,-2.8774,-2.9378,-2.9434,-2.949,-2.9602,-2.9602,0.0,-3.0301,-3.0315,-3.06,-3.112,-3.112,-3.112,-3.112,0.0,0.0,-3.1106,-3.0586,-3.0628,-3.1092,-3.0572,-3.0315,-3.0273,-2.9813,-2.9602,-2.9602,-2.9602,-2.9602,-2.9602,-2.9602,-2.9602,-2.9602,-2.9602,-2.9602,-2.9602,-2.9602,-2.9532,-2.9434,-2.9434,-2.935,0.0,-2.9251,-2.9862,-3.0382,-2.9954,-3.0361,-3.0615,-2.9648,-2.9294,-2.9048,-2.8519,-2.8411,-2.8411,-2.8411,-2.8411,-2.8411,-2.8411,-2.842,-2.8468,-2.8517,-2.8493,-2.8245,-2.7682,-2.7589,-2.7219,-2.6249,-2.6132,-2.6003,-2.5643,-2.492,-2.4518,-2.4571,-2.3948,-2.3766,-2.4162,-2.4222,-2.4391,-2.4749,-2.4781,-2.485,-2.5005,-2.5005,-2.5643,-2.6799,-2.4971,-2.5109,0.0,0.0,0.0,0.0,0.0,0.0,0.0,0.0,0.0,0.0,0.0,-1.8911,-2.0133,0.0,-2.2615,-2.3853,-2.4599,-2.5217,-2.5809,-2.616,-2.6357,-2.6357,-2.6905,-2.7537,-2.8199,-2.8788,-2.9279,-2.9588,-2.9897,-3.0066,-3.0066,-3.0375,-3.0698,-3.0993,-3.1007,-3.1162,-3.1485,-3.1485,-3.1485,-3.1485,-3.1162,-3.1176,-3.1485,-3.1148,-3.1176,-3.1471,-3.1148,-3.1007,-3.0951,-3.0319,-3.0066,-3.0038,-2.9729,-2.9602,-2.9602,-2.9602,-2.9602,-2.9602,-2.9602,-2.9602,-2.9602,-2.9602,-2.9602,-2.9602,-2.9602,-2.9602,-2.9602,-2.9602,-3.0113,-3.063,-3.0543,-3.0775,-3.0933,-3.0499,-2.9904,-2.9294,-2.8956,-2.8642,-2.8411,-2.8411,-2.8411,-2.8411,-2.8411,-2.8411,-2.8411,-2.8411,-2.8493,-2.8425,-2.8085,-2.8155,-2.7934,-2.7087,-2.7127,-2.686,-2.6017,-2.5395,-2.4887,-2.4515,-2.4405,-2.4315,-2.421,-2.4461,-2.4832,-2.5345,-2.5483,-2.5747,-2.6143,-2.6523,-2.7092,-2.7833,-2.7437,-2.7885,0.0,0.0,0.0,0.0,0.0,0.0,0.0,0.0,-1.7946,-1.9129,-2.0316,-2.1434,-2.239,-2.3066,-2.387,-2.5147,-2.5358,-2.5725,-2.6835,-2.6989,-2.6989,-2.6989,-2.7565,-2.8185,-2.8647,-2.9251,-2.9602,-2.9602,-3.0147,-3.0498,-3.0498,-3.1134,-3.1541,-3.1668,-3.1668,-3.1724,-3.185,-3.185,-3.185,-3.185,-3.1724,-3.1738,-3.185,-3.1724,-3.1738,-3.1836,-3.1724,-3.1597,-3.1443,-3.0937,-3.061,-3.0441,-2.9968,-2.9715,-2.9602,-2.9602,-2.9602,-2.9602,-2.9602,-2.9602,-2.9602,-2.9602,-2.9602,-2.9602,-2.9602,-2.9602,-2.9602,-2.9602,-2.9991,-3.0523,-3.0911,-3.102,-3.1089,-3.1332,-3.0566,-2.9735,-2.9473,-2.8996,-2.8565,-2.8427,-2.8411,-2.8411,-2.8411,-2.8411,-2.8411,-2.8411,-2.8549,-2.8653,-2.8653,-2.8818,-2.8715,-2.8021,-2.818,-2.7796,-2.6483,-2.6034,-2.5503,-2.4758,-2.4906,-2.4786,-2.4247,-2.4644,-2.5187,-2.5892,-2.6131,-2.665,-2.7523,-2.8109,-2.8558,-2.8851,-2.9455,-3.0075,-1.4429,-1.4443,-1.5033,-1.7323,-1.7183,-1.7496,0.0,0.0,-2.1125,-2.2339,-2.3178,-2.3727,-2.3853,-2.4374,-2.5163,-2.6399,-2.661,-2.6849,-2.7594,-2.7693,-2.7693,-2.7693,-2.8241,-2.8619,-2.8675,-2.9251,-2.9602,-2.9602,-3.0147,-3.0498,-3.0498,-3.1134,-3.1738,-3.2286,-3.23,-3.2567,-3.3066,-3.308,-3.308,-3.3066,-3.2567,-3.2595,-3.3066,-3.2553,-3.2595,-3.3087,-3.2539,-3.2005,-3.1485,-3.1415,-3.1036,-3.0484,-3.0413,-3.0048,-2.9602,-2.9602,-2.9602,-2.9602,-2.9602,-2.9602,-2.9602,-2.9602,-2.9602,-2.9602,-2.9602,-2.9602,-2.9602,-2.9602,-3.0235,-3.094,-3.0999,-3.1592,-3.2066,-3.152,-3.1301,-3.0843,-2.9673,-2.9325,-2.9095,-2.8519,-2.8411,-2.8411,-2.8411,-2.8411,-2.8411,-2.8411,-2.842,-2.842,-2.842,-2.8468,-2.8301,-2.7781,-2.7935,-2.7667,-2.6719,-2.66,-2.6264,-2.5516,-2.5521,-2.5587,-2.5761,-2.5815,-2.6114,-2.6656,-2.6705,-2.7229,-2.8282,-2.8368,-2.9092,-3.0437,-3.0541,-3.061,-1.634,-1.6926,0.0,0.0,-1.9754,-2.0464,-2.2606,-2.2704,-2.2714,-2.3966,-2.443,-2.4725,-2.5091,-2.5358,-2.5795,0.0,-2.6807,-2.7158,-2.8169,-2.803,-2.7932,-2.8268,-2.8535,-2.8689,-2.8689,-2.9251,-2.9602,-2.9602,-3.053,-3.1078,-3.1078,-3.2019,-3.2665,-3.2932,-3.2932,-3.3059,-3.329,-3.329,-3.329,-3.329,-3.3059,-3.3073,-3.3276,-3.3059,-3.3073,-3.3276,-3.3045,-3.2792,-3.2525,-3.2174,-3.1864,-3.1541,-3.0778,-3.0343,-3.0062,-2.9743,-2.9602,-2.9602,-2.9602,-2.9602,-2.9602,-2.9602,-2.9602,-2.9602,-2.9602,-2.9602,-2.9602,-2.9602,-3.0083,-3.0583,-3.0583,-3.1277,-3.1903,-3.163,-3.1484,-3.1136,-3.0186,-2.9664,-2.9187,-2.8535,-2.8411,-2.8411,-2.8411,-2.8411,-2.8411,-2.8411,-2.8411,-2.8411,-2.8411,-2.8411,-2.8384,-2.8295,-2.8104,-2.792,-2.7703,-2.7074,-2.6571,-2.6264,-2.5824,-2.5637,-2.5768,-2.5917,-2.6388,-2.7247,-2.7419,-2.8015,-2.9041,-2.9506,-3.0058,-3.0696,-3.1127,-3.1334,-1.7941,0.0,0.0,-2.0906,-2.1791,-2.2634,-2.3435,-2.3617,-2.3926,-2.5035,-2.5133,-2.5189,-2.5781,-2.5753,0.0,-2.6919,-2.7074,-2.7509,-2.8774,-2.8422,-2.8227,-2.8647,-2.8689,-2.8689,-2.8689,-2.9251,-2.9602,-2.9602,-3.0783,-3.1485,-3.1485,-3.2651,-3.329,-3.329,-3.329,-3.329,-3.329,-3.329,-3.329,-3.329,-3.329,-3.329,-3.329,-3.329,-3.329,-3.329,-3.329,-3.329,-3.3262,-3.2848,-3.2553,-3.2314,-3.1368,-3.0792,-3.0441,-3.0024,-2.9757,-2.9602,-2.9602,-2.9602,-2.9602,-2.9602,-2.9602,-2.9602,-2.9602,-2.9602,-2.9602,-2.9602,-2.9929,-3.0282,-3.0282,-3.0999,-3.171,-3.171,-3.1698,-3.1428,-3.0571,-3.0017,-2.9417,-2.8581,-2.8411,-2.8411,-2.8411,-2.8411,-2.8411,-2.8411,-2.8411,-2.8411,-2.8411,-2.8411,-2.8493,-2.8677,-2.8396,-2.8252,-2.8387,-2.7649,-2.711,-2.6992,-2.6474,-2.618,-2.618,-2.6357,-2.6867,-2.7731,-2.8022,-2.8679,-2.9695,-3.0368,-3.08,-3.1025,-3.1541,-3.18,0.0,0.0,-2.0793,-2.2564,-2.3041,-2.3393,-2.4669,-2.495,-2.5133,-2.5725,-2.5428,-2.5189,-2.5781,-2.5428,-2.5639,-2.7482,-2.7777,-2.8199,-2.9406,-2.9055,-2.8675,-2.8689,-2.8689,-2.8689,0.0,-2.9251,-2.9602,-2.9602,-3.0783,-3.1485,-3.1485,-3.2651,-3.329,-3.329,-3.329,-3.329,-3.329,-3.329,-3.329,-3.329,-3.329,-3.329,-3.329,-3.329,-3.329,-3.329,-3.329,-3.329,-3.329,-3.3262,-3.2946,-3.2412,-3.237,-3.1597,-3.0498,-3.0469,-3.0091,-2.9602,-2.9602,-2.9602,-2.9602,-2.9602,-2.9602,-2.9602,-2.9602,-2.9602,-2.9602,-2.9602,-2.9929,-3.0282,-3.0282,-3.0999,-3.171,-3.171,-3.2048,-3.2013,-3.0678,-3.0386,-2.9971,-2.8673,-2.8411,-2.8411,-2.8411,-2.8411,-2.8411,-2.8411,-2.8411,-2.8411,-2.8411,-2.8411,-2.8493,-2.8677,-2.8693,-2.8606,-2.8419,-2.8366,-2.8148,-2.77,-2.7656,-2.764,-2.764,-2.764,-2.7781,-2.8079,-2.8427,-2.9115,-3.0173,-3.0536,-3.1058,-3.1765,-3.1783,-3.18,0.0,0.0,-2.2437,-2.3502,-2.4064,-2.4599,-2.5428,-2.5584,-2.5528,-2.5358,-2.4824,-2.4458,-2.4669,-2.4542,-2.5006,-2.6835,-2.7495,-2.8227,-2.9434,-2.9083,-2.8689,-2.8689,-2.8689,0.0,0.0,0.0,0.0,-2.9602,-3.0783,-3.1485,-3.1485,-3.2651,-3.329,-3.329,-3.329,-3.329,-3.329,-3.329,-3.329,-3.329,-3.329,-3.329,-3.329,-3.329,-3.329,-3.329,-3.329,-3.329,-3.329,-3.329,-3.3164,-3.2974,-3.2567,-3.1893,-3.112,-3.0652,-3.0105,-2.9602,-2.9602,-2.9602,-2.9602,-2.9602,-2.9602,-2.9602,-2.9602,-2.9602,-2.9602,-2.9602,-2.9727,-2.9851,-2.9851,-3.0523,-3.1234,-3.1234,-3.1823,-3.2151,-3.1259,-3.1059,-3.0797,-2.9894,-2.9381,-2.9048,-2.9048,-2.8704,-2.8411,-2.8411,-2.8411,-2.8411,-2.8411,-2.8411,-2.8436,-2.8477,-2.8771,-2.8934,-2.8881,-2.8746,-2.8613,-2.8433,-2.7964,-2.7705,-2.7705,-2.7705,-2.8078,-2.8876,-2.9013,-2.9559,-3.0594,-3.0921,-3.1227,-3.1485,-3.169,-3.2059,0.0,-2.2381,-2.367,-2.4528,-2.5035,-2.5428,-2.5809,-2.5725,-2.5428,-2.4795,-2.4008,-2.3417,-2.3417,-2.3234,-2.3839,-2.6104,-2.6835,-2.7692,-2.9378,-2.9083,-2.8858,-2.9293,-2.9153,-2.9195,0.0,0.0,0.0,-2.9954,-3.1106,-3.1822,-3.1822,-3.2778,-3.329,-3.329,-3.329,-3.329,-3.329,-3.329,-3.329,-3.329,-3.329,-3.329,-3.329,-3.329,-3.329,-3.329,-3.329,-3.329,-3.329,-3.329,-3.329,-3.322,-3.2651,-3.2033,-3.1415,-3.0769,-3.0105,-2.9602,-2.9602,-2.9602,-2.9602,-2.9602,-2.9602,-2.9602,-2.9602,-2.9602,-2.9602,-2.9602,-2.9602,-2.9602,-2.9602,-3.0282,-3.0999,-3.0999,-3.1709,-3.2213,-3.1536,-3.1409,-3.1197,-3.0525,-3.0048,-2.9664,-2.9433,-2.8833,-2.8411,-2.8411,-2.8411,-2.8411,-2.8411,-2.8411,-2.8411,-2.8411,-2.8668,-2.8928,-2.9091,-2.8981,-2.8989,-2.9178,-2.8741,-2.8482,-2.8482,-2.8482,-2.8818,-2.9484,-2.9609,-2.9988,-3.0625,-3.1064,-3.1295,-3.1315,-3.1653,-3.2196,-2.2676,-2.367,-2.4472,-2.5598,-2.5893,-2.5879,-2.5851,-2.54,-2.4767,-2.412,-2.2995,-2.2109,0.0,0.0,-2.2278,-2.5261,-2.5865,-2.6807,-2.9265,-2.9125,-2.9237,0.0,0.0,0.0,0.0,0.0,0.0,-3.0638,0.0,-3.2412,-3.2412,-3.2988,-3.329,-3.329,-3.329,-3.329,-3.329,-3.329,-3.329,-3.329,-3.329,-3.329,-3.329,-3.329,-3.329,-3.329,-3.329,-3.329,-3.329,-3.329,-3.329,-3.322,-3.2651,-3.2033,-3.1415,-3.0769,-3.0105,-2.9602,-2.9602,-2.9602,-2.9602,-2.9602,-2.9602,-2.9602,-2.9602,-2.9602,-2.9602,-2.9602,-2.9602,-2.9602,-2.9602,-3.0282,-3.0999,-3.0999,-3.1709,-3.2213,-3.1609,-3.1455,-3.1259,-3.0617,-3.0463,-3.0217,-2.951,-2.8904,-2.8488,-2.8411,-2.8427,-2.8442,-2.8411,-2.8411,-2.8411,-2.8411,-2.8396,-2.8612,-2.9029,-2.9075,-2.9305,-2.9852,-2.9874,-2.9874,-2.9896,-2.9896,-2.9896,-2.9896,-3.0135,-3.0288,-3.0288,-3.0925,-3.1257,-3.1276,-3.1634,-3.2195,-2.3586,-2.4627,-2.55,-2.5809,-2.5893,-2.5767,-2.5344,-2.4767,-2.4008,-2.2911,-2.1715,-2.0709,-2.021,0.0,0.0,-2.3533,-2.5359,0.0,-2.9321,-2.9855,0.0,0.0,0.0,-3.1134,-3.1457,-3.1907,0.0,0.0,-3.223,-3.2412,-3.2412,-3.2988,-3.329,-3.329,-3.329,-3.329,-3.329,-3.329,-3.329,-3.329,-3.329,-3.329,-3.329,-3.329,-3.329,-3.329,-3.329,-3.329,-3.329,-3.329,-3.329,-3.322,-3.2651,-3.2033,-3.1415,-3.0769,-3.0105,-2.9602,-2.9602,-2.9602,-2.9602,-2.9602,-2.9602,-2.9602,-2.9602,-2.9602,-2.9602,-2.9602,-2.9602,-2.9602,-2.9602,-3.0282,-3.0999,-3.0999,-3.1709,-3.2336,-3.2167,-3.2136,-3.209,-3.1921,-3.149,-3.0766,-2.9612,-2.9664,-2.9541,-2.855,-2.8842,-2.8965,-2.8473,-2.8411,-2.8411,-2.8411,-2.8525,-2.8677,-2.8779,-2.8982,-2.9236,-2.9576,-2.9418,-2.9396,-2.9582,-2.9598,-2.9598,-2.9598,-2.9864,-2.9995,-2.9995,-3.0372,-3.0666,-3.0945,-3.1276,-3.228,-2.4317,-2.5189,-2.5893,-2.5893,-2.5697,-2.5358,-2.4739,-2.3909,-2.2826,-2.1285,-2.0442,0.0,-1.8428,0.0,0.0,0.0,0.0,0.0,-2.89,-2.9968,-3.0769,0.0,-3.1724,0.0,-3.2258,-3.2609,-3.2806,0.0,-3.2806,-3.2806,-3.2806,-3.3108,-3.329,-3.329,-3.329,-3.329,-3.329,-3.329,-3.329,-3.329,-3.329,-3.329,-3.329,-3.329,-3.329,-3.329,0.0,-3.329,-3.329,-3.329,-3.329,-3.3192,-3.2342,-3.1794,-3.1373,-3.0459,-2.9897,-2.9602,-2.9602,-2.9602,-2.9602,-2.9602,-2.9602,-2.9602,-2.9602,-2.9602,-2.9602,-2.9602,-2.9602,-2.9602,-2.9602,-3.0282,-3.0999,-3.0999,-3.1709,-3.2398,-3.2398,-3.2398,-3.2398,-3.2398,-3.1844,-3.1151,-3.0412,-3.0104,-2.9694,-2.8965,-2.8919,-2.8842,-2.8458,-2.8411,-2.8411,-2.8411,-2.8501,-2.8605,-2.8685,-2.8842,-2.9052,-2.9305,-2.9167,-2.9167,-2.9328,-2.9425,-2.9493,-2.9493,-2.977,-2.9896,-2.9896,-3.0177,-3.046,-3.0804,-3.1142,-3.2325,-2.4964,-2.5486,-2.5893,-2.5893,-2.543,-2.4824,-2.412,-2.2925,-2.144,-1.9663,0.0,-1.8554,-1.6986,0.0,-1.9901,-2.1786,0.0,-2.578,-2.8338,-2.9757,-3.0797,-3.1527,-3.2145,-3.2736,-3.3234,-3.329,-3.329,-3.329,-3.329,-3.329,-3.329,-3.329,-3.329,-3.329,-3.329,-3.329,-3.329,-3.329,-3.329,-3.329,-3.329,-3.329,-3.329,-3.329,-3.329,-3.329,0.0,0.0,-3.329,-3.329,-3.329,-3.3164,-3.1963,-3.1485,-3.1345,-3.008,-2.9602,-2.9602,-2.9602,-2.9602,-2.9602,-2.9602,-2.9602,-2.9602,-2.9602,-2.9602,-2.9602,-2.9602,-2.9602,-2.9602,-2.9602,-3.0266,-3.0911,-3.0999,-3.168,-3.2315,-3.2398,-3.2398,-3.2398,-3.2398,-3.1921,-3.1516,-3.1424,-3.0443,-2.9612,-2.9417,-2.8919,-2.8504,-2.8411,-2.8411,-2.8411,-2.8411,-2.8411,-2.8468,-2.8653,-2.8653,-2.8771,-2.9029,-2.9006,-2.9006,-2.9052,-2.9266,-2.9403,-2.9448,-2.971,-2.9858,-2.9896,-3.0177,-3.046,-3.0804,-3.1142,-3.2325,-2.557,-2.5809,-2.5893,-2.5893,-2.543,-2.4711,-2.3533,-2.1931,0.0,0.0,0.0,-1.7056,-1.6765,-1.7773,0.0,-2.1139,0.0,0.0,0.0,0.0,-3.0919,0.0,0.0,0.0,0.0,0.0,0.0,0.0,0.0,0.0,-3.329,-3.329,-3.329,-3.329,-3.329,-3.329,-3.329,-3.329,-3.329,-3.329,-3.329,-3.329,-3.329,-3.329,-3.329,-3.329,-3.329,0.0,-3.329,-3.329,-3.329,-3.3164,-3.1963,-3.1485,-3.1345,-3.008,-2.9602,-2.9602,-2.9602,-2.9602,-2.9602,-2.9602,-2.9602,-2.9602,-2.9602,-2.9602,-2.9602,-2.9602,-2.9602,-2.9602,-2.9602,-3.0021,-3.0523,-3.0911,-3.1437,-3.1923,-3.2315,-3.2398,-3.2398,-3.2398,-3.2305,-3.2044,-3.1516,-3.1197,-3.0674,-2.9556,-2.9294,-2.9042,-2.8473,-2.8411,-2.8411,-2.8411,-2.8411,-2.8396,-2.8444,-2.8444,-2.8549,-2.8756,-2.8621,-2.8597,-2.8756,-2.8803,-2.8943,-2.9167,-2.9441,-2.9665,-2.9896,-3.0177,-3.046,-3.0804,-3.1142,-3.2325,-2.5725,-2.5893,-2.5893,-2.5893,-2.4938,-2.3758,-2.2831,0.0,0.0,0.0,0.0,-1.6512,-1.582,0.0,0.0,0.0,0.0,0.0,0.0,0.0,0.0,0.0,0.0,0.0,0.0,0.0,0.0,0.0,0.0,0.0,-3.329,-3.329,-3.329,-3.329,-3.329,-3.329,-3.329,-3.329,-3.329,-3.329,-3.329,-3.329,-3.329,-3.329,-3.329,-3.329,-3.329,0.0,-3.329,-3.329,-3.3094,-3.275,-3.185,-3.1288,-3.0881,-2.9954,-2.9602,-2.9602,-2.9602,-2.9602,-2.9602,-2.9602,-2.9602,-2.9602,-2.9602,-2.9602,-2.9602,-2.9602,-2.9602,-2.9602,-2.9602,-2.996,-3.0433,-3.0881,-3.1552,-3.212,-3.2342,-3.2398,-3.2398,-3.2398,-3.2105,-3.1794,-3.147,-3.0812,-3.0151,-2.9504,-2.9119,-2.8765,-2.8442,-2.8411,-2.8411,-2.8411,-2.8411,-2.8411,-2.8411,-2.8411,-2.8444,-2.8549,-2.8444,-2.8444,-2.8549,-2.8653,-2.8756,-2.8889,-2.9289,-2.956,-2.9687,-3.0097,-3.046,-3.0804,-3.1142,-3.2325,-2.5528,-2.5795,-2.5893,-2.5893,-2.4488,-2.2901,-2.2156,-2.0091,0.0,0.0,0.0,-1.6033,-1.5159,0.0,0.0,0.0,0.0,0.0,0.0,0.0,0.0,0.0,0.0,0.0,0.0,0.0,0.0,0.0,0.0,0.0,-3.329,-3.329,-3.329,-3.329,-3.329,-3.329,-3.329,-3.329,-3.329,-3.329,-3.329,-3.329,-3.329,-3.329,-3.329,-3.329,-3.329,0.0,0.0,-3.315,-3.2848,-3.2328,-3.1583,-3.0965,-3.0413,-2.9827,-2.9602,-2.9602,-2.9602,-2.9602,-2.9602,-2.9602,-2.9602,-2.9602,-2.9602,-2.9602,-2.9602,-2.9602,-2.9602,-2.9602,-2.9602,-2.9867,-3.0282,-3.0866,-3.1623,-3.2287,-3.237,-3.2398,-3.2398,-3.2398,-3.1844,-3.1409,-3.1409,-3.0289,-2.9387,-2.9387,-2.8842,-2.8411,-2.8411,-2.8411,-2.8411,-2.8411,-2.8411,-2.8411,-2.8411,-2.8411,-2.8411,-2.8411,-2.8411,-2.8411,-2.8411,-2.8549,-2.8653,-2.8708,-2.9175,-2.9425,-2.9493,-3.0032,-3.0439,-3.0686,-3.1103,-3.2286,-2.4922,-2.5472,-2.5893,-2.5893,-2.4488,-2.2802,-2.165,0.0,0.0,0.0,-1.5354,-1.5117,-1.5536,0.0,0.0,0.0,0.0,0.0,0.0,0.0,0.0,0.0,0.0,0.0,0.0,0.0,0.0,0.0,0.0,0.0,0.0,-3.329,-3.329,-3.329,-3.329,-3.329,-3.329,-3.329,-3.329,-3.329,-3.329,-3.329,-3.329,-3.329,-3.329,-3.329,-3.329,0.0,0.0,-3.2721,-3.2455,-3.2286,-3.1078,-3.054,-3.0413,-2.9827,-2.9602,-2.9602,-2.9602,-2.9602,-2.9602,-2.9602,-2.9602,-2.9602,-2.9602,-2.9602,-2.9602,-2.9602,-2.9602,-2.9602,-2.9602,-2.9634,-2.9898,-3.0792,-3.1379,-3.1866,-3.2315,-3.2398,-3.2398,-3.2398,-3.1844,-3.1409,-3.1409,-3.0289,-2.9387,-2.9387,-2.8842,-2.8411,-2.8411,-2.8411,-2.8411,-2.8411,-2.8411,-2.8411,-2.8411,-2.8411,-2.8411,-2.8411,-2.8411,-2.8411,-2.8411,-2.842,-2.8501,-2.8685,-2.8982,-2.9259,-2.9493,-3.0032,-3.0314,-3.0356,-3.1004,-3.2151,-2.4627,-2.5189,-2.5372,-2.5372,-2.3966,-2.2226,-2.1032,0.0,-1.6803,-1.5887,-1.5214,-1.4878,-1.5101,-1.5452,-1.6154,0.0,-1.8077,0.0,0.0,0.0,0.0,0.0,0.0,0.0,0.0,0.0,0.0,0.0,0.0,0.0,0.0,-3.329,-3.329,-3.329,-3.329,-3.329,-3.329,-3.329,-3.329,-3.329,-3.329,-3.329,-3.329,-3.329,-3.329,-3.329,-3.329,0.0,0.0,-3.2511,-3.1963,-3.1232,-3.0694,-3.0273,-2.994,-2.9701,-2.9602,-2.9602,-2.9602,-2.9602,-2.9602,-2.9602,-2.9602,-2.9602,-2.9602,-2.9602,-2.9602,-2.9602,-2.9602,-2.9602,-2.9602,-2.982,-3.0205,-3.0851,-3.135,-3.1838,-3.2315,-3.2398,-3.2398,-3.2398,-3.1536,-3.0812,-3.0812,-2.9689,-2.8812,-2.8812,-2.8581,-2.8411,-2.8411,-2.8411,-2.8411,-2.8411,-2.8411,-2.8411,-2.8411,-2.8411,-2.8411,-2.8411,-2.8411,-2.8411,-2.8411,-2.8411,-2.8444,-2.8525,-2.8748,-2.899,-2.9259,-2.9853,-3.0182,-3.0314,-3.0985,-3.2131,-2.3727,-2.4444,-2.4725,-2.4725,-2.3319,-2.1617,0.0,0.0,-1.6452,-1.5607,-1.5087,-1.4808,-1.4808,-1.5144,-1.5705,0.0,-1.7056,-1.825,-2.0936,0.0,0.0,0.0,0.0,0.0,0.0,0.0,0.0,0.0,0.0,0.0,0.0,-3.329,-3.329,-3.329,-3.329,-3.329,-3.329,-3.329,-3.329,-3.329,-3.329,-3.329,-3.3276,-3.3108,-3.3045,-3.3031,0.0,0.0,0.0,-3.1921,-3.1298,-3.0469,-3.0287,-2.9982,-2.9602,-2.9602,-2.9602,-2.9602,-2.9602,-2.9602,-2.9602,-2.9602,-2.9602,-2.9602,-2.9602,-2.9602,-2.9602,-2.9602,-2.9602,-2.9602,-2.9602,-2.9851,-3.019,-3.0673,-3.1146,-3.161,-3.2092,-3.2315,-3.2336,-3.2136,-3.1182,-3.034,-3.014,-2.9156,-2.8411,-2.8411,-2.8411,-2.8411,-2.8411,-2.8411,-2.8411,-2.8411,-2.8411,-2.8411,-2.8411,-2.8411,-2.8411,-2.8411,-2.8411,-2.8411,-2.8411,-2.8411,-2.8411,-2.8411,-2.8605,-2.8842,-2.9098,-2.9627,-2.9984,-3.0182,-3.0744,-3.1874,-2.1912,-2.315,-2.4092,-2.4092,-2.2686,-2.097,0.0,-1.8012,-1.6343,-1.5075,-1.4808,-1.4808,-1.4808,-1.4808,-1.5216,-1.6497,-1.6708,-1.7777,0.0,0.0,0.0,0.0,0.0,0.0,0.0,0.0,0.0,0.0,0.0,0.0,0.0,-3.329,-3.329,-3.329,-3.329,-3.329,-3.329,-3.329,-3.329,-3.329,-3.329,-3.329,-3.3262,-3.2693,-3.2412,0.0,0.0,0.0,0.0,-3.0797,-3.0498,-3.0427,-2.9855,-2.9617,-2.9602,-2.9602,-2.9602,-2.9602,-2.9602,-2.9602,-2.9602,-2.9602,-2.9602,-2.9602,-2.9602,-2.9602,-2.9602,-2.9602,-2.9602,-2.9602,-2.9602,-2.9602,-2.9727,-3.0205,-3.0673,-3.1146,-3.1625,-3.2064,-3.2198,-3.1547,-3.0859,-3.0186,-2.951,-2.8858,-2.8411,-2.8411,-2.8411,-2.8411,-2.8411,-2.8411,-2.8411,-2.8411,-2.8411,-2.8411,-2.8411,-2.8411,-2.8411,-2.8411,-2.8411,-2.8411,-2.8411,-2.8411,-2.8411,-2.8411,-2.8605,-2.8842,-2.9098,-2.9357,-2.9643,-2.9902,-3.0177,-3.1281,-2.007,-2.092,-2.1454,-2.1004,-2.0456,-1.9564,-1.7927,-1.7098,-1.6343,-1.5061,-1.4808,-1.4808,-1.4808,-1.4808,-1.5356,-1.7042,0.0,0.0,0.0,0.0,0.0,0.0,0.0,0.0,0.0,0.0,0.0,0.0,0.0,0.0,0.0,-3.23,-3.2455,-3.3262,-3.329,-3.329,-3.329,-3.329,-3.329,-3.329,-3.289,-3.2693,-3.2665,-3.2061,0.0,0.0,0.0,0.0,0.0,-3.0582,-3.0245,-2.9883,-2.9673,-2.9602,-2.9602,-2.9602,-2.9602,-2.9602,-2.9602,-2.9602,-2.9602,-2.9602,-2.9602,-2.9602,-2.9602,-2.9602,-2.9602,-2.9602,-2.9602,-2.9602,-2.9602,-2.9602,-2.9727,-3.0205,-3.0403,-3.0732,-3.1523,-3.1824,-3.181,-3.1467,-3.0859,-3.0186,-2.951,-2.8833,-2.8411,-2.8411,-2.8411,-2.8411,-2.8411,-2.8411,-2.8411,-2.8411,-2.8411,-2.8411,-2.8411,-2.8411,-2.8411,-2.8411,-2.8411,-2.8411,-2.8411,-2.8411,-2.8411,-2.8411,-2.8468,-2.8597,-2.8842,-2.9098,-2.956,-3.0194,-3.1287,-3.2238,0.0,-1.9017,-1.9564,-1.9157,-1.8891,-1.8372,-1.7,-1.6494,-1.6031,-1.5019,-1.4808,-1.4808,-1.4808,-1.4808,-1.5342,-1.6986,0.0,0.0,0.0,0.0,0.0,0.0,0.0,0.0,0.0,0.0,0.0,0.0,0.0,0.0,0.0,0.0,-3.1836,-3.2609,-3.2623,-3.2623,-3.2623,-3.2623,-3.2623,-3.2623,-3.2244,-3.2061,-3.2033,-3.1415,0.0,0.0,0.0,0.0,0.0,-3.0147,-2.9954,-2.9602,-2.9602,-2.9602,-2.9602,-2.9602,-2.9602,-2.9602,-2.9602,-2.9602,-2.9602,-2.9602,-2.9602,-2.9602,-2.9602,-2.9602,-2.9602,-2.9602,-2.9602,-2.9602,-2.9602,-2.9602,-2.9665,-2.996,-3.0174,-3.0463,-3.1058,-3.1437,-3.1509,-3.0887,-3.0558,-3.0109,-2.9171,-2.8688,-2.8411,-2.8411,-2.8411,-2.8411,-2.8411,-2.8411,-2.8411,-2.8411,-2.8411,-2.8411,-2.8411,-2.8411,-2.8411,-2.8411,-2.8411,-2.8411,-2.8411,-2.8411,-2.8411,-2.8411,-2.8411,-2.8517,-2.8708,-2.9059,-2.956,-3.0167,-3.1641,-3.2409,0.0,-1.7253,-1.8161,-1.8119,-1.774,-1.7239,-1.6652,-1.6087,0.0,-1.4921,-1.4808,-1.4836,-1.4921,-1.4907,-1.5314,-1.668,0.0,0.0,0.0,0.0,0.0,0.0,0.0,0.0,0.0,0.0,0.0,0.0,0.0,0.0,0.0,0.0,-3.1359,-3.1359,-3.1359,-3.1401,-3.1485,-3.1485,-3.1485,-3.1485,-3.1443,-3.1429,-3.1401,-3.0755,0.0,0.0,0.0,0.0,0.0,-2.9602,-2.9602,-2.9602,-2.9602,-2.9602,-2.9602,-2.9602,-2.9602,-2.9602,-2.9602,-2.9602,-2.9602,-2.9602,-2.9602,-2.9602,-2.9602,-2.9602,-2.9602,-2.9602,-2.9602,-2.9602,-2.9602,-2.9602,-2.9602,-2.9602,-2.9929,-3.0266,-3.0282,-3.0999,-3.1277,-3.0027,-3.0129,-2.9986,-2.8704,-2.8442,-2.8411,-2.8411,-2.8411,-2.8411,-2.8411,-2.8411,-2.8411,-2.8411,-2.8411,-2.8411,-2.8411,-2.8411,-2.8411,-2.8411,-2.8411,-2.8411,-2.8411,-2.8411,-2.8411,-2.8411,-2.8396,-2.8525,-2.8732,-2.9243,-2.9643,-2.9913,-3.1283,-3.1963,-1.2982,0.0,-1.4864,-1.4402,-1.4878,-1.53,0.0,-1.5159,-1.5536,0.0,0.0,-1.5103,-1.6059,-1.5834,-1.621,0.0,0.0,0.0,0.0,0.0,0.0,0.0,0.0,0.0,0.0,0.0,0.0,0.0,0.0,0.0,0.0,0.0,-3.0052,-3.0052,-3.0052,-3.0516,-3.1485,-3.1485,-3.1485,-3.1485,-3.0993,-3.0755,-3.0694,-3.0076,0.0,0.0,0.0,0.0,-2.9602,-2.9602,-2.9602,-2.9602,-2.9602,-2.9602,-2.9602,-2.9602,-2.9602,-2.9602,-2.9602,-2.9602,-2.9602,-2.9602,-2.9602,-2.9602,-2.9602,-2.9602,-2.9602,-2.9602,-2.9602,-2.9602,-2.9602,-2.9602,-2.9602,-2.9602,-2.9696,-2.9867,-3.0221,-3.0762,-3.1025,-3.0558,-3.0422,-3.014,-2.9294,-2.875,-2.8411,-2.8411,-2.8411,-2.8411,-2.8411,-2.8411,-2.8411,-2.8411,-2.8411,-2.8411,-2.8411,-2.8411,-2.8411,-2.8411,-2.8411,-2.8411,-2.8411,-2.8411,-2.8411,-2.8411,-2.8549,-2.8748,-2.9006,-2.9335,-2.9643,-2.9913,-3.0765,-3.1454,-1.1591,-1.2912,-1.4218,-1.391,-1.4527,-1.5129,-1.4808,0.0,0.0,0.0,0.0,0.0,-1.6059,0.0,0.0,0.0,0.0,0.0,0.0,0.0,0.0,0.0,0.0,0.0,0.0,0.0,0.0,0.0,0.0,0.0,0.0,0.0,-2.9602,-2.9602,-2.9602,-2.994,-3.0614,-3.0628,-3.0628,-3.0614,-3.0263,-3.0076,-3.0062,-2.9757,-2.9602,0.0,0.0,0.0,-2.9602,-2.9602,-2.9602,-2.9602,-2.9602,-2.9602,-2.9602,-2.9602,-2.9602,-2.9602,-2.9602,-2.9602,-2.9602,-2.9602,-2.9602,-2.9602,-2.9602,-2.9602,-2.9602,-2.9602,-2.9602,-2.9602,-2.9602,-2.9602,-2.9602,-2.9602,-2.9602,-2.9727,-3.0205,-3.0673,-3.0865,-3.0336,-3.0316,-3.0079,-2.9095,-2.8642,-2.8411,-2.8411,-2.8411,-2.8411,-2.8411,-2.8411,-2.8411,-2.8411,-2.8411,-2.8411,-2.8411,-2.8411,-2.8411,-2.8411,-2.8411,-2.8411,-2.8411,-2.8411,-2.8411,-2.8411,-2.8501,-2.8677,-2.8912,-2.919,-2.9464,-2.9742,-3.0519,-3.1292,-1.1336,-1.3052,-1.4766,-1.4569,-1.5115,-1.5705,-1.5705,0.0,0.0,0.0,0.0,0.0,0.0,0.0,0.0,0.0,0.0,0.0,0.0,0.0,0.0,0.0,0.0,0.0,0.0,0.0,0.0,0.0,0.0,0.0,0.0,0.0,0.0,-2.9602,-2.9602,-2.9602,-2.9602,-2.9602,-2.9602,-2.9602,-2.9602,-2.9602,-2.9602,-2.9602,-2.9602,0.0,0.0,0.0,-2.9602,-2.9602,-2.9602,-2.9602,-2.9602,-2.9602,-2.9602,-2.9602,-2.9602,-2.9602,-2.9602,-2.9602,-2.9602,-2.9602,-2.9602,-2.9602,-2.9602,-2.9602,-2.9602,-2.9602,-2.9602,-2.9602,-2.9602,-2.9602,-2.9602,-2.9602,-2.9602,-2.9696,-3.0113,-3.0613,-3.0762,-2.9924,-3.0107,-3.0002,-2.8781,-2.8473,-2.8411,-2.8411,-2.8411,-2.8411,-2.8411,-2.8411,-2.8411,-2.8411,-2.8411,-2.8411,-2.8411,-2.8411,-2.8411,-2.8411,-2.8411,-2.8411,-2.8411,-2.8411,-2.8411,-2.8411,-2.842,-2.8525,-2.8708,-2.8982,-2.9213,-2.9464,-3.0344,-3.116,-1.2418,-1.3741,-1.4555,-1.353,-1.4499,-1.5705,-1.5705,0.0,0.0,0.0,0.0,0.0,0.0,0.0,0.0,0.0,0.0,0.0,0.0,0.0,0.0,0.0,0.0,0.0,0.0,0.0,0.0,0.0,0.0,0.0,0.0,0.0,0.0,-2.9602,-2.9602,-2.9602,-2.9602,-2.9602,-2.9602,-2.9602,-2.9602,-2.9602,-2.9602,-2.9602,-2.9602,0.0,0.0,-2.9602,-2.9602,-2.9602,-2.9602,-2.9602,-2.9602,-2.9602,-2.9602,-2.9602,-2.9602,-2.9602,-2.9602,-2.9602,-2.9602,-2.9602,-2.9602,-2.9602,-2.9602,-2.9602,-2.9602,-2.9602,-2.9602,-2.9602,-2.9602,-2.9602,-2.9602,-2.9602,-2.9602,-2.9602,-2.9696,-3.0372,-3.0807,-3.0084,-3.0196,-3.014,-2.9371,-2.8781,-2.8411,-2.8411,-2.8411,-2.8411,-2.8411,-2.8411,-2.8411,-2.8411,-2.8411,-2.8411,-2.8411,-2.8411,-2.8411,-2.8411,-2.8411,-2.8411,-2.8411,-2.8411,-2.8411,-2.8411,-2.8573,-2.8677,-2.8708,-2.8982,-2.9121,-2.9183,-2.9887,-3.0608,-1.1814,-1.3122,-1.426,-1.4036,-1.5609,-1.7207,-1.7207,0.0,0.0,0.0,0.0,0.0,0.0,0.0,0.0,0.0,0.0,0.0,0.0,0.0,0.0,0.0,0.0,0.0,0.0,0.0,0.0,0.0,0.0,0.0,0.0,0.0,0.0,-2.9602,-2.9602,-2.9602,-2.9602,-2.9602,-2.9602,-2.9602,-2.9602,-2.9602,-2.9602,-2.9602,-2.9602,-2.9602,0.0,-2.9602,-2.9602,-2.9602,-2.9602,-2.9602,-2.9602,-2.9602,-2.9602,-2.9602,-2.9602,-2.9602,-2.9602,-2.9602,-2.9602,-2.9602,-2.9602,-2.9602,-2.9602,-2.9602,-2.9602,-2.9602,-2.9602,-2.9602,-2.9602,-2.9602,-2.9602,-2.9602,-2.9602,-2.9665,-2.9929,-3.0053,-3.0003,-2.9573,-2.9514,-2.9311,-2.8642,-2.8449,-2.8411,-2.8411,-2.8411,-2.8411,-2.8411,-2.8411,-2.8411,-2.8411,-2.8411,-2.8411,-2.8411,-2.8411,-2.8411,-2.8411,-2.8411,-2.8411,-2.8411,-2.8411,-2.8411,-2.8411,-2.8493,-2.8549,-2.8549,-2.8771,-2.8873,-2.8905,-2.9706,-3.0488,-1.1462,-1.27,-1.4092,-1.4822,0.0,-1.8217,-1.8807,0.0,0.0,0.0,0.0,0.0,0.0,0.0,0.0,0.0,0.0,0.0,0.0,0.0,0.0,0.0,0.0,0.0,0.0,0.0,0.0,0.0,0.0,0.0,0.0,0.0,0.0,-2.9602,-2.9462,-2.9462,-2.9602,-2.9462,-2.9462,-2.9602,-2.9602,-2.9602,-2.9602,-2.9602,-2.9602,-2.9602,-2.9602,-2.9602,-2.9602,-2.9602,-2.9602,-2.9602,-2.9602,-2.9602,-2.9602,-2.9602,-2.9602,-2.9602,-2.9602,-2.9602,-2.9602,-2.9602,-2.9602,-2.9602,-2.9602,-2.9504,-2.9392,-2.9392,-2.9392,-2.942,-2.956,-2.9602,-2.9602,-2.9602,-2.9602,-2.9654,-2.9866,-2.9662,-2.9291,-2.8956,-2.8827,-2.8625,-2.8036,-2.8201,-2.8411,-2.8411,-2.8411,-2.8411,-2.8411,-2.8411,-2.8411,-2.8411,-2.8411,-2.8411,-2.8411,-2.8411,-2.8411,-2.8411,-2.8411,-2.8411,-2.8411,-2.8411,-2.8411,-2.8411,-2.8411,-2.8411,-2.8411,-2.8549,-2.8629,-2.8645,-2.9531,-3.0239,-1.2545,-1.3361,-1.4176,-1.534,-1.6241,0.0,-1.974,0.0,0.0,0.0,0.0,0.0,0.0,0.0,0.0,0.0,0.0,0.0,0.0,0.0,0.0,0.0,0.0,0.0,0.0,0.0,0.0,0.0,0.0,0.0,0.0,0.0,0.0,-2.9588,-2.9055,-2.9026,-2.9602,-2.904,-2.9055,-2.9602,-2.9602,-2.9602,-2.9602,-2.9602,-2.9602,-2.9602,-2.9602,-2.9602,-2.9602,-2.9602,-2.9602,-2.9602,-2.9602,-2.9602,-2.9602,-2.9602,-2.9602,-2.9602,-2.9602,-2.9602,-2.9602,-2.9602,-2.9602,-2.9602,-2.9602,-2.9209,-2.8759,-2.8759,-2.8759,-2.8886,-2.9462,-2.9602,-2.9602,-2.9602,-2.9602,-2.9462,-2.8947,-2.9123,-2.916,-2.8341,-2.8513,-2.8702,-2.8422,-2.8372,-2.8411,-2.8411,-2.8411,-2.8411,-2.8411,-2.8411,-2.8411,-2.8411,-2.8411,-2.8411,-2.8411,-2.8411,-2.8411,-2.8411,-2.8411,-2.8411,-2.8411,-2.8411,-2.8411,-2.8411,-2.8411,-2.8411,-2.8411,-2.8396,-2.842,-2.8451,-2.9138,-2.9493,-1.1687,-1.3108,-1.4569,-1.5033,0.0,0.0,0.0,0.0,0.0,0.0,0.0,0.0,0.0,0.0,0.0,0.0,0.0,0.0,0.0,0.0,0.0,0.0,0.0,0.0,0.0,0.0,0.0,0.0,0.0,0.0,0.0,0.0,0.0,-2.8464,-2.8269,-2.8269,-2.8464,-2.8269,-2.8269,-2.8478,-2.8858,-2.883,-2.8478,-2.8872,-2.904,-2.904,-2.904,-2.904,-2.9012,-2.8633,-2.8464,-2.8507,-2.8886,-2.904,-2.9083,-2.9462,-2.9602,-2.9602,-2.9602,-2.9602,-2.9602,-2.9602,-2.9602,-2.9532,-2.9153,-2.8872,-2.8605,-2.8269,-2.8157,-2.8268,-2.8872,-2.9321,-2.9602,-2.9602,-2.9307,-2.897,-2.8745,-2.8218,-2.7769,-2.7684,-2.7706,-2.7793,-2.7985,-2.8226,-2.8411,-2.8411,-2.8411,-2.8411,-2.8411,-2.8411,-2.8411,-2.8411,-2.8411,-2.8411,-2.8411,-2.8411,-2.8411,-2.8411,-2.8411,-2.8411,-2.8411,-2.8411,-2.8411,-2.8411,-2.8411,-2.8411,-2.8411,-2.8411,-2.8411,-2.8427,-2.9104,-2.9387,-1.1702,-1.3361,-1.5129,0.0,0.0,0.0,0.0,0.0,0.0,0.0,0.0,0.0,0.0,0.0,0.0,0.0,0.0,0.0,0.0,0.0,0.0,0.0,0.0,0.0,0.0,0.0,0.0,0.0,0.0,0.0,0.0,0.0,0.0,0.0,-2.7579,-2.7608,-2.7805,-2.7608,-2.7467,-2.7481,-2.7888,-2.7987,-2.7819,-2.8241,-2.8408,-2.8408,-2.8408,-2.8408,-2.8366,-2.7974,-2.7805,-2.7847,-2.8269,-2.8408,-2.8478,-2.9083,-2.9321,-2.935,-2.9532,-2.9602,-2.9574,-2.9378,-2.9321,-2.9195,-2.8591,-2.8254,-2.8015,-2.7593,-2.7467,-2.7565,-2.7987,-2.8703,-2.9321,-2.9321,-2.8998,-2.8647,-2.845,-2.7565,-2.6849,-2.7078,-2.7117,-2.7265,-2.7715,-2.8128,-2.8411,-2.8411,-2.8411,-2.8411,-2.8411,-2.8411,-2.8411,-2.8411,-2.8411,-2.8411,-2.8411,-2.8411,-2.8411,-2.8411,-2.8411,-2.8411,-2.8411,-2.8411,-2.8411,-2.8411,-2.8411,-2.8411,-2.8411,-2.8411,-2.8411,-2.8411,-2.8889,-2.9064,-1.2995,-1.4317,0.0,0.0,0.0,0.0,0.0,0.0,0.0,0.0,0.0,0.0,0.0,0.0,0.0,0.0,0.0,0.0,0.0,0.0,0.0,0.0,0.0,0.0,0.0,0.0,0.0,0.0,0.0,0.0,0.0,0.0,0.0,0.0,-2.713,-2.7116,-2.7791,-2.7116,-2.6793,-2.6793,-2.6793,-2.713,-2.7791,-2.7791,-2.7791,-2.7791,-2.7791,-2.7791,-2.7791,-2.7791,-2.7791,-2.7791,-2.7791,-2.7791,-2.7862,-2.8464,-2.8675,-2.8774,-2.9378,-2.9588,-2.949,-2.8886,-2.8675,-2.8577,-2.7974,-2.7312,-2.6807,-2.6793,-2.6793,-2.6793,-2.6793,-2.7734,-2.8675,-2.8675,-2.8675,-2.8507,-2.7932,-2.7256,-2.6722,-2.6533,-2.6811,-2.724,-2.7715,-2.8128,-2.8411,-2.8411,-2.8411,-2.8411,-2.8411,-2.8411,-2.8411,-2.8411,-2.8411,-2.8411,-2.8411,-2.8411,-2.8411,-2.8411,-2.8411,-2.8411,-2.8411,-2.8411,-2.8411,-2.8411,-2.8411,-2.8411,-2.8411,-2.8411,-2.8411,-2.8411,-2.8411,-2.8411,-1.2433,-1.4302,0.0,0.0,0.0,0.0,0.0,0.0,0.0,0.0,0.0,0.0,0.0,0.0,0.0,0.0,0.0,0.0,0.0,0.0,0.0,0.0,0.0,0.0,0.0,0.0,0.0,0.0,0.0,0.0,0.0,0.0,0.0,0.0,-2.6259,-2.6259,-2.6455,-2.6259,-2.6174,-2.6174,-2.6174,-2.6259,-2.6469,-2.6891,-2.7102,-2.7102,-2.7102,-2.7102,-2.7059,-2.6638,-2.6455,-2.6497,-2.6933,-2.7102,-2.7172,-2.7847,-2.8087,-2.8101,-2.8283,-2.831,-2.8282,-2.8143,-2.8087,-2.796,-2.7284,-2.6961,-2.6722,-2.6287,-2.6174,-2.6174,-2.6174,-2.6764,-2.7481,-2.7945,-2.7706,-2.7312,-2.7144,-2.661,-2.6241,-2.6474,-2.659,-2.693,-2.7665,-2.789,-2.8063,-2.8363,-2.8411,-2.8411,-2.8411,-2.8411,-2.8411,-2.8411,-2.8411,-2.8411,-2.8411,-2.8411,-2.8411,-2.8411,-2.8411,-2.8411,-2.8411,-2.8411,-2.8411,-2.8411,-2.8411,-2.8411,-2.8411,-2.8411,-2.8411,-2.8411,-2.8411,-2.8411,-1.3459,0.0,0.0,0.0,0.0,0.0,0.0,0.0,0.0,0.0,0.0,0.0,0.0,0.0,0.0,0.0,0.0,0.0,0.0,0.0,0.0,0.0,0.0,0.0,0.0,0.0,0.0,0.0,0.0,0.0,0.0,0.0,0.0,0.0,-2.5893,-2.5893,-2.5893,-2.5893,-2.5893,-2.5893,-2.5893,-2.5893,-2.5907,-2.6287,-2.6441,-2.6441,-2.6441,-2.6441,-2.6413,-2.6048,-2.5893,-2.5936,-2.6301,-2.6441,-2.6526,-2.7158,-2.7397,-2.7425,-2.7721,-2.7805,-2.7763,-2.7481,-2.7397,-2.727,-2.6638,-2.6441,-2.6371,-2.5992,-2.5893,-2.5893,-2.5893,-2.6174,-2.6596,-2.7242,-2.7088,-2.6807,-2.6807,-2.6329,-2.5975,-2.619,-2.6377,-2.6721,-2.7408,-2.7675,-2.794,-2.8323,-2.8411,-2.8411,-2.8411,-2.8411,-2.8411,-2.8411,-2.8411,-2.8411,-2.8411,-2.8411,-2.8411,-2.8411,-2.8411,-2.8411,-2.8411,-2.8411,-2.8411,-2.8411,-2.8411,-2.8411,-2.8411,-2.8411,-2.8411,-2.8411,-2.8411,-2.8411,0.0,0.0,0.0,0.0,0.0,0.0,0.0,0.0,0.0,0.0,0.0,0.0,0.0,0.0,0.0,0.0,0.0,0.0,0.0,0.0,0.0,0.0,0.0,0.0,0.0,0.0,0.0,0.0,0.0,0.0,0.0,0.0,0.0,0.0,-2.5893,-2.5893,-2.5893,-2.5893,-2.5893,0.0,-2.5893,-2.5893,-2.5893,-2.5893,-2.5893,-2.5893,-2.5893,-2.5893,-2.5893,-2.5893,-2.5893,-2.5893,-2.5893,-2.5893,-2.5964,-2.6526,-2.6722,-2.6821,-2.744,-2.7636,-2.7538,-2.6919,-2.6722,-2.6624,-2.6062,-2.5893,-2.5893,-2.5893,-2.5893,-2.5893,-2.5893,-2.5893,-2.6034,-2.6596,-2.6722,-2.6722,-2.6722,-2.6287,-2.5893,-2.5893,-2.6204,-2.6575,-2.6967,-2.7408,-2.784,-2.825,-2.8363,-2.8411,-2.8411,-2.8411,-2.8411,-2.8411,-2.8411,-2.8411,-2.8411,-2.8411,-2.8411,-2.8411,-2.8411,-2.8411,-2.8411,-2.8411,-2.8411,-2.8411,-2.8411,-2.8411,-2.8411,-2.8411,-2.8411,-2.8411,-2.8411,-2.8411,0.0,0.0,0.0,0.0,0.0,0.0,0.0,0.0,0.0,0.0,0.0,0.0,0.0,0.0,0.0,0.0,0.0,0.0,0.0,0.0,0.0,0.0,0.0,0.0,0.0,0.0,0.0,0.0,0.0,0.0,0.0,0.0,0.0,-2.5893,-2.5893,-2.5893,-2.5893,-2.5893,-2.5893,0.0,-2.5893,-2.5893,-2.5893,-2.5893,-2.5893,-2.5893,-2.5893,-2.5893,-2.5893,-2.5893,-2.5893,-2.5893,-2.5893,-2.5893,-2.5921,-2.6048,-2.609,-2.6104,-2.6245,-2.6301,-2.6273,-2.6132,-2.609,-2.6062,-2.5936,-2.5893,-2.5893,-2.5893,-2.5893,-2.5893,-2.5893,-2.5893,-2.5921,-2.6062,-2.609,-2.609,-2.609,-2.5992,-2.5893,-2.5893,-2.5975,-2.615,-2.6563,-2.6721,-2.7008,-2.7675,-2.8137,-2.8411,-2.8411,-2.8411,-2.8411,-2.8411,-2.8411,-2.8411,-2.8411,-2.8411,-2.8411,-2.8411,-2.8411,-2.8411,-2.8411,-2.8411,-2.8411,-2.8411,-2.8411,-2.8411,-2.8411,-2.8411,-2.8411,-2.8411,-2.8411,-2.8411,0.0,0.0,0.0,0.0,0.0,0.0,0.0,0.0,0.0,0.0,0.0,0.0,0.0,0.0,0.0,0.0,0.0,0.0,0.0,0.0,0.0,0.0,0.0,0.0,0.0,0.0,0.0,0.0,0.0,0.0,0.0,-2.5316,-2.5458,-2.5458,-2.5739,-2.5753,-2.5458,-2.5753,-2.5739,-2.5458,-2.5458,-2.5458,-2.5472,-2.5767,-2.5893,-2.5893,-2.5893,-2.5893,-2.5893,-2.5893,-2.5893,-2.5893,-2.5893,-2.5893,-2.5893,-2.5893,-2.5893,-2.5893,-2.5893,-2.5893,-2.5893,-2.5893,-2.5893,-2.5893,-2.5893,-2.5893,-2.5893,-2.5893,-2.5893,-2.5893,-2.5893,-2.5893,-2.5893,-2.5893,-2.5893,-2.5893,-2.5893,-2.5893,-2.5893,-2.5893,-2.5893,-2.6029,-2.6431,-2.68,-2.7255,-2.789,-2.8226,-2.8411,-2.8411,-2.8411,-2.8411,-2.8411,-2.8411,-2.8411,-2.8411,-2.8411,-2.8411,-2.8411,-2.8411,-2.8411,-2.8411,-2.8411,-2.8411,-2.8411,-2.8411,-2.8411,-2.8411,-2.8411,-2.8411,-2.8411,-2.8411,-2.8411,0.0,0.0,0.0,0.0,0.0,0.0,0.0,0.0,0.0,0.0,0.0,0.0,0.0,0.0,0.0,0.0,0.0,0.0,0.0,0.0,0.0,0.0,0.0,0.0,0.0,0.0,0.0,0.0,0.0,0.0,-2.3965,-2.4467,-2.4773,-2.4773,-2.5303,-2.5358,-2.4852,-2.5358,-2.5358,-2.4838,-2.4838,-2.4838,-2.4866,-2.5372,-2.5697,-2.5893,-2.5893,-2.5893,-2.5893,-2.5893,-2.5893,-2.5893,-2.5893,-2.5893,-2.5893,-2.5893,-2.5893,-2.5893,-2.5893,-2.5893,-2.5893,-2.5893,-2.5893,-2.5893,-2.5893,-2.5893,-2.5893,-2.5893,-2.5893,-2.5893,-2.5893,-2.5893,-2.5893,-2.5893,-2.5893,-2.5893,-2.5893,-2.5893,-2.5893,-2.5893,-2.5893,-2.6002,-2.6324,-2.6904,-2.7473,-2.7915,-2.8226,-2.8411,-2.8411,-2.8411,-2.8411,-2.8411,-2.8411,-2.8411,-2.8411,-2.8411,-2.8411,-2.8411,-2.8411,-2.8411,-2.8411,-2.8411,-2.8411,-2.8411,-2.8411,-2.8411,-2.8411,-2.8411,-2.8411,-2.8411,-2.8411,-2.8411,0.0,0.0,0.0,0.0,0.0,0.0,0.0,0.0,0.0,0.0,0.0,0.0,0.0,0.0,0.0,0.0,0.0,0.0,0.0,0.0,0.0,0.0,0.0,0.0,0.0,0.0,0.0,0.0,0.0,0.0,-2.3424,-2.3701,-2.3872,-2.3872,-2.4187,-2.4289,-2.4205,-2.4289,-2.4289,-2.4205,-2.4205,-2.4205,-2.4205,-2.4289,-2.4908,-2.5893,-2.5893,-2.5893,-2.5893,-2.5893,-2.5893,-2.5893,-2.5893,-2.5893,-2.5893,-2.5893,-2.5893,-2.5893,-2.5893,-2.5893,-2.5893,-2.5893,-2.5893,-2.5893,-2.5893,-2.5893,-2.5893,-2.5893,-2.5893,-2.5893,-2.5893,-2.5893,-2.5893,-2.5893,-2.5893,-2.5893,-2.5893,-2.5893,-2.5893,-2.5893,-2.5893,-2.5921,-2.5975,-2.6056,-2.615,-2.6204,-2.7458,-2.8411,-2.8411,-2.8411,-2.8411,-2.8411,-2.8411,-2.8411,-2.8411,-2.8411,-2.8411,-2.8411,-2.8411,-2.8411,-2.8411,-2.8411,-2.8411,-2.8411,-2.8411,-2.8411,-2.8411,-2.8411,-2.8411,-2.8411,-2.8411,-2.8411,0.0,0.0,0.0,0.0,0.0,0.0,0.0,0.0,0.0,0.0,0.0,0.0,0.0,0.0,0.0,0.0,0.0,0.0,0.0,0.0,0.0,0.0,0.0,0.0,0.0,0.0,0.0,0.0,0.0,-2.2448,-2.2473,-2.2777,-2.3006,-2.3144,-2.3617,-2.3707,-2.332,-2.3834,-2.3909,-2.3544,-2.3544,-2.3544,-2.3544,-2.3544,-2.4233,-2.5414,-2.5414,-2.5584,-2.5893,-2.5893,-2.5893,-2.5893,-2.5893,-2.5893,-2.5893,-2.5893,-2.5893,-2.5893,-2.5893,-2.5893,-2.5893,-2.5893,-2.5893,-2.5893,-2.5893,-2.5893,-2.5893,-2.5893,-2.5893,-2.5893,-2.5893,-2.5893,-2.5893,-2.5893,-2.5893,-2.5893,-2.5893,-2.5893,-2.5893,-2.5893,-2.5893,-2.5893,-2.5893,-2.5893,-2.6204,-2.7152,-2.794,-2.8411,-2.8411,-2.8411,-2.8411,-2.8411,-2.8411,-2.8411,-2.8411,-2.8411,-2.8411,-2.8411,-2.8411,-2.8411,-2.8411,-2.8411,-2.8411,-2.8411,-2.8411,-2.8411,-2.8411,-2.8411,-2.8411,-2.8411,-2.8411,-2.8411,0.0,0.0,0.0,0.0,0.0,0.0,0.0,0.0,0.0,0.0,0.0,0.0,0.0,0.0,0.0,0.0,0.0,0.0,0.0,0.0,0.0,0.0,0.0,0.0,0.0,0.0,0.0,0.0,0.0,-2.135,-2.152,-2.1907,-2.2176,-2.2273,-2.2889,-2.2953,-2.2385,-2.3064,-2.3188,-2.2762,-2.2762,-2.2824,-2.2859,-2.2859,-2.3463,-2.4542,-2.4697,-2.5119,-2.5655,-2.5655,-2.5753,-2.5893,-2.5893,-2.5893,-2.5893,-2.5893,-2.5893,-2.5893,-2.5893,-2.5893,-2.5893,-2.5893,-2.5893,-2.5893,-2.5893,-2.5893,-2.5893,-2.5893,-2.5893,-2.5893,-2.5893,-2.5893,-2.5893,-2.5893,-2.5893,-2.5893,-2.5893,-2.5893,-2.5893,-2.5893,-2.5893,-2.5893,-2.5893,-2.5893,-2.6312,-2.7575,-2.775,-2.775,-2.775,-2.775,-2.775,-2.775,-2.8137,-2.8411,-2.8411,-2.8411,-2.8411,-2.8411,-2.8411,-2.8411,-2.8411,-2.8411,-2.8411,-2.8411,-2.8411,-2.8411,-2.8411,-2.8411,-2.8411,-2.8411,-2.8411,-2.8411,0.0,0.0,0.0,0.0,0.0,0.0,0.0,0.0,0.0,0.0,0.0,0.0,0.0,0.0,0.0,0.0,0.0,0.0,0.0,0.0,0.0,0.0,0.0,0.0,0.0,0.0,0.0,0.0,0.0,-2.0947,-2.0774,-2.1207,-2.1356,-2.1111,-2.1612,-2.1756,-2.1464,-2.1515,-2.1636,-2.1872,-2.1872,-2.2015,-2.225,-2.225,-2.2601,-2.3224,-2.3867,-2.4486,-2.5063,-2.5063,-2.5386,-2.5893,-2.5893,-2.5893,-2.5893,-2.5893,-2.5893,-2.5893,-2.5893,-2.5893,-2.5893,-2.5893,-2.5893,-2.5893,-2.5893,-2.5893,-2.5893,-2.5893,-2.5893,-2.5893,-2.5893,-2.5893,-2.5893,-2.5893,-2.5893,-2.5893,-2.5893,-2.5893,-2.5893,-2.5893,-2.5893,-2.5893,-2.5893,-2.5893,-2.5921,-2.6029,-2.6029,-2.6029,-2.6029,-2.6029,-2.6029,-2.6029,-2.7458,-2.8411,-2.8411,-2.8411,-2.8411,-2.8411,-2.8411,-2.8411,-2.8411,-2.8411,-2.8411,-2.8411,-2.8411,-2.8411,-2.8411,-2.8411,-2.8411,-2.8411,-2.8411,-2.8411,0.0,0.0,0.0,0.0,0.0,0.0,0.0,0.0,0.0,0.0,0.0,0.0,0.0,0.0,0.0,0.0,0.0,0.0,0.0,0.0,0.0,0.0,0.0,0.0,0.0,0.0,0.0,0.0,0.0,0.0,-2.0898,-2.0923,-2.0972,-2.0997,-2.118,-2.1423,-2.1664,-2.1817,-2.1973,-2.2067,-2.2067,-2.2114,-2.2208,-2.2208,-2.232,-2.2545,-2.2784,-2.3473,-2.4416,-2.4416,-2.4781,-2.533,-2.533,-2.5542,-2.5893,-2.5893,-2.5893,-2.5893,-2.5893,-2.5893,-2.5893,-2.5893,-2.5893,-2.5893,-2.5893,-2.5893,-2.5893,-2.5893,-2.5893,-2.5893,-2.5893,-2.5893,-2.5893,-2.5893,-2.5893,-2.5893,-2.5893,-2.5893,-2.5893,-2.5893,-2.5893,-2.5893,-2.5893,-2.5893,-2.5893,-2.5893,-2.5893,-2.5893,-2.5893,-2.5893,-2.6312,-2.7382,-2.8039,-2.8411,-2.8411,-2.8411,-2.8411,-2.8411,-2.8411,-2.8411,-2.8411,-2.8411,-2.8411,-2.8411,-2.8411,-2.8411,-2.8411,-2.8411,-2.8411,-2.8411,-2.8411,-2.8411,0.0,0.0,0.0,0.0,0.0,0.0,0.0,0.0,0.0,0.0,0.0,0.0,0.0,0.0,0.0,0.0,0.0,0.0,0.0,0.0,0.0,0.0,0.0,0.0,0.0,0.0,0.0,0.0,0.0,0.0,-2.0316,-2.0452,-2.0675,-2.0983,-2.0923,-2.1057,-2.1423,-2.1688,-2.1841,-2.1926,-2.202,-2.2114,-2.2208,-2.2208,-2.2208,-2.2208,-2.2208,-2.2798,-2.3769,-2.3769,-2.4134,-2.4697,-2.4697,-2.495,-2.533,-2.5514,-2.5584,-2.5626,-2.5823,-2.5893,-2.5893,-2.5893,-2.5893,-2.5893,-2.5893,-2.5893,-2.5893,-2.5893,-2.5893,-2.5893,-2.5893,-2.5893,-2.5893,-2.5893,-2.5893,-2.5893,-2.5893,-2.5893,-2.5893,-2.5893,-2.5893,-2.5893,-2.5893,-2.5893,-2.5893,-2.5893,-2.5893,-2.5893,-2.5893,-2.5893,-2.6551,-2.8226,-2.8411,-2.8177,-2.7625,-2.8088,-2.8411,-2.8411,-2.8411,-2.8411,-2.8411,-2.8411,-2.8411,-2.8411,-2.8411,-2.8411,-2.8411,-2.8411,-2.8411,-2.8411,-2.8411,-2.8411,0.0,0.0,0.0,0.0,0.0,0.0,0.0,0.0,0.0,0.0,0.0,0.0,0.0,0.0,0.0,0.0,0.0,0.0,0.0,0.0,0.0,0.0,0.0,0.0,0.0,0.0,0.0,0.0,0.0,-1.9525,-1.8937,-1.9704,-2.0407,-2.0917,-2.0746,-2.066,-2.066,-2.087,-2.1091,-2.1372,-2.166,-2.1921,-2.2184,-2.2208,-2.2208,-2.2208,-2.2208,-2.2545,-2.3069,-2.3069,-2.3473,-2.4064,-2.4064,-2.4064,-2.4163,-2.4767,-2.4978,-2.5091,-2.5655,-2.5879,-2.5893,-2.5893,-2.5893,-2.5893,-2.5893,-2.5893,-2.5893,-2.5893,-2.5893,-2.5893,-2.5893,-2.5893,-2.5893,-2.5893,-2.5893,-2.5893,-2.5893,-2.5893,-2.5893,-2.5893,-2.5893,-2.5893,-2.5893,-2.5893,-2.5893,-2.5893,-2.5893,-2.5893,-2.5893,-2.5893,-2.6525,-2.8137,-2.8323,-2.7675,-2.6029,-2.7433,-2.8387,-2.8387,-2.8387,-2.8411,-2.8411,-2.8411,-2.8411,-2.8411,-2.8411,-2.8411,-2.8411,-2.8411,-2.8411,-2.8411,-2.8411,-2.8411,-0.7871,0.0,0.0,0.0,0.0,0.0,0.0,0.0,0.0,0.0,0.0,0.0,0.0,0.0,0.0,0.0,0.0,0.0,0.0,0.0,0.0,0.0,0.0,0.0,0.0,0.0,0.0,0.0,-1.9159,-1.9081,-1.8911,-1.9137,-1.9341,-1.9475,-1.9618,-1.9701,-1.9701,-1.9942,-2.0319,-2.0819,-2.1102,-2.1476,-2.1926,-2.2114,-2.2208,-2.2208,-2.2208,-2.2292,-2.2461,-2.2461,-2.2826,-2.3389,-2.3389,-2.367,-2.4106,-2.4289,-2.4627,-2.5021,-2.5203,-2.5514,-2.5893,-2.5893,-2.5893,-2.5893,-2.5893,-2.5893,-2.5893,-2.5893,-2.5893,-2.5893,-2.5893,-2.5893,-2.5893,-2.5893,-2.5893,-2.5893,-2.5893,-2.5893,-2.5893,-2.5893,-2.5893,-2.5893,-2.5893,-2.5893,-2.5893,-2.5893,-2.5893,-2.5893,-2.5893,-2.5893,-2.6084,-2.6551,-2.6604,-2.6392,-2.5948,-2.7433,-2.8226,-2.785,-2.8201,-2.8411,-2.8411,-2.8411,-2.8411,-2.8411,-2.8411,-2.8411,-2.8411,-2.8411,-2.8411,-2.8411,-2.8411,-2.8411,0.0,0.0,0.0,0.0,0.0,0.0,0.0,0.0,0.0,0.0,0.0,0.0,0.0,0.0,0.0,0.0,0.0,0.0,0.0,0.0,0.0,0.0,0.0,0.0,0.0,0.0,0.0,-1.8584,-1.8571,-1.8571,-1.8571,-1.8571,-1.8675,-1.8898,-1.9061,-1.9129,-1.9129,-1.94,-1.971,-2.0061,-2.0402,-2.0891,-2.1471,-2.1713,-2.1954,-2.2208,-2.2208,-2.2208,-2.2208,-2.2208,-2.2419,-2.2704,-2.2704,-2.2967,-2.3333,-2.3586,-2.3909,-2.4261,-2.4528,-2.4852,-2.5161,-2.5161,-2.533,-2.5556,-2.5809,-2.5893,-2.5893,-2.5893,-2.5893,-2.5893,-2.5893,-2.5893,-2.5893,-2.5893,-2.5893,-2.5893,-2.5893,-2.5893,-2.5893,-2.5893,-2.5893,-2.5893,-2.5893,-2.5893,-2.5893,-2.5893,-2.5893,-2.5893,-2.5893,-2.5893,-2.5893,-2.5893,-2.5893,-2.6056,-2.6377,-2.7291,-2.78,-2.7675,-2.8137,-2.8411,-2.8411,-2.8411,-2.8411,-2.8411,-2.8411,-2.8411,-2.8411,-2.8411,-2.8411,-2.8411,-2.8411,-2.8411,0.0,-1.0324,0.0,0.0,0.0,0.0,-1.2234,-1.2219,0.0,0.0,0.0,0.0,0.0,0.0,0.0,0.0,0.0,0.0,0.0,0.0,0.0,0.0,0.0,0.0,0.0,-1.8427,-1.8519,-1.8035,-1.7996,-1.7996,-1.7996,-1.7996,-1.8218,-1.8702,-1.8715,-1.8715,-1.8715,-1.8954,-1.9141,-1.9208,-1.9683,-2.0255,-2.0886,-2.1106,-2.1533,-2.2109,-2.2109,-2.2137,-2.2208,-2.2208,-2.2208,-2.2208,-2.2208,-2.2208,-2.2264,-2.2788,-2.3041,-2.3182,-2.3783,-2.4022,-2.4092,-2.4092,-2.4458,-2.5006,-2.5528,-2.5725,-2.5781,-2.5865,-2.5893,-2.5893,-2.5893,-2.5893,-2.5893,-2.5893,-2.5893,-2.5893,-2.5893,-2.5893,-2.5893,-2.5893,-2.5893,-2.5893,-2.5893,-2.5893,-2.5893,-2.5893,-2.5893,-2.5893,-2.5893,-2.5893,-2.5893,-2.5893,-2.5893,-2.6204,-2.6916,-2.7045,-2.7265,-2.7625,-2.8079,-2.8323,-2.8323,-2.8387,-2.8411,-2.8411,-2.8411,-2.8411,-2.8411,-2.8411,-2.8411,-2.8411,-2.8411,-2.8411,-1.2548,-1.2977,-1.337,0.0,0.0,0.0,0.0,-1.0782,0.0,0.0,0.0,0.0,0.0,0.0,0.0,0.0,0.0,0.0,0.0,0.0,0.0,0.0,0.0,0.0,0.0,-1.7473,-1.7486,-1.7382,-1.7382,-1.7382,-1.7382,-1.7382,-1.7421,-1.7525,-1.7525,-1.7525,-1.7525,-1.7737,-1.8094,-1.8587,-1.9047,-1.9597,-2.0213,-2.0468,-2.0914,-2.1476,-2.1476,-2.1744,-2.2208,-2.2208,-2.2208,-2.2208,-2.2208,-2.2208,-2.2208,-2.2334,-2.2676,-2.3112,-2.3238,-2.3656,-2.4092,-2.4092,-2.4177,-2.4289,-2.4416,-2.4683,-2.5077,-2.5711,-2.5893,-2.5893,-2.5893,-2.5893,-2.5893,-2.5893,-2.5893,-2.5893,-2.5893,-2.5893,-2.5893,-2.5893,-2.5893,-2.5893,-2.5893,-2.5893,-2.5893,-2.5893,-2.5893,-2.5893,-2.5893,-2.5893,-2.5893,-2.5893,-2.5893,-2.5975,-2.6123,-2.6733,-2.6993,-2.6774,-2.7499,-2.7915,-2.7915,-2.8226,-2.8411,-2.8411,-2.8411,-2.8411,-2.8411,-2.8411,-2.8411,-2.8411,-2.8411,-2.8411,0.0,0.0,-1.4341,-1.3176,0.0,0.0,0.0,0.0,0.0,0.0,0.0,0.0,0.0,0.0,0.0,0.0,0.0,0.0,0.0,0.0,0.0,0.0,0.0,0.0,0.0,-1.7199,-1.7199,-1.7199,-1.7199,-1.7199,-1.7199,-1.7199,-1.7199,-1.7199,-1.7199,-1.7199,-1.7199,-1.7303,-1.7552,-1.7961,-1.8337,-1.8858,-1.9556,-1.9803,-2.0414,-2.1316,-2.1316,-2.1631,-2.2208,-2.2208,-2.2208,-2.2208,-2.2208,-2.2208,-2.2208,-2.2208,-2.2405,-2.2634,-2.2634,-2.2883,-2.315,-2.315,-2.3361,-2.36,-2.36,-2.398,-2.4472,-2.4894,-2.5231,-2.5442,-2.5344,-2.5584,-2.5893,-2.5893,-2.5893,-2.5893,-2.5893,-2.5893,-2.5893,-2.5893,-2.5893,-2.5893,-2.5893,-2.5893,-2.5893,-2.5893,-2.5893,-2.5893,-2.5893,-2.5893,-2.5893,-2.5893,-2.5893,-2.5893,-2.5893,-2.6285,-2.659,-2.68,-2.7433,-2.779,-2.779,-2.8177,-2.8411,-2.8411,-2.8411,-2.8411,-2.8411,-2.8411,-2.8411,-2.8411,-2.8411,-2.8411,0.0,0.0,0.0,0.0,0.0,-1.4027,0.0,0.0,0.0,-1.32,0.0,0.0,0.0,0.0,0.0,0.0,0.0,0.0,0.0,0.0,0.0,0.0,0.0,0.0,0.0,-1.6937,-1.6963,-1.7186,-1.699,-1.6963,-1.7186,-1.7199,-1.7199,-1.7199,-1.7199,-1.7199,-1.7199,-1.724,-1.7344,-1.7496,-1.7767,-1.8249,-1.8921,-1.9085,-1.9824,-2.0928,-2.0928,-2.135,-2.2025,-2.2025,-2.2109,-2.2208,-2.2208,-2.2208,-2.2208,-2.2208,-2.2208,-2.2208,-2.2208,-2.2208,-2.2208,-2.2208,-2.2545,-2.2929,-2.2929,-2.3389,-2.3909,-2.3909,-2.4345,-2.4838,-2.4908,-2.5428,-2.5893,-2.5893,-2.5893,-2.5893,-2.5893,-2.5893,-2.5893,-2.5893,-2.5893,-2.5893,-2.5893,-2.5893,-2.5893,-2.5893,-2.5893,-2.5893,-2.5893,-2.5893,-2.5893,-2.5893,-2.5893,-2.5893,-2.5893,-2.5893,-2.6204,-2.6941,-2.7408,-2.77,-2.779,-2.8177,-2.8411,-2.8411,-2.8411,-2.8411,-2.8411,-2.8411,-2.8411,-2.8411,-2.8411,-2.8411,0.0,0.0,0.0,0.0,-1.5375,0.0,0.0,0.0,-1.3268,-1.2372,0.0,0.0,0.0,0.0,0.0,0.0,0.0,0.0,0.0,0.0,0.0,0.0,0.0,0.0,0.0,0.0,-1.6101,-1.712,-1.6258,-1.6127,-1.7146,-1.7199,-1.7199,-1.7199,-1.7199,-1.7199,-1.7199,-1.7372,-1.7475,-1.7496,-1.7767,-1.803,-1.8299,-1.8319,-1.8814,-1.9621,-1.9621,-2.0302,-2.1392,-2.1392,-2.1715,-2.2208,-2.2208,-2.2208,-2.2208,-2.2208,-2.2208,-2.2208,-2.2208,-2.2208,-2.2208,-2.2208,-2.225,-2.2306,-2.2306,-2.2742,-2.321,-2.321,-2.3698,-2.443,-2.5472,-2.5823,-2.5893,-2.5893,-2.5893,-2.5893,-2.5893,-2.5893,-2.5893,-2.5893,-2.5893,-2.5893,-2.5893,-2.5893,-2.5893,-2.5893,-2.5893,-2.5893,-2.5893,-2.5893,-2.5893,-2.5893,-2.5893,-2.5893,-2.5893,-2.5893,-2.6096,-2.6537,-2.6941,-2.7367,-2.779,-2.8177,-2.8411,-2.8411,-2.8411,-2.8411,-2.8411,-2.8411,-2.8411,-2.8411,-2.8411,-2.8411,0.0,0.0,0.0,0.0,0.0,0.0,-1.3879,0.0,-1.3317,0.0,0.0,0.0,0.0,0.0,0.0,0.0,0.0,0.0,0.0,0.0,0.0,0.0,0.0,0.0,0.0,0.0,0.0,0.0,0.0,-1.5853,-1.6689,-1.7029,-1.7199,-1.7199,-1.7199,-1.7199,-1.7199,-1.7282,-1.7372,-1.7496,-1.7611,-1.7848,-1.8202,-1.8202,-1.8635,-1.939,-1.939,-1.9915,-2.0787,-2.0787,-2.092,-2.1195,-2.1547,-2.1884,-2.2208,-2.2208,-2.2208,-2.2208,-2.2208,-2.2208,-2.2208,-2.2208,-2.2208,-2.2208,-2.2208,-2.239,-2.2587,-2.2587,-2.3136,-2.3713,-2.3755,-2.4812,-2.5528,-2.4106,-2.484,-2.5893,-2.5893,-2.5893,-2.5893,-2.5893,-2.5893,-2.5893,-2.5893,-2.5893,-2.5893,-2.5893,-2.5893,-2.5893,-2.5893,-2.5893,-2.5893,-2.5893,-2.5893,-2.5893,-2.5893,-2.5893,-2.5975,-2.615,-2.693,-2.7509,-2.779,-2.8177,-2.8411,-2.8411,-2.8411,-2.8411,-2.8411,-2.8411,-2.8411,-2.8411,-2.8411,-2.8411,-1.706,0.0,0.0,0.0,0.0,0.0,0.0,0.0,0.0,0.0,0.0,0.0,0.0,0.0,0.0,0.0,0.0,0.0,0.0,0.0,0.0,0.0,0.0,0.0,0.0,0.0,0.0,0.0,0.0,0.0,-1.6323,-1.6767,-1.7042,-1.7199,-1.7199,-1.7199,-1.7199,-1.7199,-1.7282,-1.7413,-1.7413,-1.7672,-1.8123,-1.8123,-1.8457,-1.9076,-1.9117,-1.9481,-2.0048,-2.0091,-2.0231,-2.0442,-2.0886,-2.142,-2.1969,-2.2137,-2.2208,-2.2208,-2.2208,-2.2208,-2.2208,-2.2208,-2.2208,-2.2208,-2.2208,-2.2208,-2.2208,-2.2208,-2.263,-2.2929,-2.2362,-2.3544,-2.4418,-2.2644,-2.3586,-2.5064,-2.5753,-2.5893,-2.5893,-2.5893,-2.5893,-2.5893,-2.5893,-2.5893,-2.5893,-2.5893,-2.5893,-2.5893,-2.5893,-2.5893,-2.5893,-2.5893,-2.5893,-2.5893,-2.5893,-2.5893,-2.5893,-2.5893,-2.6878,-2.7509,-2.76,-2.8128,-2.8411,-2.8411,-2.8411,-2.8411,-2.8411,-2.8411,-2.8411,-2.8411,-2.8411,-2.8411,0.0,0.0,0.0,-1.5724,0.0,0.0,0.0,0.0,-1.4419,0.0,0.0,0.0,0.0,0.0,0.0,0.0,0.0,0.0,0.0,0.0,0.0,0.0,0.0,0.0,0.0,0.0,0.0,0.0,0.0,0.0,-1.6245,-1.6415,-1.6663,-1.7186,-1.7199,-1.7199,-1.7199,-1.7199,-1.7199,-1.722,-1.722,-1.7461,-1.7902,-1.7902,-1.8037,-1.825,-1.8447,-1.8757,-1.9149,-1.9356,-1.9803,-2.04,-2.0414,-2.0801,-2.1392,-2.1983,-2.2208,-2.2208,-2.2208,-2.2208,-2.2208,-2.2208,-2.2208,-2.2208,-2.2208,-2.2208,-2.2208,-2.2208,-2.2222,-2.2236,-2.2208,-2.2264,-2.2306,-2.2222,-2.2264,-2.2995,-2.5374,-2.5893,-2.5893,-2.5893,-2.5893,-2.5893,-2.5893,-2.5893,-2.5893,-2.5893,-2.5893,-2.5893,-2.5893,-2.5893,-2.5893,-2.5893,-2.5893,-2.5893,-2.5893,-2.5893,-2.5893,-2.5893,-2.6669,-2.7122,-2.7122,-2.7949,-2.8411,-2.8411,-2.8411,-2.8411,-2.8411,-2.8411,-2.8411,-2.8411,-2.8411,-2.8411,0.0,0.0,-1.6043,-1.5774,0.0,0.0,0.0,0.0,0.0,0.0,0.0,0.0,0.0,0.0,0.0,0.0,0.0,0.0,0.0,0.0,0.0,0.0,0.0,0.0,0.0,0.0,0.0,0.0,0.0,0.0,0.0,-1.6179,-1.665,-1.7186,-1.7199,-1.7199,-1.7199,-1.7199,-1.7199,-1.7199,-1.7199,-1.7344,-1.7652,-1.7808,-1.8003,-1.8222,-1.842,-1.8571,-1.8707,-1.8787,-1.8933,-1.9234,-2.0077,-2.0512,-2.0787,-2.1378,-2.1856,-2.2208,-2.2208,-2.2208,-2.2208,-2.2208,-2.2208,-2.2208,-2.2208,-2.2208,-2.2208,-2.2208,-2.2208,-2.2208,-2.2208,-2.2208,-2.2208,-2.2208,-2.2208,-2.2658,-2.4345,-2.5358,-2.5893,-2.5893,-2.5893,-2.5893,-2.5893,-2.5893,-2.5893,-2.5893,-2.5893,-2.5893,-2.5893,-2.5893,-2.5893,-2.5893,-2.5893,-2.5893,-2.5893,-2.5893,-2.5893,-2.5893,-2.6852,-2.7316,-2.7122,-2.7949,-2.8411,-2.8411,-2.8411,-2.8411,-2.8411,-2.8411,-2.8411,-2.8411,-2.8411,-2.8411,-1.5478,-1.5478,0.0,-1.5391,-1.4968,0.0,-1.4321,0.0,0.0,0.0,0.0,0.0,0.0,0.0,0.0,0.0,0.0,0.0,0.0,0.0,0.0,0.0,0.0,0.0,0.0,0.0,-1.0677,-1.1643,0.0,0.0,0.0,0.0,-1.6336,-1.6898,-1.7094,-1.7199,-1.7199,-1.7199,-1.7199,-1.7199,-1.7199,-1.7323,-1.7496,-1.7672,-1.7828,-1.7969,-1.8248,-1.8361,-1.8301,-1.8439,-1.8498,-1.8596,-1.9635,-2.0203,-2.0498,-2.1322,-2.187,-2.2208,-2.2208,-2.2208,-2.2208,-2.2208,-2.2208,-2.2208,-2.2208,-2.2208,-2.2208,-2.2208,-2.2208,-2.2208,-2.2208,-2.2208,-2.2208,-2.2208,-2.2208,-2.2419,-2.3248,-2.4739,-2.5893,-2.5893,-2.5893,-2.5893,-2.5893,-2.5893,-2.5893,-2.5893,-2.5893,-2.5893,-2.5893,-2.5893,-2.5893,-2.5893,-2.5893,-2.5725,-2.5316,-2.54,-2.5458,-2.5458,-2.6431,-2.6904,-2.668,-2.7484,-2.7949,-2.7949,-2.825,-2.8411,-2.8411,-2.8411,-2.8411,-2.8411,-2.8411,-2.8411]}]]